<?xml version="1.0" encoding="UTF-8" standalone="no" ?>
<gpx xmlns="http://www.topografix.com/GPX/1/1" xmlns:xsi="http://www.w3.org/2001/XMLSchema-instance" xsi:schemaLocation="http://www.topografix.com/GPX/1/1 http://www.topografix.com/GPX/1/1/gpx.xsd" version="1.1" creator="VisuGPX - https://www.visugpx.com">
  <metadata>
    <name>Syam,La forêt de Cornu</name>
  </metadata>
  <trk>
    <name><![CDATA[tmp]]></name>
    <trkseg>
      <trkpt lat="46.68879" lon="5.94723">
        <ele>514.8</ele>
        <time>2021-02-21T12:47:54Z</time>
      </trkpt>
      <trkpt lat="46.68875" lon="5.94725">
        <ele>517.7</ele>
        <time>2021-02-21T12:48:11Z</time>
      </trkpt>
      <trkpt lat="46.6887" lon="5.94727">
        <ele>519.8</ele>
        <time>2021-02-21T12:48:21Z</time>
      </trkpt>
      <trkpt lat="46.68865" lon="5.94728">
        <ele>520.5</ele>
        <time>2021-02-21T12:48:25Z</time>
      </trkpt>
      <trkpt lat="46.68861" lon="5.94731">
        <ele>520.9</ele>
        <time>2021-02-21T12:48:30Z</time>
      </trkpt>
      <trkpt lat="46.68857" lon="5.94736">
        <ele>521.3</ele>
        <time>2021-02-21T12:48:35Z</time>
      </trkpt>
      <trkpt lat="46.68854" lon="5.94741">
        <ele>521.4</ele>
        <time>2021-02-21T12:48:39Z</time>
      </trkpt>
      <trkpt lat="46.68853" lon="5.94747">
        <ele>521.5</ele>
        <time>2021-02-21T12:48:44Z</time>
      </trkpt>
      <trkpt lat="46.68854" lon="5.94754">
        <ele>521.7</ele>
        <time>2021-02-21T12:48:49Z</time>
      </trkpt>
      <trkpt lat="46.68854" lon="5.9476">
        <ele>522</ele>
        <time>2021-02-21T12:48:53Z</time>
      </trkpt>
      <trkpt lat="46.68851" lon="5.94767">
        <ele>522.8</ele>
        <time>2021-02-21T12:48:58Z</time>
      </trkpt>
      <trkpt lat="46.68848" lon="5.94773">
        <ele>523.7</ele>
        <time>2021-02-21T12:49:03Z</time>
      </trkpt>
      <trkpt lat="46.68845" lon="5.94779">
        <ele>524.4</ele>
        <time>2021-02-21T12:49:07Z</time>
      </trkpt>
      <trkpt lat="46.68843" lon="5.94786">
        <ele>525.3</ele>
        <time>2021-02-21T12:49:12Z</time>
      </trkpt>
      <trkpt lat="46.6884" lon="5.94792">
        <ele>526.3</ele>
        <time>2021-02-21T12:49:18Z</time>
      </trkpt>
      <trkpt lat="46.68839" lon="5.948">
        <ele>527</ele>
        <time>2021-02-21T12:49:23Z</time>
      </trkpt>
      <trkpt lat="46.68837" lon="5.94806">
        <ele>527.4</ele>
        <time>2021-02-21T12:49:27Z</time>
      </trkpt>
      <trkpt lat="46.68833" lon="5.94812">
        <ele>527.7</ele>
        <time>2021-02-21T12:49:31Z</time>
      </trkpt>
      <trkpt lat="46.68831" lon="5.94818">
        <ele>528.1</ele>
        <time>2021-02-21T12:49:35Z</time>
      </trkpt>
      <trkpt lat="46.6883" lon="5.94825">
        <ele>528.5</ele>
        <time>2021-02-21T12:49:39Z</time>
      </trkpt>
      <trkpt lat="46.68829" lon="5.94831">
        <ele>528.9</ele>
        <time>2021-02-21T12:49:44Z</time>
      </trkpt>
      <trkpt lat="46.68831" lon="5.94838">
        <ele>529.7</ele>
        <time>2021-02-21T12:49:50Z</time>
      </trkpt>
      <trkpt lat="46.68834" lon="5.94844">
        <ele>530.4</ele>
        <time>2021-02-21T12:49:55Z</time>
      </trkpt>
      <trkpt lat="46.68831" lon="5.94837">
        <ele>532.3</ele>
        <time>2021-02-21T12:50:19Z</time>
      </trkpt>
      <trkpt lat="46.68826" lon="5.94839">
        <ele>532.8</ele>
        <time>2021-02-21T12:50:37Z</time>
      </trkpt>
      <trkpt lat="46.68825" lon="5.94846">
        <ele>533.2</ele>
        <time>2021-02-21T12:50:48Z</time>
      </trkpt>
      <trkpt lat="46.68827" lon="5.94852">
        <ele>532.8</ele>
        <time>2021-02-21T12:50:53Z</time>
      </trkpt>
      <trkpt lat="46.68829" lon="5.94859">
        <ele>532.2</ele>
        <time>2021-02-21T12:50:58Z</time>
      </trkpt>
      <trkpt lat="46.68828" lon="5.94866">
        <ele>531.8</ele>
        <time>2021-02-21T12:51:03Z</time>
      </trkpt>
      <trkpt lat="46.68827" lon="5.94873">
        <ele>531.3</ele>
        <time>2021-02-21T12:51:08Z</time>
      </trkpt>
      <trkpt lat="46.68826" lon="5.94881">
        <ele>530.7</ele>
        <time>2021-02-21T12:51:13Z</time>
      </trkpt>
      <trkpt lat="46.68826" lon="5.94888">
        <ele>530.2</ele>
        <time>2021-02-21T12:51:18Z</time>
      </trkpt>
      <trkpt lat="46.68829" lon="5.94895">
        <ele>530.2</ele>
        <time>2021-02-21T12:51:22Z</time>
      </trkpt>
      <trkpt lat="46.68828" lon="5.94902">
        <ele>530</ele>
        <time>2021-02-21T12:51:27Z</time>
      </trkpt>
      <trkpt lat="46.68827" lon="5.94909">
        <ele>529.4</ele>
        <time>2021-02-21T12:51:33Z</time>
      </trkpt>
      <trkpt lat="46.68828" lon="5.94916">
        <ele>529.3</ele>
        <time>2021-02-21T12:51:39Z</time>
      </trkpt>
      <trkpt lat="46.68828" lon="5.94922">
        <ele>529.1</ele>
        <time>2021-02-21T12:51:44Z</time>
      </trkpt>
      <trkpt lat="46.68826" lon="5.9493">
        <ele>528.8</ele>
        <time>2021-02-21T12:51:48Z</time>
      </trkpt>
      <trkpt lat="46.68825" lon="5.94937">
        <ele>528.5</ele>
        <time>2021-02-21T12:51:53Z</time>
      </trkpt>
      <trkpt lat="46.68825" lon="5.94944">
        <ele>528.3</ele>
        <time>2021-02-21T12:51:58Z</time>
      </trkpt>
      <trkpt lat="46.68825" lon="5.94952">
        <ele>528.1</ele>
        <time>2021-02-21T12:52:03Z</time>
      </trkpt>
      <trkpt lat="46.68825" lon="5.94961">
        <ele>528</ele>
        <time>2021-02-21T12:52:07Z</time>
      </trkpt>
      <trkpt lat="46.68825" lon="5.94968">
        <ele>527.9</ele>
        <time>2021-02-21T12:52:11Z</time>
      </trkpt>
      <trkpt lat="46.68826" lon="5.94975">
        <ele>528.2</ele>
        <time>2021-02-21T12:52:17Z</time>
      </trkpt>
      <trkpt lat="46.68825" lon="5.94983">
        <ele>528.5</ele>
        <time>2021-02-21T12:52:24Z</time>
      </trkpt>
      <trkpt lat="46.68826" lon="5.94991">
        <ele>528.4</ele>
        <time>2021-02-21T12:52:29Z</time>
      </trkpt>
      <trkpt lat="46.68825" lon="5.94998">
        <ele>528.2</ele>
        <time>2021-02-21T12:52:35Z</time>
      </trkpt>
      <trkpt lat="46.68825" lon="5.95006">
        <ele>528.1</ele>
        <time>2021-02-21T12:52:40Z</time>
      </trkpt>
      <trkpt lat="46.68824" lon="5.95013">
        <ele>528</ele>
        <time>2021-02-21T12:52:45Z</time>
      </trkpt>
      <trkpt lat="46.68823" lon="5.9502">
        <ele>527.8</ele>
        <time>2021-02-21T12:52:50Z</time>
      </trkpt>
      <trkpt lat="46.68825" lon="5.95027">
        <ele>527.8</ele>
        <time>2021-02-21T12:52:54Z</time>
      </trkpt>
      <trkpt lat="46.68825" lon="5.95034">
        <ele>527.5</ele>
        <time>2021-02-21T12:52:59Z</time>
      </trkpt>
      <trkpt lat="46.68825" lon="5.95042">
        <ele>526.8</ele>
        <time>2021-02-21T12:53:04Z</time>
      </trkpt>
      <trkpt lat="46.68824" lon="5.95049">
        <ele>526.2</ele>
        <time>2021-02-21T12:53:09Z</time>
      </trkpt>
      <trkpt lat="46.6882" lon="5.95054">
        <ele>525.5</ele>
        <time>2021-02-21T12:53:14Z</time>
      </trkpt>
      <trkpt lat="46.68815" lon="5.95058">
        <ele>524.3</ele>
        <time>2021-02-21T12:53:19Z</time>
      </trkpt>
      <trkpt lat="46.68811" lon="5.95061">
        <ele>523.4</ele>
        <time>2021-02-21T12:53:23Z</time>
      </trkpt>
      <trkpt lat="46.68807" lon="5.95067">
        <ele>522.7</ele>
        <time>2021-02-21T12:53:27Z</time>
      </trkpt>
      <trkpt lat="46.68804" lon="5.95071">
        <ele>521.6</ele>
        <time>2021-02-21T12:53:33Z</time>
      </trkpt>
      <trkpt lat="46.68799" lon="5.95074">
        <ele>520.6</ele>
        <time>2021-02-21T12:53:39Z</time>
      </trkpt>
      <trkpt lat="46.68796" lon="5.9508">
        <ele>519.8</ele>
        <time>2021-02-21T12:53:44Z</time>
      </trkpt>
      <trkpt lat="46.68793" lon="5.95087">
        <ele>518.9</ele>
        <time>2021-02-21T12:53:49Z</time>
      </trkpt>
      <trkpt lat="46.6879" lon="5.95093">
        <ele>518.4</ele>
        <time>2021-02-21T12:53:53Z</time>
      </trkpt>
      <trkpt lat="46.68787" lon="5.951">
        <ele>518.1</ele>
        <time>2021-02-21T12:53:58Z</time>
      </trkpt>
      <trkpt lat="46.68784" lon="5.95105">
        <ele>517.7</ele>
        <time>2021-02-21T12:54:03Z</time>
      </trkpt>
      <trkpt lat="46.68779" lon="5.95106">
        <ele>517.4</ele>
        <time>2021-02-21T12:54:08Z</time>
      </trkpt>
      <trkpt lat="46.68774" lon="5.9511">
        <ele>517</ele>
        <time>2021-02-21T12:54:13Z</time>
      </trkpt>
      <trkpt lat="46.68769" lon="5.95113">
        <ele>516.4</ele>
        <time>2021-02-21T12:54:17Z</time>
      </trkpt>
      <trkpt lat="46.68766" lon="5.95118">
        <ele>515.2</ele>
        <time>2021-02-21T12:54:22Z</time>
      </trkpt>
      <trkpt lat="46.68763" lon="5.95123">
        <ele>514.3</ele>
        <time>2021-02-21T12:54:26Z</time>
      </trkpt>
      <trkpt lat="46.68761" lon="5.9513">
        <ele>513</ele>
        <time>2021-02-21T12:54:31Z</time>
      </trkpt>
      <trkpt lat="46.6876" lon="5.95136">
        <ele>511.9</ele>
        <time>2021-02-21T12:54:36Z</time>
      </trkpt>
      <trkpt lat="46.68759" lon="5.95144">
        <ele>511.3</ele>
        <time>2021-02-21T12:54:41Z</time>
      </trkpt>
      <trkpt lat="46.68759" lon="5.95153">
        <ele>511.4</ele>
        <time>2021-02-21T12:54:44Z</time>
      </trkpt>
      <trkpt lat="46.68758" lon="5.9516">
        <ele>511.4</ele>
        <time>2021-02-21T12:54:47Z</time>
      </trkpt>
      <trkpt lat="46.68757" lon="5.95168">
        <ele>512.3</ele>
        <time>2021-02-21T12:54:50Z</time>
      </trkpt>
      <trkpt lat="46.68759" lon="5.95175">
        <ele>513.7</ele>
        <time>2021-02-21T12:54:52Z</time>
      </trkpt>
      <trkpt lat="46.6876" lon="5.95183">
        <ele>515.7</ele>
        <time>2021-02-21T12:54:55Z</time>
      </trkpt>
      <trkpt lat="46.68759" lon="5.95191">
        <ele>517.7</ele>
        <time>2021-02-21T12:54:59Z</time>
      </trkpt>
      <trkpt lat="46.68757" lon="5.95198">
        <ele>519.5</ele>
        <time>2021-02-21T12:55:05Z</time>
      </trkpt>
      <trkpt lat="46.68754" lon="5.95204">
        <ele>520.5</ele>
        <time>2021-02-21T12:55:09Z</time>
      </trkpt>
      <trkpt lat="46.6875" lon="5.95208">
        <ele>521.4</ele>
        <time>2021-02-21T12:55:14Z</time>
      </trkpt>
      <trkpt lat="46.68745" lon="5.95213">
        <ele>522</ele>
        <time>2021-02-21T12:55:18Z</time>
      </trkpt>
      <trkpt lat="46.6874" lon="5.95217">
        <ele>522.5</ele>
        <time>2021-02-21T12:55:22Z</time>
      </trkpt>
      <trkpt lat="46.68736" lon="5.95223">
        <ele>522.8</ele>
        <time>2021-02-21T12:55:27Z</time>
      </trkpt>
      <trkpt lat="46.68733" lon="5.95228">
        <ele>522.8</ele>
        <time>2021-02-21T12:55:32Z</time>
      </trkpt>
      <trkpt lat="46.68729" lon="5.95234">
        <ele>522.4</ele>
        <time>2021-02-21T12:55:37Z</time>
      </trkpt>
      <trkpt lat="46.68727" lon="5.9524">
        <ele>521.9</ele>
        <time>2021-02-21T12:55:42Z</time>
      </trkpt>
      <trkpt lat="46.68723" lon="5.95246">
        <ele>521.7</ele>
        <time>2021-02-21T12:55:47Z</time>
      </trkpt>
      <trkpt lat="46.6872" lon="5.95251">
        <ele>521.3</ele>
        <time>2021-02-21T12:55:50Z</time>
      </trkpt>
      <trkpt lat="46.68717" lon="5.95257">
        <ele>520.9</ele>
        <time>2021-02-21T12:55:53Z</time>
      </trkpt>
      <trkpt lat="46.68714" lon="5.95263">
        <ele>520.5</ele>
        <time>2021-02-21T12:55:57Z</time>
      </trkpt>
      <trkpt lat="46.68711" lon="5.95269">
        <ele>520.5</ele>
        <time>2021-02-21T12:56:02Z</time>
      </trkpt>
      <trkpt lat="46.68707" lon="5.95274">
        <ele>521.3</ele>
        <time>2021-02-21T12:56:08Z</time>
      </trkpt>
      <trkpt lat="46.68703" lon="5.95279">
        <ele>522.6</ele>
        <time>2021-02-21T12:56:14Z</time>
      </trkpt>
      <trkpt lat="46.68699" lon="5.95284">
        <ele>524</ele>
        <time>2021-02-21T12:56:21Z</time>
      </trkpt>
      <trkpt lat="46.68696" lon="5.95289">
        <ele>524.8</ele>
        <time>2021-02-21T12:56:25Z</time>
      </trkpt>
      <trkpt lat="46.68691" lon="5.95293">
        <ele>525.6</ele>
        <time>2021-02-21T12:56:30Z</time>
      </trkpt>
      <trkpt lat="46.68687" lon="5.95295">
        <ele>525.5</ele>
        <time>2021-02-21T12:56:37Z</time>
      </trkpt>
      <trkpt lat="46.68681" lon="5.95295">
        <ele>524</ele>
        <time>2021-02-21T12:56:42Z</time>
      </trkpt>
      <trkpt lat="46.68677" lon="5.95294">
        <ele>521.3</ele>
        <time>2021-02-21T12:56:48Z</time>
      </trkpt>
      <trkpt lat="46.68672" lon="5.95294">
        <ele>518.8</ele>
        <time>2021-02-21T12:56:52Z</time>
      </trkpt>
      <trkpt lat="46.68667" lon="5.95294">
        <ele>516.4</ele>
        <time>2021-02-21T12:56:55Z</time>
      </trkpt>
      <trkpt lat="46.68662" lon="5.95293">
        <ele>512.6</ele>
        <time>2021-02-21T12:57:00Z</time>
      </trkpt>
      <trkpt lat="46.68657" lon="5.95292">
        <ele>508.8</ele>
        <time>2021-02-21T12:57:05Z</time>
      </trkpt>
      <trkpt lat="46.68653" lon="5.95292">
        <ele>505.1</ele>
        <time>2021-02-21T12:57:10Z</time>
      </trkpt>
      <trkpt lat="46.68648" lon="5.95293">
        <ele>500.9</ele>
        <time>2021-02-21T12:57:16Z</time>
      </trkpt>
      <trkpt lat="46.68643" lon="5.95295">
        <ele>497.6</ele>
        <time>2021-02-21T12:57:21Z</time>
      </trkpt>
      <trkpt lat="46.68639" lon="5.95295">
        <ele>493.6</ele>
        <time>2021-02-21T12:57:27Z</time>
      </trkpt>
      <trkpt lat="46.68634" lon="5.95294">
        <ele>490.7</ele>
        <time>2021-02-21T12:57:32Z</time>
      </trkpt>
      <trkpt lat="46.68629" lon="5.95294">
        <ele>487.5</ele>
        <time>2021-02-21T12:57:38Z</time>
      </trkpt>
      <trkpt lat="46.68625" lon="5.95297">
        <ele>485.4</ele>
        <time>2021-02-21T12:57:42Z</time>
      </trkpt>
      <trkpt lat="46.68619" lon="5.953">
        <ele>482.8</ele>
        <time>2021-02-21T12:57:47Z</time>
      </trkpt>
      <trkpt lat="46.68615" lon="5.95304">
        <ele>481.1</ele>
        <time>2021-02-21T12:57:51Z</time>
      </trkpt>
      <trkpt lat="46.68612" lon="5.95309">
        <ele>479.8</ele>
        <time>2021-02-21T12:57:55Z</time>
      </trkpt>
      <trkpt lat="46.68607" lon="5.95312">
        <ele>478.7</ele>
        <time>2021-02-21T12:58:00Z</time>
      </trkpt>
      <trkpt lat="46.68604" lon="5.95316">
        <ele>477.8</ele>
        <time>2021-02-21T12:58:05Z</time>
      </trkpt>
      <trkpt lat="46.686" lon="5.95322">
        <ele>477.6</ele>
        <time>2021-02-21T12:58:10Z</time>
      </trkpt>
      <trkpt lat="46.68595" lon="5.95326">
        <ele>477.9</ele>
        <time>2021-02-21T12:58:16Z</time>
      </trkpt>
      <trkpt lat="46.68591" lon="5.95326">
        <ele>478.5</ele>
        <time>2021-02-21T12:58:21Z</time>
      </trkpt>
      <trkpt lat="46.68585" lon="5.95326">
        <ele>479.5</ele>
        <time>2021-02-21T12:58:27Z</time>
      </trkpt>
      <trkpt lat="46.68581" lon="5.95326">
        <ele>480</ele>
        <time>2021-02-21T12:58:31Z</time>
      </trkpt>
      <trkpt lat="46.68575" lon="5.95327">
        <ele>480.4</ele>
        <time>2021-02-21T12:58:35Z</time>
      </trkpt>
      <trkpt lat="46.68569" lon="5.95326">
        <ele>480.9</ele>
        <time>2021-02-21T12:58:39Z</time>
      </trkpt>
      <trkpt lat="46.68564" lon="5.95326">
        <ele>481.4</ele>
        <time>2021-02-21T12:58:43Z</time>
      </trkpt>
      <trkpt lat="46.68559" lon="5.95327">
        <ele>482</ele>
        <time>2021-02-21T12:58:47Z</time>
      </trkpt>
      <trkpt lat="46.68554" lon="5.95328">
        <ele>482.8</ele>
        <time>2021-02-21T12:58:51Z</time>
      </trkpt>
      <trkpt lat="46.68549" lon="5.9533">
        <ele>483.7</ele>
        <time>2021-02-21T12:58:55Z</time>
      </trkpt>
      <trkpt lat="46.68544" lon="5.95334">
        <ele>484.7</ele>
        <time>2021-02-21T12:58:59Z</time>
      </trkpt>
      <trkpt lat="46.6854" lon="5.95339">
        <ele>485.8</ele>
        <time>2021-02-21T12:59:04Z</time>
      </trkpt>
      <trkpt lat="46.68536" lon="5.95338">
        <ele>487.5</ele>
        <time>2021-02-21T12:59:12Z</time>
      </trkpt>
      <trkpt lat="46.68531" lon="5.95337">
        <ele>488.2</ele>
        <time>2021-02-21T12:59:16Z</time>
      </trkpt>
      <trkpt lat="46.68526" lon="5.95335">
        <ele>488.6</ele>
        <time>2021-02-21T12:59:20Z</time>
      </trkpt>
      <trkpt lat="46.68522" lon="5.95339">
        <ele>489</ele>
        <time>2021-02-21T12:59:25Z</time>
      </trkpt>
      <trkpt lat="46.68518" lon="5.95334">
        <ele>488.8</ele>
        <time>2021-02-21T12:59:30Z</time>
      </trkpt>
      <trkpt lat="46.68513" lon="5.95329">
        <ele>488.4</ele>
        <time>2021-02-21T12:59:34Z</time>
      </trkpt>
      <trkpt lat="46.68509" lon="5.95326">
        <ele>487.9</ele>
        <time>2021-02-21T12:59:38Z</time>
      </trkpt>
      <trkpt lat="46.68504" lon="5.95328">
        <ele>487.3</ele>
        <time>2021-02-21T12:59:42Z</time>
      </trkpt>
      <trkpt lat="46.68499" lon="5.9533">
        <ele>486.9</ele>
        <time>2021-02-21T12:59:46Z</time>
      </trkpt>
      <trkpt lat="46.68494" lon="5.95333">
        <ele>486.1</ele>
        <time>2021-02-21T12:59:51Z</time>
      </trkpt>
      <trkpt lat="46.6849" lon="5.95336">
        <ele>485.7</ele>
        <time>2021-02-21T12:59:56Z</time>
      </trkpt>
      <trkpt lat="46.68484" lon="5.95338">
        <ele>485.3</ele>
        <time>2021-02-21T13:00:01Z</time>
      </trkpt>
      <trkpt lat="46.6848" lon="5.95341">
        <ele>485.1</ele>
        <time>2021-02-21T13:00:05Z</time>
      </trkpt>
      <trkpt lat="46.68476" lon="5.95343">
        <ele>484.9</ele>
        <time>2021-02-21T13:00:09Z</time>
      </trkpt>
      <trkpt lat="46.68471" lon="5.95346">
        <ele>484.5</ele>
        <time>2021-02-21T13:00:13Z</time>
      </trkpt>
      <trkpt lat="46.68466" lon="5.95351">
        <ele>484.3</ele>
        <time>2021-02-21T13:00:16Z</time>
      </trkpt>
      <trkpt lat="46.68462" lon="5.95355">
        <ele>484.3</ele>
        <time>2021-02-21T13:00:20Z</time>
      </trkpt>
      <trkpt lat="46.68457" lon="5.95359">
        <ele>484.5</ele>
        <time>2021-02-21T13:00:25Z</time>
      </trkpt>
      <trkpt lat="46.68453" lon="5.95363">
        <ele>484.5</ele>
        <time>2021-02-21T13:00:29Z</time>
      </trkpt>
      <trkpt lat="46.68449" lon="5.95368">
        <ele>484.7</ele>
        <time>2021-02-21T13:00:33Z</time>
      </trkpt>
      <trkpt lat="46.68444" lon="5.95372">
        <ele>485</ele>
        <time>2021-02-21T13:00:38Z</time>
      </trkpt>
      <trkpt lat="46.6844" lon="5.95376">
        <ele>485</ele>
        <time>2021-02-21T13:00:42Z</time>
      </trkpt>
      <trkpt lat="46.68435" lon="5.95379">
        <ele>485.1</ele>
        <time>2021-02-21T13:00:46Z</time>
      </trkpt>
      <trkpt lat="46.6843" lon="5.95382">
        <ele>484.9</ele>
        <time>2021-02-21T13:00:51Z</time>
      </trkpt>
      <trkpt lat="46.68426" lon="5.95384">
        <ele>484.6</ele>
        <time>2021-02-21T13:00:56Z</time>
      </trkpt>
      <trkpt lat="46.68421" lon="5.95387">
        <ele>484.8</ele>
        <time>2021-02-21T13:01:01Z</time>
      </trkpt>
      <trkpt lat="46.68416" lon="5.95389">
        <ele>485</ele>
        <time>2021-02-21T13:01:05Z</time>
      </trkpt>
      <trkpt lat="46.68411" lon="5.95392">
        <ele>484.9</ele>
        <time>2021-02-21T13:01:08Z</time>
      </trkpt>
      <trkpt lat="46.68406" lon="5.95395">
        <ele>484.6</ele>
        <time>2021-02-21T13:01:12Z</time>
      </trkpt>
      <trkpt lat="46.68401" lon="5.95397">
        <ele>484.3</ele>
        <time>2021-02-21T13:01:16Z</time>
      </trkpt>
      <trkpt lat="46.68396" lon="5.95399">
        <ele>483.7</ele>
        <time>2021-02-21T13:01:21Z</time>
      </trkpt>
      <trkpt lat="46.68391" lon="5.95401">
        <ele>483</ele>
        <time>2021-02-21T13:01:26Z</time>
      </trkpt>
      <trkpt lat="46.68386" lon="5.95404">
        <ele>482.8</ele>
        <time>2021-02-21T13:01:31Z</time>
      </trkpt>
      <trkpt lat="46.68382" lon="5.95408">
        <ele>482.8</ele>
        <time>2021-02-21T13:01:36Z</time>
      </trkpt>
      <trkpt lat="46.68377" lon="5.95411">
        <ele>482.7</ele>
        <time>2021-02-21T13:01:41Z</time>
      </trkpt>
      <trkpt lat="46.68372" lon="5.95412">
        <ele>482.5</ele>
        <time>2021-02-21T13:01:44Z</time>
      </trkpt>
      <trkpt lat="46.68367" lon="5.95413">
        <ele>481.9</ele>
        <time>2021-02-21T13:01:48Z</time>
      </trkpt>
      <trkpt lat="46.68362" lon="5.95415">
        <ele>480.6</ele>
        <time>2021-02-21T13:01:54Z</time>
      </trkpt>
      <trkpt lat="46.68357" lon="5.95418">
        <ele>478.3</ele>
        <time>2021-02-21T13:02:00Z</time>
      </trkpt>
      <trkpt lat="46.68353" lon="5.95421">
        <ele>475.3</ele>
        <time>2021-02-21T13:02:07Z</time>
      </trkpt>
      <trkpt lat="46.68348" lon="5.95424">
        <ele>473.4</ele>
        <time>2021-02-21T13:02:13Z</time>
      </trkpt>
      <trkpt lat="46.68343" lon="5.95427">
        <ele>472</ele>
        <time>2021-02-21T13:02:18Z</time>
      </trkpt>
      <trkpt lat="46.68339" lon="5.95429">
        <ele>471</ele>
        <time>2021-02-21T13:02:22Z</time>
      </trkpt>
      <trkpt lat="46.68335" lon="5.95434">
        <ele>470.3</ele>
        <time>2021-02-21T13:02:27Z</time>
      </trkpt>
      <trkpt lat="46.6833" lon="5.9544">
        <ele>470.8</ele>
        <time>2021-02-21T13:02:32Z</time>
      </trkpt>
      <trkpt lat="46.68325" lon="5.95443">
        <ele>471.9</ele>
        <time>2021-02-21T13:02:36Z</time>
      </trkpt>
      <trkpt lat="46.6832" lon="5.95449">
        <ele>472.7</ele>
        <time>2021-02-21T13:02:39Z</time>
      </trkpt>
      <trkpt lat="46.68316" lon="5.95454">
        <ele>474.1</ele>
        <time>2021-02-21T13:02:43Z</time>
      </trkpt>
      <trkpt lat="46.68312" lon="5.95459">
        <ele>475.6</ele>
        <time>2021-02-21T13:02:46Z</time>
      </trkpt>
      <trkpt lat="46.68309" lon="5.95463">
        <ele>477.2</ele>
        <time>2021-02-21T13:02:49Z</time>
      </trkpt>
      <trkpt lat="46.68304" lon="5.95469">
        <ele>479.3</ele>
        <time>2021-02-21T13:02:53Z</time>
      </trkpt>
      <trkpt lat="46.683" lon="5.95473">
        <ele>481.3</ele>
        <time>2021-02-21T13:02:57Z</time>
      </trkpt>
      <trkpt lat="46.68297" lon="5.95478">
        <ele>483</ele>
        <time>2021-02-21T13:03:01Z</time>
      </trkpt>
      <trkpt lat="46.68292" lon="5.95482">
        <ele>484.2</ele>
        <time>2021-02-21T13:03:06Z</time>
      </trkpt>
      <trkpt lat="46.68287" lon="5.95485">
        <ele>484.9</ele>
        <time>2021-02-21T13:03:11Z</time>
      </trkpt>
      <trkpt lat="46.68284" lon="5.95491">
        <ele>485.6</ele>
        <time>2021-02-21T13:03:15Z</time>
      </trkpt>
      <trkpt lat="46.6828" lon="5.95495">
        <ele>486.6</ele>
        <time>2021-02-21T13:03:19Z</time>
      </trkpt>
      <trkpt lat="46.68275" lon="5.95501">
        <ele>487.8</ele>
        <time>2021-02-21T13:03:23Z</time>
      </trkpt>
      <trkpt lat="46.68272" lon="5.95507">
        <ele>489.4</ele>
        <time>2021-02-21T13:03:26Z</time>
      </trkpt>
      <trkpt lat="46.68269" lon="5.95514">
        <ele>490.8</ele>
        <time>2021-02-21T13:03:30Z</time>
      </trkpt>
      <trkpt lat="46.68266" lon="5.95519">
        <ele>491.7</ele>
        <time>2021-02-21T13:03:33Z</time>
      </trkpt>
      <trkpt lat="46.68263" lon="5.95525">
        <ele>492.3</ele>
        <time>2021-02-21T13:03:38Z</time>
      </trkpt>
      <trkpt lat="46.68261" lon="5.95533">
        <ele>494.3</ele>
        <time>2021-02-21T13:03:44Z</time>
      </trkpt>
      <trkpt lat="46.6826" lon="5.9554">
        <ele>496.3</ele>
        <time>2021-02-21T13:03:48Z</time>
      </trkpt>
      <trkpt lat="46.68258" lon="5.95547">
        <ele>497.6</ele>
        <time>2021-02-21T13:03:51Z</time>
      </trkpt>
      <trkpt lat="46.68256" lon="5.95555">
        <ele>499.1</ele>
        <time>2021-02-21T13:03:54Z</time>
      </trkpt>
      <trkpt lat="46.68253" lon="5.95562">
        <ele>500.4</ele>
        <time>2021-02-21T13:03:57Z</time>
      </trkpt>
      <trkpt lat="46.68251" lon="5.95568">
        <ele>501.3</ele>
        <time>2021-02-21T13:04:00Z</time>
      </trkpt>
      <trkpt lat="46.68248" lon="5.95575">
        <ele>502.9</ele>
        <time>2021-02-21T13:04:03Z</time>
      </trkpt>
      <trkpt lat="46.68244" lon="5.9558">
        <ele>508.3</ele>
        <time>2021-02-21T13:04:09Z</time>
      </trkpt>
      <trkpt lat="46.68243" lon="5.95587">
        <ele>514.8</ele>
        <time>2021-02-21T13:04:16Z</time>
      </trkpt>
      <trkpt lat="46.68242" lon="5.95594">
        <ele>522.5</ele>
        <time>2021-02-21T13:04:32Z</time>
      </trkpt>
      <trkpt lat="46.68239" lon="5.95599">
        <ele>524.9</ele>
        <time>2021-02-21T13:04:39Z</time>
      </trkpt>
      <trkpt lat="46.68235" lon="5.956">
        <ele>532.3</ele>
        <time>2021-02-21T13:04:54Z</time>
      </trkpt>
      <trkpt lat="46.68231" lon="5.95595">
        <ele>539.1</ele>
        <time>2021-02-21T13:05:07Z</time>
      </trkpt>
      <trkpt lat="46.68227" lon="5.95592">
        <ele>544.8</ele>
        <time>2021-02-21T13:05:16Z</time>
      </trkpt>
      <trkpt lat="46.68222" lon="5.95589">
        <ele>547</ele>
        <time>2021-02-21T13:05:21Z</time>
      </trkpt>
      <trkpt lat="46.68218" lon="5.95586">
        <ele>550.6</ele>
        <time>2021-02-21T13:05:55Z</time>
      </trkpt>
      <trkpt lat="46.68213" lon="5.95589">
        <ele>551.3</ele>
        <time>2021-02-21T13:06:01Z</time>
      </trkpt>
      <trkpt lat="46.6821" lon="5.95593">
        <ele>552.3</ele>
        <time>2021-02-21T13:06:08Z</time>
      </trkpt>
      <trkpt lat="46.6821" lon="5.956">
        <ele>554.1</ele>
        <time>2021-02-21T13:06:15Z</time>
      </trkpt>
      <trkpt lat="46.68213" lon="5.95607">
        <ele>556.8</ele>
        <time>2021-02-21T13:06:35Z</time>
      </trkpt>
      <trkpt lat="46.68215" lon="5.95612">
        <ele>558.8</ele>
        <time>2021-02-21T13:06:39Z</time>
      </trkpt>
      <trkpt lat="46.68212" lon="5.95607">
        <ele>561.9</ele>
        <time>2021-02-21T13:06:50Z</time>
      </trkpt>
      <trkpt lat="46.6821" lon="5.956">
        <ele>564.1</ele>
        <time>2021-02-21T13:06:59Z</time>
      </trkpt>
      <trkpt lat="46.68207" lon="5.95597">
        <ele>565.8</ele>
        <time>2021-02-21T13:07:12Z</time>
      </trkpt>
      <trkpt lat="46.68202" lon="5.95595">
        <ele>565.8</ele>
        <time>2021-02-21T13:07:17Z</time>
      </trkpt>
      <trkpt lat="46.68197" lon="5.95596">
        <ele>565.4</ele>
        <time>2021-02-21T13:07:22Z</time>
      </trkpt>
      <trkpt lat="46.68194" lon="5.95601">
        <ele>564.6</ele>
        <time>2021-02-21T13:07:29Z</time>
      </trkpt>
      <trkpt lat="46.68192" lon="5.95607">
        <ele>563.8</ele>
        <time>2021-02-21T13:07:38Z</time>
      </trkpt>
      <trkpt lat="46.68187" lon="5.95609">
        <ele>564</ele>
        <time>2021-02-21T13:07:46Z</time>
      </trkpt>
      <trkpt lat="46.68183" lon="5.95613">
        <ele>564.7</ele>
        <time>2021-02-21T13:07:54Z</time>
      </trkpt>
      <trkpt lat="46.68179" lon="5.95617">
        <ele>564.9</ele>
        <time>2021-02-21T13:08:00Z</time>
      </trkpt>
      <trkpt lat="46.68175" lon="5.95619">
        <ele>565.1</ele>
        <time>2021-02-21T13:08:07Z</time>
      </trkpt>
      <trkpt lat="46.6817" lon="5.95622">
        <ele>565.1</ele>
        <time>2021-02-21T13:08:16Z</time>
      </trkpt>
      <trkpt lat="46.68166" lon="5.95626">
        <ele>565.5</ele>
        <time>2021-02-21T13:08:24Z</time>
      </trkpt>
      <trkpt lat="46.68161" lon="5.9563">
        <ele>565.7</ele>
        <time>2021-02-21T13:08:29Z</time>
      </trkpt>
      <trkpt lat="46.68156" lon="5.95633">
        <ele>565.7</ele>
        <time>2021-02-21T13:08:34Z</time>
      </trkpt>
      <trkpt lat="46.68151" lon="5.95635">
        <ele>565.9</ele>
        <time>2021-02-21T13:08:39Z</time>
      </trkpt>
      <trkpt lat="46.68147" lon="5.95638">
        <ele>566.3</ele>
        <time>2021-02-21T13:08:45Z</time>
      </trkpt>
      <trkpt lat="46.68142" lon="5.9564">
        <ele>566.6</ele>
        <time>2021-02-21T13:08:52Z</time>
      </trkpt>
      <trkpt lat="46.68138" lon="5.95643">
        <ele>566.6</ele>
        <time>2021-02-21T13:08:59Z</time>
      </trkpt>
      <trkpt lat="46.68133" lon="5.95645">
        <ele>566.8</ele>
        <time>2021-02-21T13:09:05Z</time>
      </trkpt>
      <trkpt lat="46.68129" lon="5.95648">
        <ele>567.2</ele>
        <time>2021-02-21T13:09:13Z</time>
      </trkpt>
      <trkpt lat="46.68124" lon="5.95646">
        <ele>567.5</ele>
        <time>2021-02-21T13:09:23Z</time>
      </trkpt>
      <trkpt lat="46.6812" lon="5.95649">
        <ele>567.5</ele>
        <time>2021-02-21T13:09:32Z</time>
      </trkpt>
      <trkpt lat="46.68114" lon="5.95649">
        <ele>568.1</ele>
        <time>2021-02-21T13:09:57Z</time>
      </trkpt>
      <trkpt lat="46.68109" lon="5.9565">
        <ele>568.5</ele>
        <time>2021-02-21T13:10:03Z</time>
      </trkpt>
      <trkpt lat="46.68104" lon="5.9565">
        <ele>568.5</ele>
        <time>2021-02-21T13:10:08Z</time>
      </trkpt>
      <trkpt lat="46.681" lon="5.95652">
        <ele>568.4</ele>
        <time>2021-02-21T13:10:15Z</time>
      </trkpt>
      <trkpt lat="46.68095" lon="5.95653">
        <ele>568.4</ele>
        <time>2021-02-21T13:10:23Z</time>
      </trkpt>
      <trkpt lat="46.6809" lon="5.95657">
        <ele>568.5</ele>
        <time>2021-02-21T13:10:33Z</time>
      </trkpt>
      <trkpt lat="46.68086" lon="5.9566">
        <ele>567.8</ele>
        <time>2021-02-21T13:10:39Z</time>
      </trkpt>
      <trkpt lat="46.68082" lon="5.95664">
        <ele>566.5</ele>
        <time>2021-02-21T13:10:45Z</time>
      </trkpt>
      <trkpt lat="46.68077" lon="5.95666">
        <ele>565.5</ele>
        <time>2021-02-21T13:10:50Z</time>
      </trkpt>
      <trkpt lat="46.68073" lon="5.9567">
        <ele>564.5</ele>
        <time>2021-02-21T13:10:55Z</time>
      </trkpt>
      <trkpt lat="46.68069" lon="5.95673">
        <ele>563.3</ele>
        <time>2021-02-21T13:11:02Z</time>
      </trkpt>
      <trkpt lat="46.68066" lon="5.95679">
        <ele>562</ele>
        <time>2021-02-21T13:11:09Z</time>
      </trkpt>
      <trkpt lat="46.68062" lon="5.95683">
        <ele>560.7</ele>
        <time>2021-02-21T13:11:16Z</time>
      </trkpt>
      <trkpt lat="46.68061" lon="5.95696">
        <ele>563.2</ele>
        <time>2021-02-21T13:11:20Z</time>
      </trkpt>
      <trkpt lat="46.6806" lon="5.95705">
        <ele>564.4</ele>
        <time>2021-02-21T13:11:22Z</time>
      </trkpt>
      <trkpt lat="46.68058" lon="5.95712">
        <ele>566.8</ele>
        <time>2021-02-21T13:11:26Z</time>
      </trkpt>
      <trkpt lat="46.68053" lon="5.95714">
        <ele>568.2</ele>
        <time>2021-02-21T13:11:32Z</time>
      </trkpt>
      <trkpt lat="46.68049" lon="5.95717">
        <ele>568.9</ele>
        <time>2021-02-21T13:11:39Z</time>
      </trkpt>
      <trkpt lat="46.68044" lon="5.95719">
        <ele>569.9</ele>
        <time>2021-02-21T13:11:46Z</time>
      </trkpt>
      <trkpt lat="46.68041" lon="5.95724">
        <ele>570.9</ele>
        <time>2021-02-21T13:11:54Z</time>
      </trkpt>
      <trkpt lat="46.68037" lon="5.95728">
        <ele>571.6</ele>
        <time>2021-02-21T13:12:02Z</time>
      </trkpt>
      <trkpt lat="46.68032" lon="5.9573">
        <ele>572.1</ele>
        <time>2021-02-21T13:12:09Z</time>
      </trkpt>
      <trkpt lat="46.68027" lon="5.95733">
        <ele>572.4</ele>
        <time>2021-02-21T13:12:14Z</time>
      </trkpt>
      <trkpt lat="46.68023" lon="5.95737">
        <ele>573</ele>
        <time>2021-02-21T13:12:20Z</time>
      </trkpt>
      <trkpt lat="46.6802" lon="5.95742">
        <ele>573.8</ele>
        <time>2021-02-21T13:12:26Z</time>
      </trkpt>
      <trkpt lat="46.68017" lon="5.95747">
        <ele>574.5</ele>
        <time>2021-02-21T13:12:32Z</time>
      </trkpt>
      <trkpt lat="46.68013" lon="5.95751">
        <ele>575</ele>
        <time>2021-02-21T13:12:38Z</time>
      </trkpt>
      <trkpt lat="46.6801" lon="5.95757">
        <ele>575.3</ele>
        <time>2021-02-21T13:12:45Z</time>
      </trkpt>
      <trkpt lat="46.6801" lon="5.95764">
        <ele>575.5</ele>
        <time>2021-02-21T13:12:50Z</time>
      </trkpt>
      <trkpt lat="46.68007" lon="5.9577">
        <ele>575.8</ele>
        <time>2021-02-21T13:12:56Z</time>
      </trkpt>
      <trkpt lat="46.68004" lon="5.95776">
        <ele>576.2</ele>
        <time>2021-02-21T13:13:03Z</time>
      </trkpt>
      <trkpt lat="46.68003" lon="5.95783">
        <ele>576.3</ele>
        <time>2021-02-21T13:13:08Z</time>
      </trkpt>
      <trkpt lat="46.68" lon="5.95789">
        <ele>576.2</ele>
        <time>2021-02-21T13:13:12Z</time>
      </trkpt>
      <trkpt lat="46.67998" lon="5.95796">
        <ele>575.6</ele>
        <time>2021-02-21T13:13:17Z</time>
      </trkpt>
      <trkpt lat="46.67996" lon="5.95802">
        <ele>575.2</ele>
        <time>2021-02-21T13:13:25Z</time>
      </trkpt>
      <trkpt lat="46.67992" lon="5.95807">
        <ele>574.9</ele>
        <time>2021-02-21T13:13:32Z</time>
      </trkpt>
      <trkpt lat="46.67989" lon="5.95813">
        <ele>574.6</ele>
        <time>2021-02-21T13:13:38Z</time>
      </trkpt>
      <trkpt lat="46.67987" lon="5.95819">
        <ele>574.3</ele>
        <time>2021-02-21T13:13:44Z</time>
      </trkpt>
      <trkpt lat="46.67985" lon="5.95826">
        <ele>574.3</ele>
        <time>2021-02-21T13:13:49Z</time>
      </trkpt>
      <trkpt lat="46.67984" lon="5.95834">
        <ele>574.3</ele>
        <time>2021-02-21T13:13:54Z</time>
      </trkpt>
      <trkpt lat="46.67982" lon="5.9584">
        <ele>574.3</ele>
        <time>2021-02-21T13:13:58Z</time>
      </trkpt>
      <trkpt lat="46.6798" lon="5.95846">
        <ele>574.4</ele>
        <time>2021-02-21T13:14:02Z</time>
      </trkpt>
      <trkpt lat="46.67978" lon="5.95853">
        <ele>574.7</ele>
        <time>2021-02-21T13:14:08Z</time>
      </trkpt>
      <trkpt lat="46.67976" lon="5.9586">
        <ele>575.2</ele>
        <time>2021-02-21T13:14:14Z</time>
      </trkpt>
      <trkpt lat="46.67974" lon="5.95866">
        <ele>575.8</ele>
        <time>2021-02-21T13:14:19Z</time>
      </trkpt>
      <trkpt lat="46.67974" lon="5.95873">
        <ele>576.3</ele>
        <time>2021-02-21T13:14:32Z</time>
      </trkpt>
      <trkpt lat="46.67973" lon="5.95879">
        <ele>576.7</ele>
        <time>2021-02-21T13:14:40Z</time>
      </trkpt>
      <trkpt lat="46.67971" lon="5.95886">
        <ele>576.9</ele>
        <time>2021-02-21T13:14:46Z</time>
      </trkpt>
      <trkpt lat="46.67971" lon="5.95893">
        <ele>577.2</ele>
        <time>2021-02-21T13:14:50Z</time>
      </trkpt>
      <trkpt lat="46.6797" lon="5.95901">
        <ele>577.7</ele>
        <time>2021-02-21T13:14:56Z</time>
      </trkpt>
      <trkpt lat="46.67967" lon="5.95908">
        <ele>578</ele>
        <time>2021-02-21T13:15:00Z</time>
      </trkpt>
      <trkpt lat="46.67964" lon="5.95914">
        <ele>578.1</ele>
        <time>2021-02-21T13:15:04Z</time>
      </trkpt>
      <trkpt lat="46.67962" lon="5.9592">
        <ele>578.4</ele>
        <time>2021-02-21T13:15:08Z</time>
      </trkpt>
      <trkpt lat="46.67958" lon="5.95924">
        <ele>578.8</ele>
        <time>2021-02-21T13:15:13Z</time>
      </trkpt>
      <trkpt lat="46.67954" lon="5.95928">
        <ele>579.1</ele>
        <time>2021-02-21T13:15:18Z</time>
      </trkpt>
      <trkpt lat="46.6795" lon="5.95932">
        <ele>578.3</ele>
        <time>2021-02-21T13:15:28Z</time>
      </trkpt>
      <trkpt lat="46.67947" lon="5.95937">
        <ele>578.1</ele>
        <time>2021-02-21T13:15:37Z</time>
      </trkpt>
      <trkpt lat="46.67945" lon="5.95946">
        <ele>582.2</ele>
        <time>2021-02-21T13:16:32Z</time>
      </trkpt>
      <trkpt lat="46.67943" lon="5.95952">
        <ele>584.5</ele>
        <time>2021-02-21T13:16:36Z</time>
      </trkpt>
      <trkpt lat="46.67949" lon="5.95951">
        <ele>587.3</ele>
        <time>2021-02-21T13:16:45Z</time>
      </trkpt>
      <trkpt lat="46.67954" lon="5.95949">
        <ele>588</ele>
        <time>2021-02-21T13:16:48Z</time>
      </trkpt>
      <trkpt lat="46.67959" lon="5.95946">
        <ele>588.6</ele>
        <time>2021-02-21T13:16:52Z</time>
      </trkpt>
      <trkpt lat="46.67954" lon="5.95945">
        <ele>592.5</ele>
        <time>2021-02-21T13:16:58Z</time>
      </trkpt>
      <trkpt lat="46.6795" lon="5.95943">
        <ele>597.7</ele>
        <time>2021-02-21T13:17:04Z</time>
      </trkpt>
      <trkpt lat="46.67947" lon="5.95937">
        <ele>601.1</ele>
        <time>2021-02-21T13:17:14Z</time>
      </trkpt>
      <trkpt lat="46.67945" lon="5.95932">
        <ele>601.2</ele>
        <time>2021-02-21T13:17:24Z</time>
      </trkpt>
      <trkpt lat="46.67941" lon="5.95927">
        <ele>600.7</ele>
        <time>2021-02-21T13:17:32Z</time>
      </trkpt>
      <trkpt lat="46.67939" lon="5.95921">
        <ele>600.6</ele>
        <time>2021-02-21T13:17:48Z</time>
      </trkpt>
      <trkpt lat="46.67937" lon="5.95915">
        <ele>599.8</ele>
        <time>2021-02-21T13:17:53Z</time>
      </trkpt>
      <trkpt lat="46.67933" lon="5.95912">
        <ele>599.8</ele>
        <time>2021-02-21T13:18:03Z</time>
      </trkpt>
      <trkpt lat="46.67926" lon="5.95911">
        <ele>602</ele>
        <time>2021-02-21T13:18:17Z</time>
      </trkpt>
      <trkpt lat="46.67921" lon="5.95913">
        <ele>602.5</ele>
        <time>2021-02-21T13:18:22Z</time>
      </trkpt>
      <trkpt lat="46.67917" lon="5.95916">
        <ele>603.2</ele>
        <time>2021-02-21T13:18:29Z</time>
      </trkpt>
      <trkpt lat="46.67918" lon="5.95924">
        <ele>604.1</ele>
        <time>2021-02-21T13:19:31Z</time>
      </trkpt>
      <trkpt lat="46.67918" lon="5.95931">
        <ele>604.5</ele>
        <time>2021-02-21T13:19:35Z</time>
      </trkpt>
      <trkpt lat="46.67913" lon="5.95929">
        <ele>605.5</ele>
        <time>2021-02-21T13:20:05Z</time>
      </trkpt>
      <trkpt lat="46.67911" lon="5.95935">
        <ele>609.3</ele>
        <time>2021-02-21T13:20:46Z</time>
      </trkpt>
      <trkpt lat="46.67907" lon="5.95939">
        <ele>609.8</ele>
        <time>2021-02-21T13:20:54Z</time>
      </trkpt>
      <trkpt lat="46.67903" lon="5.95943">
        <ele>609.9</ele>
        <time>2021-02-21T13:21:02Z</time>
      </trkpt>
      <trkpt lat="46.679" lon="5.95949">
        <ele>609.7</ele>
        <time>2021-02-21T13:21:08Z</time>
      </trkpt>
      <trkpt lat="46.67896" lon="5.95953">
        <ele>609.2</ele>
        <time>2021-02-21T13:21:15Z</time>
      </trkpt>
      <trkpt lat="46.67894" lon="5.95959">
        <ele>609.3</ele>
        <time>2021-02-21T13:21:25Z</time>
      </trkpt>
      <trkpt lat="46.67892" lon="5.95966">
        <ele>609.6</ele>
        <time>2021-02-21T13:21:37Z</time>
      </trkpt>
      <trkpt lat="46.67893" lon="5.95972">
        <ele>610</ele>
        <time>2021-02-21T13:21:46Z</time>
      </trkpt>
      <trkpt lat="46.67893" lon="5.9598">
        <ele>610.3</ele>
        <time>2021-02-21T13:21:54Z</time>
      </trkpt>
      <trkpt lat="46.67892" lon="5.95988">
        <ele>610.6</ele>
        <time>2021-02-21T13:22:02Z</time>
      </trkpt>
      <trkpt lat="46.67891" lon="5.95995">
        <ele>611</ele>
        <time>2021-02-21T13:22:07Z</time>
      </trkpt>
      <trkpt lat="46.67891" lon="5.96002">
        <ele>611.3</ele>
        <time>2021-02-21T13:22:14Z</time>
      </trkpt>
      <trkpt lat="46.67891" lon="5.96009">
        <ele>611.8</ele>
        <time>2021-02-21T13:22:21Z</time>
      </trkpt>
      <trkpt lat="46.67891" lon="5.96016">
        <ele>612.1</ele>
        <time>2021-02-21T13:22:27Z</time>
      </trkpt>
      <trkpt lat="46.67892" lon="5.96024">
        <ele>612.8</ele>
        <time>2021-02-21T13:22:34Z</time>
      </trkpt>
      <trkpt lat="46.67891" lon="5.96031">
        <ele>613.8</ele>
        <time>2021-02-21T13:22:39Z</time>
      </trkpt>
      <trkpt lat="46.67894" lon="5.96037">
        <ele>614.9</ele>
        <time>2021-02-21T13:22:45Z</time>
      </trkpt>
      <trkpt lat="46.679" lon="5.96045">
        <ele>616.8</ele>
        <time>2021-02-21T13:22:59Z</time>
      </trkpt>
      <trkpt lat="46.67905" lon="5.96046">
        <ele>618.3</ele>
        <time>2021-02-21T13:23:09Z</time>
      </trkpt>
      <trkpt lat="46.67911" lon="5.96047">
        <ele>618.3</ele>
        <time>2021-02-21T13:23:12Z</time>
      </trkpt>
      <trkpt lat="46.67916" lon="5.96048">
        <ele>618.4</ele>
        <time>2021-02-21T13:23:17Z</time>
      </trkpt>
      <trkpt lat="46.67912" lon="5.96047">
        <ele>618.8</ele>
        <time>2021-02-21T13:23:25Z</time>
      </trkpt>
      <trkpt lat="46.67903" lon="5.96045">
        <ele>619.3</ele>
        <time>2021-02-21T13:23:27Z</time>
      </trkpt>
      <trkpt lat="46.67897" lon="5.96043">
        <ele>619.7</ele>
        <time>2021-02-21T13:23:30Z</time>
      </trkpt>
      <trkpt lat="46.67891" lon="5.96044">
        <ele>621.9</ele>
        <time>2021-02-21T13:23:48Z</time>
      </trkpt>
      <trkpt lat="46.67886" lon="5.96046">
        <ele>623.2</ele>
        <time>2021-02-21T13:23:51Z</time>
      </trkpt>
      <trkpt lat="46.67883" lon="5.9605">
        <ele>625.2</ele>
        <time>2021-02-21T13:23:57Z</time>
      </trkpt>
      <trkpt lat="46.6788" lon="5.96057">
        <ele>626.5</ele>
        <time>2021-02-21T13:24:04Z</time>
      </trkpt>
      <trkpt lat="46.67882" lon="5.96063">
        <ele>627.3</ele>
        <time>2021-02-21T13:24:11Z</time>
      </trkpt>
      <trkpt lat="46.6788" lon="5.96069">
        <ele>626.6</ele>
        <time>2021-02-21T13:24:21Z</time>
      </trkpt>
      <trkpt lat="46.67881" lon="5.96077">
        <ele>626.4</ele>
        <time>2021-02-21T13:24:28Z</time>
      </trkpt>
      <trkpt lat="46.67882" lon="5.96083">
        <ele>626.8</ele>
        <time>2021-02-21T13:24:34Z</time>
      </trkpt>
      <trkpt lat="46.67881" lon="5.96089">
        <ele>627</ele>
        <time>2021-02-21T13:24:41Z</time>
      </trkpt>
      <trkpt lat="46.67884" lon="5.96095">
        <ele>626.8</ele>
        <time>2021-02-21T13:24:46Z</time>
      </trkpt>
      <trkpt lat="46.67885" lon="5.96101">
        <ele>626.4</ele>
        <time>2021-02-21T13:24:51Z</time>
      </trkpt>
      <trkpt lat="46.67884" lon="5.96107">
        <ele>626.2</ele>
        <time>2021-02-21T13:24:58Z</time>
      </trkpt>
      <trkpt lat="46.67883" lon="5.96114">
        <ele>626.8</ele>
        <time>2021-02-21T13:25:07Z</time>
      </trkpt>
      <trkpt lat="46.67883" lon="5.96121">
        <ele>627.5</ele>
        <time>2021-02-21T13:25:14Z</time>
      </trkpt>
      <trkpt lat="46.67885" lon="5.96128">
        <ele>627.9</ele>
        <time>2021-02-21T13:25:20Z</time>
      </trkpt>
      <trkpt lat="46.67886" lon="5.96136">
        <ele>627.9</ele>
        <time>2021-02-21T13:25:25Z</time>
      </trkpt>
      <trkpt lat="46.6789" lon="5.96142">
        <ele>627.7</ele>
        <time>2021-02-21T13:25:29Z</time>
      </trkpt>
      <trkpt lat="46.67892" lon="5.96148">
        <ele>627.7</ele>
        <time>2021-02-21T13:25:35Z</time>
      </trkpt>
      <trkpt lat="46.67894" lon="5.96154">
        <ele>627.1</ele>
        <time>2021-02-21T13:25:39Z</time>
      </trkpt>
      <trkpt lat="46.67896" lon="5.96161">
        <ele>626.4</ele>
        <time>2021-02-21T13:25:44Z</time>
      </trkpt>
      <trkpt lat="46.67897" lon="5.96168">
        <ele>626.4</ele>
        <time>2021-02-21T13:25:50Z</time>
      </trkpt>
      <trkpt lat="46.67895" lon="5.96174">
        <ele>627.5</ele>
        <time>2021-02-21T13:25:58Z</time>
      </trkpt>
      <trkpt lat="46.67893" lon="5.9618">
        <ele>628.7</ele>
        <time>2021-02-21T13:26:10Z</time>
      </trkpt>
      <trkpt lat="46.67896" lon="5.96187">
        <ele>629.5</ele>
        <time>2021-02-21T13:26:19Z</time>
      </trkpt>
      <trkpt lat="46.67898" lon="5.96193">
        <ele>630.9</ele>
        <time>2021-02-21T13:26:28Z</time>
      </trkpt>
      <trkpt lat="46.67901" lon="5.96199">
        <ele>631.6</ele>
        <time>2021-02-21T13:26:33Z</time>
      </trkpt>
      <trkpt lat="46.67901" lon="5.96205">
        <ele>632.3</ele>
        <time>2021-02-21T13:26:40Z</time>
      </trkpt>
      <trkpt lat="46.67902" lon="5.96212">
        <ele>635.4</ele>
        <time>2021-02-21T13:26:52Z</time>
      </trkpt>
      <trkpt lat="46.67905" lon="5.96217">
        <ele>640.1</ele>
        <time>2021-02-21T13:27:02Z</time>
      </trkpt>
      <trkpt lat="46.6791" lon="5.96218">
        <ele>645.8</ele>
        <time>2021-02-21T13:27:11Z</time>
      </trkpt>
      <trkpt lat="46.67904" lon="5.96217">
        <ele>648.9</ele>
        <time>2021-02-21T13:27:49Z</time>
      </trkpt>
      <trkpt lat="46.67899" lon="5.96218">
        <ele>649.3</ele>
        <time>2021-02-21T13:27:53Z</time>
      </trkpt>
      <trkpt lat="46.67907" lon="5.96221">
        <ele>651.5</ele>
        <time>2021-02-21T13:28:38Z</time>
      </trkpt>
      <trkpt lat="46.67907" lon="5.96228">
        <ele>651.2</ele>
        <time>2021-02-21T13:28:46Z</time>
      </trkpt>
      <trkpt lat="46.67901" lon="5.96233">
        <ele>652</ele>
        <time>2021-02-21T13:29:25Z</time>
      </trkpt>
      <trkpt lat="46.67903" lon="5.96239">
        <ele>653.8</ele>
        <time>2021-02-21T13:29:41Z</time>
      </trkpt>
      <trkpt lat="46.67906" lon="5.96245">
        <ele>654.4</ele>
        <time>2021-02-21T13:29:47Z</time>
      </trkpt>
      <trkpt lat="46.67909" lon="5.96251">
        <ele>655.1</ele>
        <time>2021-02-21T13:29:55Z</time>
      </trkpt>
      <trkpt lat="46.67913" lon="5.96254">
        <ele>655.8</ele>
        <time>2021-02-21T13:29:58Z</time>
      </trkpt>
      <trkpt lat="46.67917" lon="5.96258">
        <ele>656.6</ele>
        <time>2021-02-21T13:30:03Z</time>
      </trkpt>
      <trkpt lat="46.67913" lon="5.96263">
        <ele>657.3</ele>
        <time>2021-02-21T13:30:11Z</time>
      </trkpt>
      <trkpt lat="46.67916" lon="5.96268">
        <ele>657.7</ele>
        <time>2021-02-21T13:30:18Z</time>
      </trkpt>
      <trkpt lat="46.67919" lon="5.96274">
        <ele>658.3</ele>
        <time>2021-02-21T13:30:25Z</time>
      </trkpt>
      <trkpt lat="46.67922" lon="5.96281">
        <ele>659.3</ele>
        <time>2021-02-21T13:30:31Z</time>
      </trkpt>
      <trkpt lat="46.67925" lon="5.96286">
        <ele>660.2</ele>
        <time>2021-02-21T13:30:37Z</time>
      </trkpt>
      <trkpt lat="46.67927" lon="5.96293">
        <ele>661.7</ele>
        <time>2021-02-21T13:30:47Z</time>
      </trkpt>
      <trkpt lat="46.67931" lon="5.96298">
        <ele>663.1</ele>
        <time>2021-02-21T13:30:55Z</time>
      </trkpt>
      <trkpt lat="46.67933" lon="5.96304">
        <ele>664.3</ele>
        <time>2021-02-21T13:31:02Z</time>
      </trkpt>
      <trkpt lat="46.67935" lon="5.96311">
        <ele>665.8</ele>
        <time>2021-02-21T13:31:10Z</time>
      </trkpt>
      <trkpt lat="46.67934" lon="5.96317">
        <ele>666.6</ele>
        <time>2021-02-21T13:31:17Z</time>
      </trkpt>
      <trkpt lat="46.67935" lon="5.96324">
        <ele>667.3</ele>
        <time>2021-02-21T13:31:23Z</time>
      </trkpt>
      <trkpt lat="46.67936" lon="5.96331">
        <ele>667.8</ele>
        <time>2021-02-21T13:31:30Z</time>
      </trkpt>
      <trkpt lat="46.67939" lon="5.96334">
        <ele>668.3</ele>
        <time>2021-02-21T13:31:36Z</time>
      </trkpt>
      <trkpt lat="46.67934" lon="5.96338">
        <ele>670.5</ele>
        <time>2021-02-21T13:32:07Z</time>
      </trkpt>
      <trkpt lat="46.67933" lon="5.96345">
        <ele>671.4</ele>
        <time>2021-02-21T13:32:16Z</time>
      </trkpt>
      <trkpt lat="46.67935" lon="5.96352">
        <ele>672</ele>
        <time>2021-02-21T13:32:24Z</time>
      </trkpt>
      <trkpt lat="46.67937" lon="5.96359">
        <ele>672.2</ele>
        <time>2021-02-21T13:32:30Z</time>
      </trkpt>
      <trkpt lat="46.6794" lon="5.96365">
        <ele>672.5</ele>
        <time>2021-02-21T13:32:33Z</time>
      </trkpt>
      <trkpt lat="46.67942" lon="5.96372">
        <ele>673</ele>
        <time>2021-02-21T13:32:37Z</time>
      </trkpt>
      <trkpt lat="46.67945" lon="5.9638">
        <ele>673.9</ele>
        <time>2021-02-21T13:32:41Z</time>
      </trkpt>
      <trkpt lat="46.67947" lon="5.96386">
        <ele>675.2</ele>
        <time>2021-02-21T13:32:45Z</time>
      </trkpt>
      <trkpt lat="46.67948" lon="5.96392">
        <ele>677.3</ele>
        <time>2021-02-21T13:32:53Z</time>
      </trkpt>
      <trkpt lat="46.67951" lon="5.96399">
        <ele>678.6</ele>
        <time>2021-02-21T13:32:59Z</time>
      </trkpt>
      <trkpt lat="46.67953" lon="5.96404">
        <ele>680</ele>
        <time>2021-02-21T13:33:05Z</time>
      </trkpt>
      <trkpt lat="46.67957" lon="5.96409">
        <ele>682.3</ele>
        <time>2021-02-21T13:33:14Z</time>
      </trkpt>
      <trkpt lat="46.67954" lon="5.96416">
        <ele>684.3</ele>
        <time>2021-02-21T13:33:34Z</time>
      </trkpt>
      <trkpt lat="46.67953" lon="5.96424">
        <ele>685.3</ele>
        <time>2021-02-21T13:34:07Z</time>
      </trkpt>
      <trkpt lat="46.67953" lon="5.96431">
        <ele>685.2</ele>
        <time>2021-02-21T13:34:22Z</time>
      </trkpt>
      <trkpt lat="46.6795" lon="5.96436">
        <ele>684.9</ele>
        <time>2021-02-21T13:34:33Z</time>
      </trkpt>
      <trkpt lat="46.67947" lon="5.96442">
        <ele>683.6</ele>
        <time>2021-02-21T13:34:41Z</time>
      </trkpt>
      <trkpt lat="46.67945" lon="5.96448">
        <ele>682.4</ele>
        <time>2021-02-21T13:34:49Z</time>
      </trkpt>
      <trkpt lat="46.67941" lon="5.96452">
        <ele>682.1</ele>
        <time>2021-02-21T13:34:53Z</time>
      </trkpt>
      <trkpt lat="46.67938" lon="5.96458">
        <ele>681.7</ele>
        <time>2021-02-21T13:34:58Z</time>
      </trkpt>
      <trkpt lat="46.67937" lon="5.96465">
        <ele>681.4</ele>
        <time>2021-02-21T13:35:04Z</time>
      </trkpt>
      <trkpt lat="46.67938" lon="5.96471">
        <ele>681.5</ele>
        <time>2021-02-21T13:35:16Z</time>
      </trkpt>
      <trkpt lat="46.67934" lon="5.96476">
        <ele>681.2</ele>
        <time>2021-02-21T13:35:24Z</time>
      </trkpt>
      <trkpt lat="46.6793" lon="5.9648">
        <ele>680.4</ele>
        <time>2021-02-21T13:35:34Z</time>
      </trkpt>
      <trkpt lat="46.67931" lon="5.96486">
        <ele>683.5</ele>
        <time>2021-02-21T13:36:22Z</time>
      </trkpt>
      <trkpt lat="46.67926" lon="5.96487">
        <ele>683.9</ele>
        <time>2021-02-21T13:36:27Z</time>
      </trkpt>
      <trkpt lat="46.67922" lon="5.96484">
        <ele>683.4</ele>
        <time>2021-02-21T13:36:33Z</time>
      </trkpt>
      <trkpt lat="46.67917" lon="5.96484">
        <ele>683.2</ele>
        <time>2021-02-21T13:36:50Z</time>
      </trkpt>
      <trkpt lat="46.67912" lon="5.96483">
        <ele>683.4</ele>
        <time>2021-02-21T13:36:53Z</time>
      </trkpt>
      <trkpt lat="46.67908" lon="5.96481">
        <ele>683.4</ele>
        <time>2021-02-21T13:36:57Z</time>
      </trkpt>
      <trkpt lat="46.67903" lon="5.96479">
        <ele>683</ele>
        <time>2021-02-21T13:37:02Z</time>
      </trkpt>
      <trkpt lat="46.67898" lon="5.96478">
        <ele>682.6</ele>
        <time>2021-02-21T13:37:06Z</time>
      </trkpt>
      <trkpt lat="46.67893" lon="5.96478">
        <ele>682.5</ele>
        <time>2021-02-21T13:37:13Z</time>
      </trkpt>
      <trkpt lat="46.67888" lon="5.96481">
        <ele>683</ele>
        <time>2021-02-21T13:37:25Z</time>
      </trkpt>
      <trkpt lat="46.67883" lon="5.96483">
        <ele>683.2</ele>
        <time>2021-02-21T13:37:30Z</time>
      </trkpt>
      <trkpt lat="46.67874" lon="5.96479">
        <ele>683.9</ele>
        <time>2021-02-21T13:37:32Z</time>
      </trkpt>
      <trkpt lat="46.67867" lon="5.96477">
        <ele>684.6</ele>
        <time>2021-02-21T13:37:34Z</time>
      </trkpt>
      <trkpt lat="46.67862" lon="5.96476">
        <ele>685.9</ele>
        <time>2021-02-21T13:37:36Z</time>
      </trkpt>
      <trkpt lat="46.67857" lon="5.96475">
        <ele>687.9</ele>
        <time>2021-02-21T13:37:39Z</time>
      </trkpt>
      <trkpt lat="46.67854" lon="5.96479">
        <ele>690.6</ele>
        <time>2021-02-21T13:37:45Z</time>
      </trkpt>
      <trkpt lat="46.67852" lon="5.96486">
        <ele>692.2</ele>
        <time>2021-02-21T13:37:51Z</time>
      </trkpt>
      <trkpt lat="46.67851" lon="5.96494">
        <ele>693.4</ele>
        <time>2021-02-21T13:37:56Z</time>
      </trkpt>
      <trkpt lat="46.67851" lon="5.96501">
        <ele>694.6</ele>
        <time>2021-02-21T13:38:01Z</time>
      </trkpt>
      <trkpt lat="46.67851" lon="5.96509">
        <ele>695.9</ele>
        <time>2021-02-21T13:38:07Z</time>
      </trkpt>
      <trkpt lat="46.67849" lon="5.96517">
        <ele>696.8</ele>
        <time>2021-02-21T13:38:12Z</time>
      </trkpt>
      <trkpt lat="46.67847" lon="5.96523">
        <ele>697.4</ele>
        <time>2021-02-21T13:38:16Z</time>
      </trkpt>
      <trkpt lat="46.67846" lon="5.9653">
        <ele>698.1</ele>
        <time>2021-02-21T13:38:21Z</time>
      </trkpt>
      <trkpt lat="46.67843" lon="5.96535">
        <ele>698.2</ele>
        <time>2021-02-21T13:38:26Z</time>
      </trkpt>
      <trkpt lat="46.67842" lon="5.96543">
        <ele>698.8</ele>
        <time>2021-02-21T13:38:32Z</time>
      </trkpt>
      <trkpt lat="46.6784" lon="5.96549">
        <ele>698.6</ele>
        <time>2021-02-21T13:38:37Z</time>
      </trkpt>
      <trkpt lat="46.6784" lon="5.96556">
        <ele>698.1</ele>
        <time>2021-02-21T13:38:42Z</time>
      </trkpt>
      <trkpt lat="46.67839" lon="5.96563">
        <ele>697.6</ele>
        <time>2021-02-21T13:38:49Z</time>
      </trkpt>
      <trkpt lat="46.67837" lon="5.96569">
        <ele>697.1</ele>
        <time>2021-02-21T13:38:56Z</time>
      </trkpt>
      <trkpt lat="46.67835" lon="5.96576">
        <ele>697.2</ele>
        <time>2021-02-21T13:39:02Z</time>
      </trkpt>
      <trkpt lat="46.67834" lon="5.96583">
        <ele>697.4</ele>
        <time>2021-02-21T13:39:06Z</time>
      </trkpt>
      <trkpt lat="46.67832" lon="5.96589">
        <ele>697.4</ele>
        <time>2021-02-21T13:39:11Z</time>
      </trkpt>
      <trkpt lat="46.67831" lon="5.96596">
        <ele>697.5</ele>
        <time>2021-02-21T13:39:17Z</time>
      </trkpt>
      <trkpt lat="46.67827" lon="5.96599">
        <ele>697.8</ele>
        <time>2021-02-21T13:39:27Z</time>
      </trkpt>
      <trkpt lat="46.67825" lon="5.96605">
        <ele>698.2</ele>
        <time>2021-02-21T13:39:47Z</time>
      </trkpt>
      <trkpt lat="46.67825" lon="5.96612">
        <ele>698.2</ele>
        <time>2021-02-21T13:39:54Z</time>
      </trkpt>
      <trkpt lat="46.67823" lon="5.96619">
        <ele>699.1</ele>
        <time>2021-02-21T13:39:59Z</time>
      </trkpt>
      <trkpt lat="46.67821" lon="5.96626">
        <ele>700.4</ele>
        <time>2021-02-21T13:40:03Z</time>
      </trkpt>
      <trkpt lat="46.67818" lon="5.96631">
        <ele>702</ele>
        <time>2021-02-21T13:40:07Z</time>
      </trkpt>
      <trkpt lat="46.67815" lon="5.96635">
        <ele>704.2</ele>
        <time>2021-02-21T13:40:13Z</time>
      </trkpt>
      <trkpt lat="46.6781" lon="5.96639">
        <ele>706.2</ele>
        <time>2021-02-21T13:40:19Z</time>
      </trkpt>
      <trkpt lat="46.67807" lon="5.96645">
        <ele>706.1</ele>
        <time>2021-02-21T13:40:27Z</time>
      </trkpt>
      <trkpt lat="46.67803" lon="5.9665">
        <ele>704.7</ele>
        <time>2021-02-21T13:40:33Z</time>
      </trkpt>
      <trkpt lat="46.67799" lon="5.96655">
        <ele>704.5</ele>
        <time>2021-02-21T13:40:43Z</time>
      </trkpt>
      <trkpt lat="46.67796" lon="5.9666">
        <ele>704.6</ele>
        <time>2021-02-21T13:40:48Z</time>
      </trkpt>
      <trkpt lat="46.67792" lon="5.96665">
        <ele>704.8</ele>
        <time>2021-02-21T13:40:52Z</time>
      </trkpt>
      <trkpt lat="46.67789" lon="5.9667">
        <ele>704.7</ele>
        <time>2021-02-21T13:40:57Z</time>
      </trkpt>
      <trkpt lat="46.67785" lon="5.96673">
        <ele>703.9</ele>
        <time>2021-02-21T13:41:04Z</time>
      </trkpt>
      <trkpt lat="46.67781" lon="5.96677">
        <ele>703.1</ele>
        <time>2021-02-21T13:41:10Z</time>
      </trkpt>
      <trkpt lat="46.67777" lon="5.96688">
        <ele>704.6</ele>
        <time>2021-02-21T13:41:12Z</time>
      </trkpt>
      <trkpt lat="46.67775" lon="5.96695">
        <ele>705.1</ele>
        <time>2021-02-21T13:41:14Z</time>
      </trkpt>
      <trkpt lat="46.67771" lon="5.96699">
        <ele>705.4</ele>
        <time>2021-02-21T13:41:17Z</time>
      </trkpt>
      <trkpt lat="46.67768" lon="5.96703">
        <ele>705.6</ele>
        <time>2021-02-21T13:41:22Z</time>
      </trkpt>
      <trkpt lat="46.67763" lon="5.96704">
        <ele>705.6</ele>
        <time>2021-02-21T13:41:31Z</time>
      </trkpt>
      <trkpt lat="46.67758" lon="5.96709">
        <ele>704.7</ele>
        <time>2021-02-21T13:41:34Z</time>
      </trkpt>
      <trkpt lat="46.67754" lon="5.96713">
        <ele>703.9</ele>
        <time>2021-02-21T13:41:37Z</time>
      </trkpt>
      <trkpt lat="46.67749" lon="5.96717">
        <ele>702.9</ele>
        <time>2021-02-21T13:41:42Z</time>
      </trkpt>
      <trkpt lat="46.67744" lon="5.96719">
        <ele>702.2</ele>
        <time>2021-02-21T13:41:49Z</time>
      </trkpt>
      <trkpt lat="46.67739" lon="5.96721">
        <ele>702</ele>
        <time>2021-02-21T13:41:54Z</time>
      </trkpt>
      <trkpt lat="46.67735" lon="5.96725">
        <ele>702.8</ele>
        <time>2021-02-21T13:41:59Z</time>
      </trkpt>
      <trkpt lat="46.6773" lon="5.96726">
        <ele>703.7</ele>
        <time>2021-02-21T13:42:04Z</time>
      </trkpt>
      <trkpt lat="46.67725" lon="5.96725">
        <ele>704.2</ele>
        <time>2021-02-21T13:42:10Z</time>
      </trkpt>
      <trkpt lat="46.6772" lon="5.96725">
        <ele>704.7</ele>
        <time>2021-02-21T13:42:30Z</time>
      </trkpt>
      <trkpt lat="46.67721" lon="5.96733">
        <ele>706.9</ele>
        <time>2021-02-21T13:42:36Z</time>
      </trkpt>
      <trkpt lat="46.67721" lon="5.96741">
        <ele>709.9</ele>
        <time>2021-02-21T13:42:40Z</time>
      </trkpt>
      <trkpt lat="46.67717" lon="5.96745">
        <ele>714.5</ele>
        <time>2021-02-21T13:42:48Z</time>
      </trkpt>
      <trkpt lat="46.67712" lon="5.96747">
        <ele>717.4</ele>
        <time>2021-02-21T13:42:54Z</time>
      </trkpt>
      <trkpt lat="46.67708" lon="5.96751">
        <ele>720</ele>
        <time>2021-02-21T13:43:02Z</time>
      </trkpt>
      <trkpt lat="46.67702" lon="5.96752">
        <ele>721.2</ele>
        <time>2021-02-21T13:43:07Z</time>
      </trkpt>
      <trkpt lat="46.67697" lon="5.96752">
        <ele>721.3</ele>
        <time>2021-02-21T13:43:11Z</time>
      </trkpt>
      <trkpt lat="46.67693" lon="5.96753">
        <ele>721.4</ele>
        <time>2021-02-21T13:43:15Z</time>
      </trkpt>
      <trkpt lat="46.67688" lon="5.96756">
        <ele>721.3</ele>
        <time>2021-02-21T13:43:20Z</time>
      </trkpt>
      <trkpt lat="46.67683" lon="5.96756">
        <ele>721</ele>
        <time>2021-02-21T13:43:25Z</time>
      </trkpt>
      <trkpt lat="46.67678" lon="5.96754">
        <ele>720.9</ele>
        <time>2021-02-21T13:43:30Z</time>
      </trkpt>
      <trkpt lat="46.67673" lon="5.96752">
        <ele>720.8</ele>
        <time>2021-02-21T13:43:37Z</time>
      </trkpt>
      <trkpt lat="46.67668" lon="5.96753">
        <ele>720.5</ele>
        <time>2021-02-21T13:43:42Z</time>
      </trkpt>
      <trkpt lat="46.67664" lon="5.96754">
        <ele>720.4</ele>
        <time>2021-02-21T13:43:47Z</time>
      </trkpt>
      <trkpt lat="46.67658" lon="5.96755">
        <ele>720.4</ele>
        <time>2021-02-21T13:43:53Z</time>
      </trkpt>
      <trkpt lat="46.67654" lon="5.96758">
        <ele>720.4</ele>
        <time>2021-02-21T13:43:58Z</time>
      </trkpt>
      <trkpt lat="46.67649" lon="5.96761">
        <ele>720.3</ele>
        <time>2021-02-21T13:44:03Z</time>
      </trkpt>
      <trkpt lat="46.67644" lon="5.96762">
        <ele>720.5</ele>
        <time>2021-02-21T13:44:08Z</time>
      </trkpt>
      <trkpt lat="46.67639" lon="5.96762">
        <ele>720.6</ele>
        <time>2021-02-21T13:44:13Z</time>
      </trkpt>
      <trkpt lat="46.67634" lon="5.96761">
        <ele>720.1</ele>
        <time>2021-02-21T13:44:19Z</time>
      </trkpt>
      <trkpt lat="46.67629" lon="5.96758">
        <ele>718.8</ele>
        <time>2021-02-21T13:44:25Z</time>
      </trkpt>
      <trkpt lat="46.67625" lon="5.96755">
        <ele>717.8</ele>
        <time>2021-02-21T13:44:29Z</time>
      </trkpt>
      <trkpt lat="46.67621" lon="5.9675">
        <ele>716.6</ele>
        <time>2021-02-21T13:44:33Z</time>
      </trkpt>
      <trkpt lat="46.67618" lon="5.96744">
        <ele>715.9</ele>
        <time>2021-02-21T13:44:37Z</time>
      </trkpt>
      <trkpt lat="46.67615" lon="5.96737">
        <ele>715.5</ele>
        <time>2021-02-21T13:44:42Z</time>
      </trkpt>
      <trkpt lat="46.67615" lon="5.9673">
        <ele>716</ele>
        <time>2021-02-21T13:44:48Z</time>
      </trkpt>
      <trkpt lat="46.67615" lon="5.96723">
        <ele>716.4</ele>
        <time>2021-02-21T13:44:53Z</time>
      </trkpt>
      <trkpt lat="46.67615" lon="5.96716">
        <ele>716.7</ele>
        <time>2021-02-21T13:44:59Z</time>
      </trkpt>
      <trkpt lat="46.67612" lon="5.96706">
        <ele>718.8</ele>
        <time>2021-02-21T13:45:03Z</time>
      </trkpt>
      <trkpt lat="46.6761" lon="5.96699">
        <ele>720.5</ele>
        <time>2021-02-21T13:45:06Z</time>
      </trkpt>
      <trkpt lat="46.67609" lon="5.96693">
        <ele>722.5</ele>
        <time>2021-02-21T13:45:11Z</time>
      </trkpt>
      <trkpt lat="46.67611" lon="5.96686">
        <ele>723.9</ele>
        <time>2021-02-21T13:45:17Z</time>
      </trkpt>
      <trkpt lat="46.67613" lon="5.96679">
        <ele>724.5</ele>
        <time>2021-02-21T13:45:23Z</time>
      </trkpt>
      <trkpt lat="46.67615" lon="5.96673">
        <ele>724.6</ele>
        <time>2021-02-21T13:45:28Z</time>
      </trkpt>
      <trkpt lat="46.67615" lon="5.96667">
        <ele>724.6</ele>
        <time>2021-02-21T13:45:32Z</time>
      </trkpt>
      <trkpt lat="46.67613" lon="5.9666">
        <ele>724.9</ele>
        <time>2021-02-21T13:45:37Z</time>
      </trkpt>
      <trkpt lat="46.67612" lon="5.96653">
        <ele>725.1</ele>
        <time>2021-02-21T13:45:44Z</time>
      </trkpt>
      <trkpt lat="46.67612" lon="5.96646">
        <ele>725.9</ele>
        <time>2021-02-21T13:45:51Z</time>
      </trkpt>
      <trkpt lat="46.67612" lon="5.96639">
        <ele>726.6</ele>
        <time>2021-02-21T13:45:59Z</time>
      </trkpt>
      <trkpt lat="46.67611" lon="5.96631">
        <ele>726.7</ele>
        <time>2021-02-21T13:46:05Z</time>
      </trkpt>
      <trkpt lat="46.6761" lon="5.96625">
        <ele>726.5</ele>
        <time>2021-02-21T13:46:10Z</time>
      </trkpt>
      <trkpt lat="46.67609" lon="5.96618">
        <ele>726.4</ele>
        <time>2021-02-21T13:46:14Z</time>
      </trkpt>
      <trkpt lat="46.67602" lon="5.96608">
        <ele>726.3</ele>
        <time>2021-02-21T13:46:18Z</time>
      </trkpt>
      <trkpt lat="46.67598" lon="5.96602">
        <ele>726.4</ele>
        <time>2021-02-21T13:46:20Z</time>
      </trkpt>
      <trkpt lat="46.67595" lon="5.96596">
        <ele>726.3</ele>
        <time>2021-02-21T13:46:26Z</time>
      </trkpt>
      <trkpt lat="46.676" lon="5.96598">
        <ele>726.2</ele>
        <time>2021-02-21T13:46:47Z</time>
      </trkpt>
      <trkpt lat="46.67604" lon="5.96602">
        <ele>726.1</ele>
        <time>2021-02-21T13:46:50Z</time>
      </trkpt>
      <trkpt lat="46.67609" lon="5.96604">
        <ele>726</ele>
        <time>2021-02-21T13:46:55Z</time>
      </trkpt>
      <trkpt lat="46.67614" lon="5.96602">
        <ele>725.8</ele>
        <time>2021-02-21T13:47:03Z</time>
      </trkpt>
      <trkpt lat="46.67609" lon="5.96607">
        <ele>723.7</ele>
        <time>2021-02-21T13:47:38Z</time>
      </trkpt>
      <trkpt lat="46.67605" lon="5.96608">
        <ele>722.8</ele>
        <time>2021-02-21T13:47:43Z</time>
      </trkpt>
      <trkpt lat="46.67609" lon="5.96605">
        <ele>721.3</ele>
        <time>2021-02-21T13:47:53Z</time>
      </trkpt>
      <trkpt lat="46.67614" lon="5.96602">
        <ele>719.7</ele>
        <time>2021-02-21T13:48:50Z</time>
      </trkpt>
      <trkpt lat="46.67619" lon="5.96599">
        <ele>719.2</ele>
        <time>2021-02-21T13:48:55Z</time>
      </trkpt>
      <trkpt lat="46.67621" lon="5.96592">
        <ele>719</ele>
        <time>2021-02-21T13:49:04Z</time>
      </trkpt>
      <trkpt lat="46.67624" lon="5.96586">
        <ele>719</ele>
        <time>2021-02-21T13:49:11Z</time>
      </trkpt>
      <trkpt lat="46.67624" lon="5.96579">
        <ele>718.9</ele>
        <time>2021-02-21T13:49:17Z</time>
      </trkpt>
      <trkpt lat="46.67625" lon="5.96572">
        <ele>719.9</ele>
        <time>2021-02-21T13:49:23Z</time>
      </trkpt>
      <trkpt lat="46.67627" lon="5.96565">
        <ele>721.4</ele>
        <time>2021-02-21T13:49:29Z</time>
      </trkpt>
      <trkpt lat="46.67628" lon="5.96558">
        <ele>723.6</ele>
        <time>2021-02-21T13:49:36Z</time>
      </trkpt>
      <trkpt lat="46.67631" lon="5.96552">
        <ele>724.9</ele>
        <time>2021-02-21T13:49:42Z</time>
      </trkpt>
      <trkpt lat="46.67632" lon="5.96545">
        <ele>727.4</ele>
        <time>2021-02-21T13:49:50Z</time>
      </trkpt>
      <trkpt lat="46.67634" lon="5.96539">
        <ele>730.5</ele>
        <time>2021-02-21T13:49:58Z</time>
      </trkpt>
      <trkpt lat="46.67638" lon="5.96534">
        <ele>731.8</ele>
        <time>2021-02-21T13:50:03Z</time>
      </trkpt>
      <trkpt lat="46.67641" lon="5.96529">
        <ele>733.2</ele>
        <time>2021-02-21T13:50:08Z</time>
      </trkpt>
      <trkpt lat="46.67636" lon="5.96517">
        <ele>737.4</ele>
        <time>2021-02-21T13:50:15Z</time>
      </trkpt>
      <trkpt lat="46.67631" lon="5.96512">
        <ele>739</ele>
        <time>2021-02-21T13:50:17Z</time>
      </trkpt>
      <trkpt lat="46.67632" lon="5.96505">
        <ele>743.1</ele>
        <time>2021-02-21T13:50:23Z</time>
      </trkpt>
      <trkpt lat="46.67636" lon="5.96501">
        <ele>745.1</ele>
        <time>2021-02-21T13:50:28Z</time>
      </trkpt>
      <trkpt lat="46.6764" lon="5.96496">
        <ele>746.9</ele>
        <time>2021-02-21T13:50:35Z</time>
      </trkpt>
      <trkpt lat="46.67644" lon="5.96495">
        <ele>747.3</ele>
        <time>2021-02-21T13:50:41Z</time>
      </trkpt>
      <trkpt lat="46.67648" lon="5.9649">
        <ele>746.9</ele>
        <time>2021-02-21T13:50:47Z</time>
      </trkpt>
      <trkpt lat="46.67647" lon="5.96482">
        <ele>744.2</ele>
        <time>2021-02-21T13:50:50Z</time>
      </trkpt>
      <trkpt lat="46.67651" lon="5.96477">
        <ele>741</ele>
        <time>2021-02-21T13:50:57Z</time>
      </trkpt>
      <trkpt lat="46.67656" lon="5.96474">
        <ele>739.4</ele>
        <time>2021-02-21T13:51:03Z</time>
      </trkpt>
      <trkpt lat="46.67662" lon="5.96475">
        <ele>738.4</ele>
        <time>2021-02-21T13:51:07Z</time>
      </trkpt>
      <trkpt lat="46.67667" lon="5.96477">
        <ele>737.7</ele>
        <time>2021-02-21T13:51:10Z</time>
      </trkpt>
      <trkpt lat="46.67671" lon="5.96476">
        <ele>736.2</ele>
        <time>2021-02-21T13:51:21Z</time>
      </trkpt>
      <trkpt lat="46.67676" lon="5.96479">
        <ele>736.4</ele>
        <time>2021-02-21T13:51:26Z</time>
      </trkpt>
      <trkpt lat="46.6768" lon="5.9648">
        <ele>737.2</ele>
        <time>2021-02-21T13:51:32Z</time>
      </trkpt>
      <trkpt lat="46.67685" lon="5.96482">
        <ele>737.8</ele>
        <time>2021-02-21T13:51:38Z</time>
      </trkpt>
      <trkpt lat="46.67689" lon="5.96485">
        <ele>738.3</ele>
        <time>2021-02-21T13:51:47Z</time>
      </trkpt>
      <trkpt lat="46.67693" lon="5.96487">
        <ele>738.7</ele>
        <time>2021-02-21T13:51:53Z</time>
      </trkpt>
      <trkpt lat="46.67698" lon="5.96487">
        <ele>739.2</ele>
        <time>2021-02-21T13:51:56Z</time>
      </trkpt>
      <trkpt lat="46.67699" lon="5.96494">
        <ele>740.3</ele>
        <time>2021-02-21T13:53:08Z</time>
      </trkpt>
      <trkpt lat="46.67704" lon="5.96494">
        <ele>740.7</ele>
        <time>2021-02-21T13:53:14Z</time>
      </trkpt>
      <trkpt lat="46.67709" lon="5.96492">
        <ele>741.4</ele>
        <time>2021-02-21T13:53:25Z</time>
      </trkpt>
      <trkpt lat="46.67714" lon="5.96493">
        <ele>741.3</ele>
        <time>2021-02-21T13:53:29Z</time>
      </trkpt>
      <trkpt lat="46.67719" lon="5.96495">
        <ele>741.3</ele>
        <time>2021-02-21T13:53:32Z</time>
      </trkpt>
      <trkpt lat="46.67724" lon="5.96496">
        <ele>741.2</ele>
        <time>2021-02-21T13:53:36Z</time>
      </trkpt>
      <trkpt lat="46.67729" lon="5.96493">
        <ele>741.1</ele>
        <time>2021-02-21T13:53:41Z</time>
      </trkpt>
      <trkpt lat="46.67733" lon="5.9649">
        <ele>740.8</ele>
        <time>2021-02-21T13:53:46Z</time>
      </trkpt>
      <trkpt lat="46.67736" lon="5.96484">
        <ele>740.4</ele>
        <time>2021-02-21T13:53:53Z</time>
      </trkpt>
      <trkpt lat="46.67738" lon="5.96477">
        <ele>740</ele>
        <time>2021-02-21T13:53:59Z</time>
      </trkpt>
      <trkpt lat="46.67741" lon="5.96472">
        <ele>739.5</ele>
        <time>2021-02-21T13:54:04Z</time>
      </trkpt>
      <trkpt lat="46.67743" lon="5.96465">
        <ele>738.6</ele>
        <time>2021-02-21T13:54:11Z</time>
      </trkpt>
      <trkpt lat="46.67745" lon="5.96459">
        <ele>738.1</ele>
        <time>2021-02-21T13:54:18Z</time>
      </trkpt>
      <trkpt lat="46.67741" lon="5.96449">
        <ele>738.7</ele>
        <time>2021-02-21T13:54:23Z</time>
      </trkpt>
      <trkpt lat="46.67738" lon="5.96442">
        <ele>739.1</ele>
        <time>2021-02-21T13:54:26Z</time>
      </trkpt>
      <trkpt lat="46.67739" lon="5.96434">
        <ele>739.5</ele>
        <time>2021-02-21T13:54:33Z</time>
      </trkpt>
      <trkpt lat="46.67742" lon="5.96428">
        <ele>739.4</ele>
        <time>2021-02-21T13:54:40Z</time>
      </trkpt>
      <trkpt lat="46.67741" lon="5.96417">
        <ele>740.2</ele>
        <time>2021-02-21T13:54:47Z</time>
      </trkpt>
      <trkpt lat="46.67741" lon="5.9641">
        <ele>741.3</ele>
        <time>2021-02-21T13:54:52Z</time>
      </trkpt>
      <trkpt lat="46.6774" lon="5.96402">
        <ele>740.2</ele>
        <time>2021-02-21T13:54:59Z</time>
      </trkpt>
      <trkpt lat="46.67742" lon="5.96396">
        <ele>738.3</ele>
        <time>2021-02-21T13:55:05Z</time>
      </trkpt>
      <trkpt lat="46.67746" lon="5.96391">
        <ele>737.1</ele>
        <time>2021-02-21T13:55:11Z</time>
      </trkpt>
      <trkpt lat="46.67749" lon="5.96385">
        <ele>735.6</ele>
        <time>2021-02-21T13:55:18Z</time>
      </trkpt>
      <trkpt lat="46.6775" lon="5.96379">
        <ele>737.5</ele>
        <time>2021-02-21T13:55:21Z</time>
      </trkpt>
      <trkpt lat="46.67752" lon="5.9637">
        <ele>740.5</ele>
        <time>2021-02-21T13:55:28Z</time>
      </trkpt>
      <trkpt lat="46.67753" lon="5.96363">
        <ele>743.1</ele>
        <time>2021-02-21T13:55:33Z</time>
      </trkpt>
      <trkpt lat="46.67752" lon="5.96354">
        <ele>745.2</ele>
        <time>2021-02-21T13:55:40Z</time>
      </trkpt>
      <trkpt lat="46.67752" lon="5.96347">
        <ele>746.3</ele>
        <time>2021-02-21T13:55:46Z</time>
      </trkpt>
      <trkpt lat="46.67754" lon="5.9634">
        <ele>746.6</ele>
        <time>2021-02-21T13:55:54Z</time>
      </trkpt>
      <trkpt lat="46.67756" lon="5.96334">
        <ele>745</ele>
        <time>2021-02-21T13:56:12Z</time>
      </trkpt>
      <trkpt lat="46.67755" lon="5.96327">
        <ele>744</ele>
        <time>2021-02-21T13:56:19Z</time>
      </trkpt>
      <trkpt lat="46.67754" lon="5.96321">
        <ele>743.3</ele>
        <time>2021-02-21T13:56:26Z</time>
      </trkpt>
      <trkpt lat="46.6775" lon="5.96313">
        <ele>742.9</ele>
        <time>2021-02-21T13:56:29Z</time>
      </trkpt>
      <trkpt lat="46.67748" lon="5.96307">
        <ele>742.6</ele>
        <time>2021-02-21T13:56:32Z</time>
      </trkpt>
      <trkpt lat="46.6775" lon="5.963">
        <ele>742</ele>
        <time>2021-02-21T13:56:39Z</time>
      </trkpt>
      <trkpt lat="46.67753" lon="5.96295">
        <ele>741.7</ele>
        <time>2021-02-21T13:56:45Z</time>
      </trkpt>
      <trkpt lat="46.67753" lon="5.96288">
        <ele>741.4</ele>
        <time>2021-02-21T13:56:52Z</time>
      </trkpt>
      <trkpt lat="46.67753" lon="5.96281">
        <ele>741.3</ele>
        <time>2021-02-21T13:56:58Z</time>
      </trkpt>
      <trkpt lat="46.67756" lon="5.96275">
        <ele>740.9</ele>
        <time>2021-02-21T13:57:04Z</time>
      </trkpt>
      <trkpt lat="46.67756" lon="5.96268">
        <ele>740.5</ele>
        <time>2021-02-21T13:57:14Z</time>
      </trkpt>
      <trkpt lat="46.67759" lon="5.96261">
        <ele>740.3</ele>
        <time>2021-02-21T13:57:26Z</time>
      </trkpt>
      <trkpt lat="46.67759" lon="5.96253">
        <ele>741.2</ele>
        <time>2021-02-21T13:57:31Z</time>
      </trkpt>
      <trkpt lat="46.6776" lon="5.96246">
        <ele>742.8</ele>
        <time>2021-02-21T13:57:38Z</time>
      </trkpt>
      <trkpt lat="46.6776" lon="5.96239">
        <ele>743.5</ele>
        <time>2021-02-21T13:57:48Z</time>
      </trkpt>
      <trkpt lat="46.67761" lon="5.96233">
        <ele>743.4</ele>
        <time>2021-02-21T13:57:55Z</time>
      </trkpt>
      <trkpt lat="46.67763" lon="5.96226">
        <ele>742.7</ele>
        <time>2021-02-21T13:58:03Z</time>
      </trkpt>
      <trkpt lat="46.67763" lon="5.96219">
        <ele>742.2</ele>
        <time>2021-02-21T13:58:08Z</time>
      </trkpt>
      <trkpt lat="46.6776" lon="5.96213">
        <ele>741.5</ele>
        <time>2021-02-21T13:58:14Z</time>
      </trkpt>
      <trkpt lat="46.67757" lon="5.96207">
        <ele>740.7</ele>
        <time>2021-02-21T13:58:23Z</time>
      </trkpt>
      <trkpt lat="46.67758" lon="5.96201">
        <ele>740.2</ele>
        <time>2021-02-21T13:58:31Z</time>
      </trkpt>
      <trkpt lat="46.6776" lon="5.96195">
        <ele>739.2</ele>
        <time>2021-02-21T13:59:16Z</time>
      </trkpt>
      <trkpt lat="46.67761" lon="5.96188">
        <ele>739.1</ele>
        <time>2021-02-21T13:59:23Z</time>
      </trkpt>
      <trkpt lat="46.67766" lon="5.96186">
        <ele>739.7</ele>
        <time>2021-02-21T13:59:39Z</time>
      </trkpt>
      <trkpt lat="46.6777" lon="5.96182">
        <ele>740.7</ele>
        <time>2021-02-21T13:59:47Z</time>
      </trkpt>
      <trkpt lat="46.6777" lon="5.96175">
        <ele>741.3</ele>
        <time>2021-02-21T13:59:57Z</time>
      </trkpt>
      <trkpt lat="46.67769" lon="5.96168">
        <ele>741.4</ele>
        <time>2021-02-21T14:00:04Z</time>
      </trkpt>
      <trkpt lat="46.67766" lon="5.96162">
        <ele>741.4</ele>
        <time>2021-02-21T14:00:09Z</time>
      </trkpt>
      <trkpt lat="46.67763" lon="5.96155">
        <ele>741.5</ele>
        <time>2021-02-21T14:00:14Z</time>
      </trkpt>
      <trkpt lat="46.6776" lon="5.9615">
        <ele>741.5</ele>
        <time>2021-02-21T14:00:18Z</time>
      </trkpt>
      <trkpt lat="46.67756" lon="5.96146">
        <ele>741.5</ele>
        <time>2021-02-21T14:00:22Z</time>
      </trkpt>
      <trkpt lat="46.67752" lon="5.9614">
        <ele>741.4</ele>
        <time>2021-02-21T14:00:27Z</time>
      </trkpt>
      <trkpt lat="46.67748" lon="5.96136">
        <ele>741.1</ele>
        <time>2021-02-21T14:00:32Z</time>
      </trkpt>
      <trkpt lat="46.67744" lon="5.96131">
        <ele>740.7</ele>
        <time>2021-02-21T14:00:37Z</time>
      </trkpt>
      <trkpt lat="46.67741" lon="5.96126">
        <ele>740.1</ele>
        <time>2021-02-21T14:00:43Z</time>
      </trkpt>
      <trkpt lat="46.67742" lon="5.96118">
        <ele>739.5</ele>
        <time>2021-02-21T14:00:54Z</time>
      </trkpt>
      <trkpt lat="46.67742" lon="5.96111">
        <ele>739.1</ele>
        <time>2021-02-21T14:01:01Z</time>
      </trkpt>
      <trkpt lat="46.67744" lon="5.96105">
        <ele>738.4</ele>
        <time>2021-02-21T14:01:08Z</time>
      </trkpt>
      <trkpt lat="46.67744" lon="5.96098">
        <ele>737.7</ele>
        <time>2021-02-21T14:01:14Z</time>
      </trkpt>
      <trkpt lat="46.6774" lon="5.96091">
        <ele>736.6</ele>
        <time>2021-02-21T14:01:16Z</time>
      </trkpt>
      <trkpt lat="46.67739" lon="5.96084">
        <ele>735.1</ele>
        <time>2021-02-21T14:01:21Z</time>
      </trkpt>
      <trkpt lat="46.67739" lon="5.96078">
        <ele>733.7</ele>
        <time>2021-02-21T14:01:28Z</time>
      </trkpt>
      <trkpt lat="46.67737" lon="5.96071">
        <ele>733.4</ele>
        <time>2021-02-21T14:01:31Z</time>
      </trkpt>
      <trkpt lat="46.67737" lon="5.96064">
        <ele>732.4</ele>
        <time>2021-02-21T14:01:39Z</time>
      </trkpt>
      <trkpt lat="46.6774" lon="5.96059">
        <ele>731.5</ele>
        <time>2021-02-21T14:01:46Z</time>
      </trkpt>
      <trkpt lat="46.67742" lon="5.96051">
        <ele>732.3</ele>
        <time>2021-02-21T14:01:54Z</time>
      </trkpt>
      <trkpt lat="46.67744" lon="5.96045">
        <ele>733</ele>
        <time>2021-02-21T14:02:01Z</time>
      </trkpt>
      <trkpt lat="46.67744" lon="5.96038">
        <ele>732.8</ele>
        <time>2021-02-21T14:02:11Z</time>
      </trkpt>
      <trkpt lat="46.67745" lon="5.96031">
        <ele>732.4</ele>
        <time>2021-02-21T14:02:18Z</time>
      </trkpt>
      <trkpt lat="46.67743" lon="5.96024">
        <ele>732</ele>
        <time>2021-02-21T14:02:23Z</time>
      </trkpt>
      <trkpt lat="46.67742" lon="5.96016">
        <ele>732.6</ele>
        <time>2021-02-21T14:02:27Z</time>
      </trkpt>
      <trkpt lat="46.6774" lon="5.96009">
        <ele>733.4</ele>
        <time>2021-02-21T14:02:32Z</time>
      </trkpt>
      <trkpt lat="46.67738" lon="5.96003">
        <ele>735.5</ele>
        <time>2021-02-21T14:02:36Z</time>
      </trkpt>
      <trkpt lat="46.67733" lon="5.95998">
        <ele>737.3</ele>
        <time>2021-02-21T14:02:41Z</time>
      </trkpt>
      <trkpt lat="46.6773" lon="5.95992">
        <ele>739</ele>
        <time>2021-02-21T14:02:47Z</time>
      </trkpt>
      <trkpt lat="46.67727" lon="5.95987">
        <ele>739.6</ele>
        <time>2021-02-21T14:02:52Z</time>
      </trkpt>
      <trkpt lat="46.67724" lon="5.95981">
        <ele>740</ele>
        <time>2021-02-21T14:02:58Z</time>
      </trkpt>
      <trkpt lat="46.6772" lon="5.95977">
        <ele>740.2</ele>
        <time>2021-02-21T14:03:03Z</time>
      </trkpt>
      <trkpt lat="46.6772" lon="5.95971">
        <ele>740.3</ele>
        <time>2021-02-21T14:03:10Z</time>
      </trkpt>
      <trkpt lat="46.67721" lon="5.95964">
        <ele>740.1</ele>
        <time>2021-02-21T14:03:20Z</time>
      </trkpt>
      <trkpt lat="46.67722" lon="5.95956">
        <ele>740.8</ele>
        <time>2021-02-21T14:03:25Z</time>
      </trkpt>
      <trkpt lat="46.67724" lon="5.9595">
        <ele>741.4</ele>
        <time>2021-02-21T14:03:31Z</time>
      </trkpt>
      <trkpt lat="46.67729" lon="5.9595">
        <ele>741</ele>
        <time>2021-02-21T14:03:38Z</time>
      </trkpt>
      <trkpt lat="46.67733" lon="5.95952">
        <ele>740.1</ele>
        <time>2021-02-21T14:04:23Z</time>
      </trkpt>
      <trkpt lat="46.67734" lon="5.95959">
        <ele>741.6</ele>
        <time>2021-02-21T14:04:44Z</time>
      </trkpt>
      <trkpt lat="46.6773" lon="5.95955">
        <ele>742.3</ele>
        <time>2021-02-21T14:04:53Z</time>
      </trkpt>
      <trkpt lat="46.67732" lon="5.95949">
        <ele>746.6</ele>
        <time>2021-02-21T14:05:33Z</time>
      </trkpt>
      <trkpt lat="46.67729" lon="5.95944">
        <ele>744.7</ele>
        <time>2021-02-21T14:06:44Z</time>
      </trkpt>
      <trkpt lat="46.67725" lon="5.9594">
        <ele>743.4</ele>
        <time>2021-02-21T14:07:39Z</time>
      </trkpt>
      <trkpt lat="46.6772" lon="5.95938">
        <ele>743.5</ele>
        <time>2021-02-21T14:07:44Z</time>
      </trkpt>
      <trkpt lat="46.67716" lon="5.95938">
        <ele>743.3</ele>
        <time>2021-02-21T14:07:51Z</time>
      </trkpt>
      <trkpt lat="46.67711" lon="5.95939">
        <ele>742.7</ele>
        <time>2021-02-21T14:07:56Z</time>
      </trkpt>
      <trkpt lat="46.67706" lon="5.95938">
        <ele>742</ele>
        <time>2021-02-21T14:08:02Z</time>
      </trkpt>
      <trkpt lat="46.677" lon="5.95939">
        <ele>741</ele>
        <time>2021-02-21T14:08:28Z</time>
      </trkpt>
      <trkpt lat="46.67695" lon="5.95941">
        <ele>740.7</ele>
        <time>2021-02-21T14:08:40Z</time>
      </trkpt>
      <trkpt lat="46.67688" lon="5.95943">
        <ele>740.1</ele>
        <time>2021-02-21T14:09:04Z</time>
      </trkpt>
      <trkpt lat="46.6768" lon="5.95945">
        <ele>740.4</ele>
        <time>2021-02-21T14:09:06Z</time>
      </trkpt>
      <trkpt lat="46.67674" lon="5.95946">
        <ele>740.5</ele>
        <time>2021-02-21T14:09:08Z</time>
      </trkpt>
      <trkpt lat="46.6767" lon="5.95949">
        <ele>740.9</ele>
        <time>2021-02-21T14:09:11Z</time>
      </trkpt>
      <trkpt lat="46.67665" lon="5.95951">
        <ele>742</ele>
        <time>2021-02-21T14:09:19Z</time>
      </trkpt>
      <trkpt lat="46.6766" lon="5.95953">
        <ele>742.9</ele>
        <time>2021-02-21T14:09:31Z</time>
      </trkpt>
      <trkpt lat="46.67655" lon="5.95953">
        <ele>743</ele>
        <time>2021-02-21T14:09:36Z</time>
      </trkpt>
      <trkpt lat="46.67647" lon="5.95951">
        <ele>742.1</ele>
        <time>2021-02-21T14:10:01Z</time>
      </trkpt>
      <trkpt lat="46.67647" lon="5.95945">
        <ele>736.7</ele>
        <time>2021-02-21T14:10:45Z</time>
      </trkpt>
      <trkpt lat="46.67649" lon="5.95939">
        <ele>735.3</ele>
        <time>2021-02-21T14:10:55Z</time>
      </trkpt>
      <trkpt lat="46.67652" lon="5.95934">
        <ele>734.6</ele>
        <time>2021-02-21T14:11:06Z</time>
      </trkpt>
      <trkpt lat="46.67654" lon="5.95926">
        <ele>732.2</ele>
        <time>2021-02-21T14:11:14Z</time>
      </trkpt>
      <trkpt lat="46.67657" lon="5.95922">
        <ele>729.7</ele>
        <time>2021-02-21T14:11:19Z</time>
      </trkpt>
      <trkpt lat="46.67661" lon="5.95918">
        <ele>726.8</ele>
        <time>2021-02-21T14:11:25Z</time>
      </trkpt>
      <trkpt lat="46.67662" lon="5.95911">
        <ele>724.9</ele>
        <time>2021-02-21T14:11:32Z</time>
      </trkpt>
      <trkpt lat="46.67665" lon="5.95906">
        <ele>724.4</ele>
        <time>2021-02-21T14:11:41Z</time>
      </trkpt>
      <trkpt lat="46.67669" lon="5.95903">
        <ele>722.8</ele>
        <time>2021-02-21T14:11:48Z</time>
      </trkpt>
      <trkpt lat="46.6767" lon="5.95896">
        <ele>721.3</ele>
        <time>2021-02-21T14:11:55Z</time>
      </trkpt>
      <trkpt lat="46.6767" lon="5.95889">
        <ele>720</ele>
        <time>2021-02-21T14:12:01Z</time>
      </trkpt>
      <trkpt lat="46.6767" lon="5.95883">
        <ele>718.9</ele>
        <time>2021-02-21T14:12:07Z</time>
      </trkpt>
      <trkpt lat="46.67672" lon="5.95876">
        <ele>717.6</ele>
        <time>2021-02-21T14:12:13Z</time>
      </trkpt>
      <trkpt lat="46.67672" lon="5.95869">
        <ele>716.6</ele>
        <time>2021-02-21T14:12:19Z</time>
      </trkpt>
      <trkpt lat="46.67675" lon="5.95864">
        <ele>715.2</ele>
        <time>2021-02-21T14:12:29Z</time>
      </trkpt>
      <trkpt lat="46.67678" lon="5.95858">
        <ele>708.1</ele>
        <time>2021-02-21T14:12:49Z</time>
      </trkpt>
      <trkpt lat="46.67682" lon="5.95855">
        <ele>704.5</ele>
        <time>2021-02-21T14:12:56Z</time>
      </trkpt>
      <trkpt lat="46.67685" lon="5.95849">
        <ele>702.2</ele>
        <time>2021-02-21T14:13:03Z</time>
      </trkpt>
      <trkpt lat="46.67689" lon="5.95845">
        <ele>703.1</ele>
        <time>2021-02-21T14:13:08Z</time>
      </trkpt>
      <trkpt lat="46.67693" lon="5.95841">
        <ele>706.5</ele>
        <time>2021-02-21T14:13:14Z</time>
      </trkpt>
      <trkpt lat="46.67697" lon="5.95839">
        <ele>708.8</ele>
        <time>2021-02-21T14:13:17Z</time>
      </trkpt>
      <trkpt lat="46.67702" lon="5.95838">
        <ele>711.9</ele>
        <time>2021-02-21T14:13:20Z</time>
      </trkpt>
      <trkpt lat="46.67707" lon="5.95838">
        <ele>714.7</ele>
        <time>2021-02-21T14:13:23Z</time>
      </trkpt>
      <trkpt lat="46.67712" lon="5.9584">
        <ele>718.4</ele>
        <time>2021-02-21T14:13:27Z</time>
      </trkpt>
      <trkpt lat="46.67717" lon="5.95841">
        <ele>721.7</ele>
        <time>2021-02-21T14:13:31Z</time>
      </trkpt>
      <trkpt lat="46.67721" lon="5.95842">
        <ele>726.1</ele>
        <time>2021-02-21T14:13:37Z</time>
      </trkpt>
      <trkpt lat="46.67726" lon="5.95843">
        <ele>728.5</ele>
        <time>2021-02-21T14:13:43Z</time>
      </trkpt>
      <trkpt lat="46.67731" lon="5.95843">
        <ele>729.9</ele>
        <time>2021-02-21T14:13:52Z</time>
      </trkpt>
      <trkpt lat="46.67736" lon="5.95842">
        <ele>730.2</ele>
        <time>2021-02-21T14:13:59Z</time>
      </trkpt>
      <trkpt lat="46.6774" lon="5.95839">
        <ele>730.3</ele>
        <time>2021-02-21T14:14:03Z</time>
      </trkpt>
      <trkpt lat="46.67746" lon="5.95838">
        <ele>729.8</ele>
        <time>2021-02-21T14:14:07Z</time>
      </trkpt>
      <trkpt lat="46.6775" lon="5.95835">
        <ele>728.8</ele>
        <time>2021-02-21T14:14:12Z</time>
      </trkpt>
      <trkpt lat="46.67754" lon="5.9583">
        <ele>727.6</ele>
        <time>2021-02-21T14:14:19Z</time>
      </trkpt>
      <trkpt lat="46.67758" lon="5.95827">
        <ele>726.4</ele>
        <time>2021-02-21T14:14:23Z</time>
      </trkpt>
      <trkpt lat="46.67764" lon="5.95825">
        <ele>724.7</ele>
        <time>2021-02-21T14:14:27Z</time>
      </trkpt>
      <trkpt lat="46.67767" lon="5.95821">
        <ele>720.6</ele>
        <time>2021-02-21T14:14:38Z</time>
      </trkpt>
      <trkpt lat="46.67767" lon="5.95813">
        <ele>718.8</ele>
        <time>2021-02-21T14:14:45Z</time>
      </trkpt>
      <trkpt lat="46.67768" lon="5.95806">
        <ele>717.7</ele>
        <time>2021-02-21T14:14:51Z</time>
      </trkpt>
      <trkpt lat="46.6777" lon="5.95799">
        <ele>716.3</ele>
        <time>2021-02-21T14:14:57Z</time>
      </trkpt>
      <trkpt lat="46.67772" lon="5.95793">
        <ele>714.9</ele>
        <time>2021-02-21T14:15:03Z</time>
      </trkpt>
      <trkpt lat="46.67773" lon="5.95786">
        <ele>713.5</ele>
        <time>2021-02-21T14:15:10Z</time>
      </trkpt>
      <trkpt lat="46.67772" lon="5.95778">
        <ele>711.6</ele>
        <time>2021-02-21T14:15:14Z</time>
      </trkpt>
      <trkpt lat="46.67772" lon="5.95771">
        <ele>709.6</ele>
        <time>2021-02-21T14:15:19Z</time>
      </trkpt>
      <trkpt lat="46.67772" lon="5.95764">
        <ele>707.2</ele>
        <time>2021-02-21T14:15:29Z</time>
      </trkpt>
      <trkpt lat="46.67775" lon="5.95759">
        <ele>705.7</ele>
        <time>2021-02-21T14:15:36Z</time>
      </trkpt>
      <trkpt lat="46.67779" lon="5.95754">
        <ele>705.7</ele>
        <time>2021-02-21T14:15:43Z</time>
      </trkpt>
      <trkpt lat="46.67782" lon="5.95747">
        <ele>705.5</ele>
        <time>2021-02-21T14:15:48Z</time>
      </trkpt>
      <trkpt lat="46.67785" lon="5.95741">
        <ele>705.1</ele>
        <time>2021-02-21T14:15:53Z</time>
      </trkpt>
      <trkpt lat="46.67788" lon="5.95735">
        <ele>704.7</ele>
        <time>2021-02-21T14:16:00Z</time>
      </trkpt>
      <trkpt lat="46.67789" lon="5.95728">
        <ele>704.2</ele>
        <time>2021-02-21T14:16:05Z</time>
      </trkpt>
      <trkpt lat="46.67792" lon="5.95721">
        <ele>701.9</ele>
        <time>2021-02-21T14:16:09Z</time>
      </trkpt>
      <trkpt lat="46.67795" lon="5.95714">
        <ele>699.3</ele>
        <time>2021-02-21T14:16:13Z</time>
      </trkpt>
      <trkpt lat="46.67798" lon="5.95708">
        <ele>695.9</ele>
        <time>2021-02-21T14:16:21Z</time>
      </trkpt>
      <trkpt lat="46.67799" lon="5.95701">
        <ele>693.4</ele>
        <time>2021-02-21T14:16:30Z</time>
      </trkpt>
      <trkpt lat="46.678" lon="5.95694">
        <ele>692</ele>
        <time>2021-02-21T14:16:39Z</time>
      </trkpt>
      <trkpt lat="46.67801" lon="5.95685">
        <ele>692.9</ele>
        <time>2021-02-21T14:16:41Z</time>
      </trkpt>
      <trkpt lat="46.67803" lon="5.95677">
        <ele>693.9</ele>
        <time>2021-02-21T14:16:43Z</time>
      </trkpt>
      <trkpt lat="46.67806" lon="5.95671">
        <ele>695.4</ele>
        <time>2021-02-21T14:16:45Z</time>
      </trkpt>
      <trkpt lat="46.6781" lon="5.95669">
        <ele>698</ele>
        <time>2021-02-21T14:16:51Z</time>
      </trkpt>
      <trkpt lat="46.67813" lon="5.95675">
        <ele>699.8</ele>
        <time>2021-02-21T14:16:58Z</time>
      </trkpt>
      <trkpt lat="46.67818" lon="5.95676">
        <ele>701.4</ele>
        <time>2021-02-21T14:17:08Z</time>
      </trkpt>
      <trkpt lat="46.67813" lon="5.95674">
        <ele>701</ele>
        <time>2021-02-21T14:17:22Z</time>
      </trkpt>
      <trkpt lat="46.67807" lon="5.95678">
        <ele>701.1</ele>
        <time>2021-02-21T14:17:31Z</time>
      </trkpt>
      <trkpt lat="46.67803" lon="5.95681">
        <ele>701.1</ele>
        <time>2021-02-21T14:17:35Z</time>
      </trkpt>
      <trkpt lat="46.67798" lon="5.95684">
        <ele>701.5</ele>
        <time>2021-02-21T14:17:40Z</time>
      </trkpt>
      <trkpt lat="46.67795" lon="5.95689">
        <ele>702.9</ele>
        <time>2021-02-21T14:17:52Z</time>
      </trkpt>
      <trkpt lat="46.67803" lon="5.95688">
        <ele>703</ele>
        <time>2021-02-21T14:18:00Z</time>
      </trkpt>
      <trkpt lat="46.67808" lon="5.95689">
        <ele>702.7</ele>
        <time>2021-02-21T14:18:02Z</time>
      </trkpt>
      <trkpt lat="46.67814" lon="5.95691">
        <ele>700.7</ele>
        <time>2021-02-21T14:18:05Z</time>
      </trkpt>
      <trkpt lat="46.67819" lon="5.95691">
        <ele>698.2</ele>
        <time>2021-02-21T14:18:07Z</time>
      </trkpt>
      <trkpt lat="46.67824" lon="5.95692">
        <ele>693.6</ele>
        <time>2021-02-21T14:18:12Z</time>
      </trkpt>
      <trkpt lat="46.67827" lon="5.95687">
        <ele>688.1</ele>
        <time>2021-02-21T14:18:23Z</time>
      </trkpt>
      <trkpt lat="46.67831" lon="5.95682">
        <ele>686.3</ele>
        <time>2021-02-21T14:18:30Z</time>
      </trkpt>
      <trkpt lat="46.67835" lon="5.95678">
        <ele>685</ele>
        <time>2021-02-21T14:18:35Z</time>
      </trkpt>
      <trkpt lat="46.67839" lon="5.95674">
        <ele>684</ele>
        <time>2021-02-21T14:18:40Z</time>
      </trkpt>
      <trkpt lat="46.67842" lon="5.95669">
        <ele>683.2</ele>
        <time>2021-02-21T14:18:45Z</time>
      </trkpt>
      <trkpt lat="46.67846" lon="5.95664">
        <ele>682.1</ele>
        <time>2021-02-21T14:18:51Z</time>
      </trkpt>
      <trkpt lat="46.67849" lon="5.95658">
        <ele>681.9</ele>
        <time>2021-02-21T14:18:56Z</time>
      </trkpt>
      <trkpt lat="46.67851" lon="5.95652">
        <ele>681.8</ele>
        <time>2021-02-21T14:19:02Z</time>
      </trkpt>
      <trkpt lat="46.67855" lon="5.95648">
        <ele>681.8</ele>
        <time>2021-02-21T14:19:08Z</time>
      </trkpt>
      <trkpt lat="46.6786" lon="5.95645">
        <ele>681.9</ele>
        <time>2021-02-21T14:19:13Z</time>
      </trkpt>
      <trkpt lat="46.67865" lon="5.95644">
        <ele>681.5</ele>
        <time>2021-02-21T14:19:17Z</time>
      </trkpt>
      <trkpt lat="46.67869" lon="5.95642">
        <ele>681.2</ele>
        <time>2021-02-21T14:19:21Z</time>
      </trkpt>
      <trkpt lat="46.67874" lon="5.95643">
        <ele>680.9</ele>
        <time>2021-02-21T14:19:25Z</time>
      </trkpt>
      <trkpt lat="46.67879" lon="5.95645">
        <ele>680.9</ele>
        <time>2021-02-21T14:19:30Z</time>
      </trkpt>
      <trkpt lat="46.67884" lon="5.95649">
        <ele>681.7</ele>
        <time>2021-02-21T14:19:35Z</time>
      </trkpt>
      <trkpt lat="46.67889" lon="5.95651">
        <ele>682.3</ele>
        <time>2021-02-21T14:19:41Z</time>
      </trkpt>
      <trkpt lat="46.67893" lon="5.95654">
        <ele>682.8</ele>
        <time>2021-02-21T14:19:45Z</time>
      </trkpt>
      <trkpt lat="46.67897" lon="5.95657">
        <ele>683.7</ele>
        <time>2021-02-21T14:19:49Z</time>
      </trkpt>
      <trkpt lat="46.67901" lon="5.9566">
        <ele>685</ele>
        <time>2021-02-21T14:19:55Z</time>
      </trkpt>
      <trkpt lat="46.67906" lon="5.95661">
        <ele>685.8</ele>
        <time>2021-02-21T14:20:02Z</time>
      </trkpt>
      <trkpt lat="46.67911" lon="5.95662">
        <ele>686.3</ele>
        <time>2021-02-21T14:20:07Z</time>
      </trkpt>
      <trkpt lat="46.67915" lon="5.95662">
        <ele>686.8</ele>
        <time>2021-02-21T14:20:11Z</time>
      </trkpt>
      <trkpt lat="46.6792" lon="5.95662">
        <ele>687.3</ele>
        <time>2021-02-21T14:20:16Z</time>
      </trkpt>
      <trkpt lat="46.67925" lon="5.95658">
        <ele>687.2</ele>
        <time>2021-02-21T14:20:23Z</time>
      </trkpt>
      <trkpt lat="46.67929" lon="5.95654">
        <ele>686.7</ele>
        <time>2021-02-21T14:20:28Z</time>
      </trkpt>
      <trkpt lat="46.67931" lon="5.95648">
        <ele>686.1</ele>
        <time>2021-02-21T14:20:33Z</time>
      </trkpt>
      <trkpt lat="46.67934" lon="5.95643">
        <ele>685.5</ele>
        <time>2021-02-21T14:20:40Z</time>
      </trkpt>
      <trkpt lat="46.67938" lon="5.95637">
        <ele>684.9</ele>
        <time>2021-02-21T14:20:46Z</time>
      </trkpt>
      <trkpt lat="46.67941" lon="5.95632">
        <ele>684.3</ele>
        <time>2021-02-21T14:20:50Z</time>
      </trkpt>
      <trkpt lat="46.67943" lon="5.95626">
        <ele>683.1</ele>
        <time>2021-02-21T14:20:56Z</time>
      </trkpt>
      <trkpt lat="46.67947" lon="5.9562">
        <ele>681.7</ele>
        <time>2021-02-21T14:21:02Z</time>
      </trkpt>
      <trkpt lat="46.67949" lon="5.95613">
        <ele>680.4</ele>
        <time>2021-02-21T14:21:07Z</time>
      </trkpt>
      <trkpt lat="46.67952" lon="5.95606">
        <ele>679</ele>
        <time>2021-02-21T14:21:13Z</time>
      </trkpt>
      <trkpt lat="46.67955" lon="5.956">
        <ele>677.7</ele>
        <time>2021-02-21T14:21:18Z</time>
      </trkpt>
      <trkpt lat="46.67959" lon="5.95595">
        <ele>675.7</ele>
        <time>2021-02-21T14:21:24Z</time>
      </trkpt>
      <trkpt lat="46.67961" lon="5.95589">
        <ele>674.2</ele>
        <time>2021-02-21T14:21:29Z</time>
      </trkpt>
      <trkpt lat="46.67964" lon="5.95584">
        <ele>672.8</ele>
        <time>2021-02-21T14:21:35Z</time>
      </trkpt>
      <trkpt lat="46.67966" lon="5.95577">
        <ele>671.4</ele>
        <time>2021-02-21T14:21:42Z</time>
      </trkpt>
      <trkpt lat="46.6797" lon="5.95572">
        <ele>671.1</ele>
        <time>2021-02-21T14:21:49Z</time>
      </trkpt>
      <trkpt lat="46.67974" lon="5.95567">
        <ele>671.1</ele>
        <time>2021-02-21T14:21:55Z</time>
      </trkpt>
      <trkpt lat="46.67976" lon="5.95561">
        <ele>670.9</ele>
        <time>2021-02-21T14:22:02Z</time>
      </trkpt>
      <trkpt lat="46.67976" lon="5.95554">
        <ele>670.7</ele>
        <time>2021-02-21T14:22:09Z</time>
      </trkpt>
      <trkpt lat="46.67979" lon="5.95549">
        <ele>670.7</ele>
        <time>2021-02-21T14:22:16Z</time>
      </trkpt>
      <trkpt lat="46.67983" lon="5.95543">
        <ele>671.2</ele>
        <time>2021-02-21T14:22:22Z</time>
      </trkpt>
      <trkpt lat="46.67985" lon="5.95537">
        <ele>672.6</ele>
        <time>2021-02-21T14:22:36Z</time>
      </trkpt>
      <trkpt lat="46.67987" lon="5.95531">
        <ele>673.1</ele>
        <time>2021-02-21T14:22:41Z</time>
      </trkpt>
      <trkpt lat="46.67991" lon="5.95526">
        <ele>673.5</ele>
        <time>2021-02-21T14:22:47Z</time>
      </trkpt>
      <trkpt lat="46.67996" lon="5.95523">
        <ele>673.7</ele>
        <time>2021-02-21T14:22:52Z</time>
      </trkpt>
      <trkpt lat="46.67999" lon="5.95518">
        <ele>674</ele>
        <time>2021-02-21T14:22:59Z</time>
      </trkpt>
      <trkpt lat="46.68004" lon="5.95515">
        <ele>674.7</ele>
        <time>2021-02-21T14:23:08Z</time>
      </trkpt>
      <trkpt lat="46.68006" lon="5.95509">
        <ele>675.3</ele>
        <time>2021-02-21T14:23:17Z</time>
      </trkpt>
      <trkpt lat="46.68009" lon="5.95503">
        <ele>675.3</ele>
        <time>2021-02-21T14:23:23Z</time>
      </trkpt>
      <trkpt lat="46.68013" lon="5.95499">
        <ele>675.2</ele>
        <time>2021-02-21T14:23:27Z</time>
      </trkpt>
      <trkpt lat="46.68017" lon="5.95494">
        <ele>675.2</ele>
        <time>2021-02-21T14:23:33Z</time>
      </trkpt>
      <trkpt lat="46.68019" lon="5.95487">
        <ele>675</ele>
        <time>2021-02-21T14:23:38Z</time>
      </trkpt>
      <trkpt lat="46.68019" lon="5.9548">
        <ele>674.2</ele>
        <time>2021-02-21T14:23:44Z</time>
      </trkpt>
      <trkpt lat="46.68021" lon="5.95473">
        <ele>673.4</ele>
        <time>2021-02-21T14:23:50Z</time>
      </trkpt>
      <trkpt lat="46.68022" lon="5.95465">
        <ele>673.2</ele>
        <time>2021-02-21T14:23:56Z</time>
      </trkpt>
      <trkpt lat="46.68022" lon="5.95458">
        <ele>673.2</ele>
        <time>2021-02-21T14:24:01Z</time>
      </trkpt>
      <trkpt lat="46.68024" lon="5.9545">
        <ele>673.4</ele>
        <time>2021-02-21T14:24:06Z</time>
      </trkpt>
      <trkpt lat="46.68025" lon="5.95443">
        <ele>674.4</ele>
        <time>2021-02-21T14:24:10Z</time>
      </trkpt>
      <trkpt lat="46.68027" lon="5.95436">
        <ele>675.2</ele>
        <time>2021-02-21T14:24:15Z</time>
      </trkpt>
      <trkpt lat="46.6803" lon="5.95431">
        <ele>675.7</ele>
        <time>2021-02-21T14:24:20Z</time>
      </trkpt>
      <trkpt lat="46.68033" lon="5.95426">
        <ele>676.1</ele>
        <time>2021-02-21T14:24:25Z</time>
      </trkpt>
      <trkpt lat="46.68036" lon="5.9542">
        <ele>676.5</ele>
        <time>2021-02-21T14:24:30Z</time>
      </trkpt>
      <trkpt lat="46.68038" lon="5.95415">
        <ele>677</ele>
        <time>2021-02-21T14:24:36Z</time>
      </trkpt>
      <trkpt lat="46.68039" lon="5.95408">
        <ele>677.9</ele>
        <time>2021-02-21T14:24:43Z</time>
      </trkpt>
      <trkpt lat="46.68042" lon="5.95402">
        <ele>678.4</ele>
        <time>2021-02-21T14:24:49Z</time>
      </trkpt>
      <trkpt lat="46.68045" lon="5.95398">
        <ele>679</ele>
        <time>2021-02-21T14:24:55Z</time>
      </trkpt>
      <trkpt lat="46.68046" lon="5.95391">
        <ele>679.9</ele>
        <time>2021-02-21T14:25:02Z</time>
      </trkpt>
      <trkpt lat="46.68048" lon="5.95385">
        <ele>680.7</ele>
        <time>2021-02-21T14:25:12Z</time>
      </trkpt>
      <trkpt lat="46.68049" lon="5.95379">
        <ele>679</ele>
        <time>2021-02-21T14:25:29Z</time>
      </trkpt>
      <trkpt lat="46.68044" lon="5.95376">
        <ele>678.2</ele>
        <time>2021-02-21T14:25:37Z</time>
      </trkpt>
      <trkpt lat="46.6804" lon="5.95378">
        <ele>678.9</ele>
        <time>2021-02-21T14:25:45Z</time>
      </trkpt>
      <trkpt lat="46.68047" lon="5.9538">
        <ele>684.2</ele>
        <time>2021-02-21T14:25:53Z</time>
      </trkpt>
      <trkpt lat="46.68052" lon="5.95381">
        <ele>686.5</ele>
        <time>2021-02-21T14:25:55Z</time>
      </trkpt>
      <trkpt lat="46.68048" lon="5.95382">
        <ele>695.1</ele>
        <time>2021-02-21T14:26:40Z</time>
      </trkpt>
      <trkpt lat="46.68052" lon="5.95383">
        <ele>696.1</ele>
        <time>2021-02-21T14:27:46Z</time>
      </trkpt>
      <trkpt lat="46.68057" lon="5.95381">
        <ele>708</ele>
        <time>2021-02-21T14:27:52Z</time>
      </trkpt>
      <trkpt lat="46.68058" lon="5.95375">
        <ele>726.2</ele>
        <time>2021-02-21T14:28:38Z</time>
      </trkpt>
      <trkpt lat="46.68054" lon="5.95378">
        <ele>726.1</ele>
        <time>2021-02-21T14:28:54Z</time>
      </trkpt>
      <trkpt lat="46.68054" lon="5.95371">
        <ele>722.8</ele>
        <time>2021-02-21T14:29:10Z</time>
      </trkpt>
      <trkpt lat="46.68052" lon="5.95365">
        <ele>721.3</ele>
        <time>2021-02-21T14:29:15Z</time>
      </trkpt>
      <trkpt lat="46.6805" lon="5.95359">
        <ele>719.1</ele>
        <time>2021-02-21T14:29:22Z</time>
      </trkpt>
      <trkpt lat="46.6805" lon="5.95352">
        <ele>717</ele>
        <time>2021-02-21T14:29:28Z</time>
      </trkpt>
      <trkpt lat="46.68049" lon="5.95345">
        <ele>715.1</ele>
        <time>2021-02-21T14:29:33Z</time>
      </trkpt>
      <trkpt lat="46.6805" lon="5.95338">
        <ele>712.1</ele>
        <time>2021-02-21T14:29:40Z</time>
      </trkpt>
      <trkpt lat="46.68053" lon="5.95333">
        <ele>709.9</ele>
        <time>2021-02-21T14:30:13Z</time>
      </trkpt>
      <trkpt lat="46.68058" lon="5.95329">
        <ele>710</ele>
        <time>2021-02-21T14:30:16Z</time>
      </trkpt>
      <trkpt lat="46.68063" lon="5.95325">
        <ele>709.5</ele>
        <time>2021-02-21T14:30:18Z</time>
      </trkpt>
      <trkpt lat="46.68068" lon="5.95322">
        <ele>709</ele>
        <time>2021-02-21T14:30:21Z</time>
      </trkpt>
      <trkpt lat="46.68073" lon="5.95321">
        <ele>708.3</ele>
        <time>2021-02-21T14:30:26Z</time>
      </trkpt>
      <trkpt lat="46.68078" lon="5.9532">
        <ele>707.8</ele>
        <time>2021-02-21T14:30:32Z</time>
      </trkpt>
      <trkpt lat="46.68083" lon="5.95321">
        <ele>707.2</ele>
        <time>2021-02-21T14:30:38Z</time>
      </trkpt>
      <trkpt lat="46.68087" lon="5.95322">
        <ele>706.5</ele>
        <time>2021-02-21T14:30:44Z</time>
      </trkpt>
      <trkpt lat="46.68092" lon="5.95322">
        <ele>705.6</ele>
        <time>2021-02-21T14:30:50Z</time>
      </trkpt>
      <trkpt lat="46.68097" lon="5.95323">
        <ele>704.8</ele>
        <time>2021-02-21T14:30:56Z</time>
      </trkpt>
      <trkpt lat="46.68102" lon="5.95321">
        <ele>704.6</ele>
        <time>2021-02-21T14:31:03Z</time>
      </trkpt>
      <trkpt lat="46.68106" lon="5.9532">
        <ele>705.2</ele>
        <time>2021-02-21T14:31:09Z</time>
      </trkpt>
      <trkpt lat="46.68111" lon="5.9532">
        <ele>706.1</ele>
        <time>2021-02-21T14:31:15Z</time>
      </trkpt>
      <trkpt lat="46.68116" lon="5.95318">
        <ele>706.3</ele>
        <time>2021-02-21T14:31:20Z</time>
      </trkpt>
      <trkpt lat="46.68121" lon="5.95318">
        <ele>706.4</ele>
        <time>2021-02-21T14:31:27Z</time>
      </trkpt>
      <trkpt lat="46.68125" lon="5.9532">
        <ele>706.5</ele>
        <time>2021-02-21T14:31:35Z</time>
      </trkpt>
      <trkpt lat="46.6813" lon="5.95319">
        <ele>706.2</ele>
        <time>2021-02-21T14:31:43Z</time>
      </trkpt>
      <trkpt lat="46.68134" lon="5.95317">
        <ele>706.3</ele>
        <time>2021-02-21T14:31:48Z</time>
      </trkpt>
      <trkpt lat="46.68145" lon="5.95313">
        <ele>708.4</ele>
        <time>2021-02-21T14:31:51Z</time>
      </trkpt>
      <trkpt lat="46.68152" lon="5.95311">
        <ele>709.5</ele>
        <time>2021-02-21T14:31:53Z</time>
      </trkpt>
      <trkpt lat="46.68157" lon="5.95308">
        <ele>711.2</ele>
        <time>2021-02-21T14:31:56Z</time>
      </trkpt>
      <trkpt lat="46.68162" lon="5.95306">
        <ele>713.2</ele>
        <time>2021-02-21T14:32:03Z</time>
      </trkpt>
      <trkpt lat="46.68166" lon="5.95308">
        <ele>713.6</ele>
        <time>2021-02-21T14:32:09Z</time>
      </trkpt>
      <trkpt lat="46.6817" lon="5.95314">
        <ele>713.7</ele>
        <time>2021-02-21T14:32:15Z</time>
      </trkpt>
      <trkpt lat="46.68173" lon="5.95319">
        <ele>713.7</ele>
        <time>2021-02-21T14:32:20Z</time>
      </trkpt>
      <trkpt lat="46.68176" lon="5.95323">
        <ele>712.8</ele>
        <time>2021-02-21T14:32:40Z</time>
      </trkpt>
      <trkpt lat="46.6818" lon="5.95327">
        <ele>709.6</ele>
        <time>2021-02-21T14:33:30Z</time>
      </trkpt>
      <trkpt lat="46.68175" lon="5.95325">
        <ele>709.2</ele>
        <time>2021-02-21T14:33:50Z</time>
      </trkpt>
      <trkpt lat="46.68171" lon="5.95325">
        <ele>709.2</ele>
        <time>2021-02-21T14:33:56Z</time>
      </trkpt>
      <trkpt lat="46.68176" lon="5.95327">
        <ele>709.9</ele>
        <time>2021-02-21T14:34:36Z</time>
      </trkpt>
      <trkpt lat="46.68172" lon="5.95322">
        <ele>707.8</ele>
        <time>2021-02-21T14:34:54Z</time>
      </trkpt>
      <trkpt lat="46.68167" lon="5.9532">
        <ele>708</ele>
        <time>2021-02-21T14:34:58Z</time>
      </trkpt>
      <trkpt lat="46.68162" lon="5.95317">
        <ele>708.1</ele>
        <time>2021-02-21T14:35:03Z</time>
      </trkpt>
      <trkpt lat="46.68158" lon="5.95313">
        <ele>708.1</ele>
        <time>2021-02-21T14:35:07Z</time>
      </trkpt>
      <trkpt lat="46.68154" lon="5.9531">
        <ele>707.7</ele>
        <time>2021-02-21T14:35:11Z</time>
      </trkpt>
      <trkpt lat="46.68149" lon="5.95307">
        <ele>707.4</ele>
        <time>2021-02-21T14:35:17Z</time>
      </trkpt>
      <trkpt lat="46.68145" lon="5.95309">
        <ele>707.4</ele>
        <time>2021-02-21T14:35:26Z</time>
      </trkpt>
      <trkpt lat="46.6814" lon="5.95311">
        <ele>706.8</ele>
        <time>2021-02-21T14:35:35Z</time>
      </trkpt>
      <trkpt lat="46.68135" lon="5.95313">
        <ele>707.2</ele>
        <time>2021-02-21T14:35:40Z</time>
      </trkpt>
      <trkpt lat="46.6813" lon="5.95316">
        <ele>707.7</ele>
        <time>2021-02-21T14:35:44Z</time>
      </trkpt>
      <trkpt lat="46.68124" lon="5.95318">
        <ele>708.7</ele>
        <time>2021-02-21T14:35:48Z</time>
      </trkpt>
      <trkpt lat="46.68118" lon="5.95319">
        <ele>710.2</ele>
        <time>2021-02-21T14:35:52Z</time>
      </trkpt>
      <trkpt lat="46.68114" lon="5.95319">
        <ele>712</ele>
        <time>2021-02-21T14:35:56Z</time>
      </trkpt>
      <trkpt lat="46.68109" lon="5.95317">
        <ele>715.6</ele>
        <time>2021-02-21T14:36:03Z</time>
      </trkpt>
      <trkpt lat="46.6811" lon="5.95311">
        <ele>717.8</ele>
        <time>2021-02-21T14:36:10Z</time>
      </trkpt>
      <trkpt lat="46.68112" lon="5.95303">
        <ele>718.5</ele>
        <time>2021-02-21T14:36:15Z</time>
      </trkpt>
      <trkpt lat="46.68114" lon="5.95295">
        <ele>719.2</ele>
        <time>2021-02-21T14:36:19Z</time>
      </trkpt>
      <trkpt lat="46.68118" lon="5.9529">
        <ele>720.6</ele>
        <time>2021-02-21T14:36:25Z</time>
      </trkpt>
      <trkpt lat="46.68119" lon="5.95283">
        <ele>722.7</ele>
        <time>2021-02-21T14:36:33Z</time>
      </trkpt>
      <trkpt lat="46.68116" lon="5.95275">
        <ele>724.2</ele>
        <time>2021-02-21T14:36:39Z</time>
      </trkpt>
      <trkpt lat="46.68111" lon="5.9527">
        <ele>726.2</ele>
        <time>2021-02-21T14:36:57Z</time>
      </trkpt>
      <trkpt lat="46.68108" lon="5.95265">
        <ele>725.6</ele>
        <time>2021-02-21T14:37:02Z</time>
      </trkpt>
      <trkpt lat="46.68107" lon="5.95258">
        <ele>724.2</ele>
        <time>2021-02-21T14:37:12Z</time>
      </trkpt>
      <trkpt lat="46.68103" lon="5.95255">
        <ele>723.3</ele>
        <time>2021-02-21T14:37:22Z</time>
      </trkpt>
      <trkpt lat="46.68098" lon="5.95253">
        <ele>723.2</ele>
        <time>2021-02-21T14:37:29Z</time>
      </trkpt>
      <trkpt lat="46.68094" lon="5.95252">
        <ele>723.3</ele>
        <time>2021-02-21T14:37:33Z</time>
      </trkpt>
      <trkpt lat="46.68089" lon="5.95251">
        <ele>723</ele>
        <time>2021-02-21T14:37:38Z</time>
      </trkpt>
      <trkpt lat="46.68084" lon="5.95252">
        <ele>723.6</ele>
        <time>2021-02-21T14:37:43Z</time>
      </trkpt>
      <trkpt lat="46.68079" lon="5.95252">
        <ele>723.7</ele>
        <time>2021-02-21T14:37:47Z</time>
      </trkpt>
      <trkpt lat="46.68074" lon="5.95253">
        <ele>723.6</ele>
        <time>2021-02-21T14:37:51Z</time>
      </trkpt>
      <trkpt lat="46.6807" lon="5.95254">
        <ele>724</ele>
        <time>2021-02-21T14:37:57Z</time>
      </trkpt>
      <trkpt lat="46.68065" lon="5.9525">
        <ele>724.2</ele>
        <time>2021-02-21T14:38:02Z</time>
      </trkpt>
      <trkpt lat="46.6806" lon="5.95251">
        <ele>724.6</ele>
        <time>2021-02-21T14:38:05Z</time>
      </trkpt>
      <trkpt lat="46.68054" lon="5.95253">
        <ele>725</ele>
        <time>2021-02-21T14:38:08Z</time>
      </trkpt>
      <trkpt lat="46.68049" lon="5.95255">
        <ele>725.9</ele>
        <time>2021-02-21T14:38:11Z</time>
      </trkpt>
      <trkpt lat="46.68044" lon="5.95257">
        <ele>727.6</ele>
        <time>2021-02-21T14:38:15Z</time>
      </trkpt>
      <trkpt lat="46.68038" lon="5.95258">
        <ele>730</ele>
        <time>2021-02-21T14:38:19Z</time>
      </trkpt>
      <trkpt lat="46.68033" lon="5.95259">
        <ele>733.7</ele>
        <time>2021-02-21T14:38:25Z</time>
      </trkpt>
      <trkpt lat="46.68029" lon="5.95257">
        <ele>739</ele>
        <time>2021-02-21T14:38:35Z</time>
      </trkpt>
      <trkpt lat="46.68024" lon="5.95256">
        <ele>741.5</ele>
        <time>2021-02-21T14:38:43Z</time>
      </trkpt>
      <trkpt lat="46.68019" lon="5.95255">
        <ele>743.2</ele>
        <time>2021-02-21T14:38:48Z</time>
      </trkpt>
      <trkpt lat="46.68014" lon="5.95252">
        <ele>743.8</ele>
        <time>2021-02-21T14:38:51Z</time>
      </trkpt>
      <trkpt lat="46.68009" lon="5.95251">
        <ele>745</ele>
        <time>2021-02-21T14:38:56Z</time>
      </trkpt>
      <trkpt lat="46.68004" lon="5.9525">
        <ele>746.3</ele>
        <time>2021-02-21T14:39:01Z</time>
      </trkpt>
      <trkpt lat="46.68" lon="5.95247">
        <ele>747.5</ele>
        <time>2021-02-21T14:39:06Z</time>
      </trkpt>
      <trkpt lat="46.67995" lon="5.95247">
        <ele>748.5</ele>
        <time>2021-02-21T14:39:13Z</time>
      </trkpt>
      <trkpt lat="46.67991" lon="5.95248">
        <ele>749</ele>
        <time>2021-02-21T14:39:19Z</time>
      </trkpt>
      <trkpt lat="46.67986" lon="5.95247">
        <ele>748.9</ele>
        <time>2021-02-21T14:39:25Z</time>
      </trkpt>
      <trkpt lat="46.6798" lon="5.95247">
        <ele>748.2</ele>
        <time>2021-02-21T14:39:29Z</time>
      </trkpt>
      <trkpt lat="46.67976" lon="5.95246">
        <ele>747.4</ele>
        <time>2021-02-21T14:39:33Z</time>
      </trkpt>
      <trkpt lat="46.67968" lon="5.95245">
        <ele>743</ele>
        <time>2021-02-21T14:39:36Z</time>
      </trkpt>
      <trkpt lat="46.67962" lon="5.95243">
        <ele>739.5</ele>
        <time>2021-02-21T14:39:39Z</time>
      </trkpt>
      <trkpt lat="46.67957" lon="5.95243">
        <ele>733.8</ele>
        <time>2021-02-21T14:39:47Z</time>
      </trkpt>
      <trkpt lat="46.67952" lon="5.95244">
        <ele>732.3</ele>
        <time>2021-02-21T14:39:52Z</time>
      </trkpt>
      <trkpt lat="46.67947" lon="5.95244">
        <ele>731.6</ele>
        <time>2021-02-21T14:39:56Z</time>
      </trkpt>
      <trkpt lat="46.67942" lon="5.95243">
        <ele>731.3</ele>
        <time>2021-02-21T14:40:00Z</time>
      </trkpt>
      <trkpt lat="46.67937" lon="5.95245">
        <ele>731.1</ele>
        <time>2021-02-21T14:40:07Z</time>
      </trkpt>
      <trkpt lat="46.67932" lon="5.95245">
        <ele>731.2</ele>
        <time>2021-02-21T14:40:14Z</time>
      </trkpt>
      <trkpt lat="46.67929" lon="5.95256">
        <ele>733.6</ele>
        <time>2021-02-21T14:40:17Z</time>
      </trkpt>
      <trkpt lat="46.67927" lon="5.95263">
        <ele>735.4</ele>
        <time>2021-02-21T14:40:20Z</time>
      </trkpt>
      <trkpt lat="46.67922" lon="5.95263">
        <ele>737.4</ele>
        <time>2021-02-21T14:40:24Z</time>
      </trkpt>
      <trkpt lat="46.67917" lon="5.95263">
        <ele>738.8</ele>
        <time>2021-02-21T14:40:28Z</time>
      </trkpt>
      <trkpt lat="46.67911" lon="5.9526">
        <ele>740</ele>
        <time>2021-02-21T14:40:33Z</time>
      </trkpt>
      <trkpt lat="46.67906" lon="5.95257">
        <ele>740.4</ele>
        <time>2021-02-21T14:40:36Z</time>
      </trkpt>
      <trkpt lat="46.67902" lon="5.95254">
        <ele>740.8</ele>
        <time>2021-02-21T14:40:39Z</time>
      </trkpt>
      <trkpt lat="46.67897" lon="5.9525">
        <ele>741.1</ele>
        <time>2021-02-21T14:40:43Z</time>
      </trkpt>
      <trkpt lat="46.67894" lon="5.95244">
        <ele>741.4</ele>
        <time>2021-02-21T14:40:49Z</time>
      </trkpt>
      <trkpt lat="46.67892" lon="5.95237">
        <ele>741.6</ele>
        <time>2021-02-21T14:40:54Z</time>
      </trkpt>
      <trkpt lat="46.67889" lon="5.95232">
        <ele>741.7</ele>
        <time>2021-02-21T14:40:58Z</time>
      </trkpt>
      <trkpt lat="46.67885" lon="5.95227">
        <ele>741.5</ele>
        <time>2021-02-21T14:41:02Z</time>
      </trkpt>
      <trkpt lat="46.67881" lon="5.95223">
        <ele>741.5</ele>
        <time>2021-02-21T14:41:07Z</time>
      </trkpt>
      <trkpt lat="46.67877" lon="5.95221">
        <ele>741.9</ele>
        <time>2021-02-21T14:41:11Z</time>
      </trkpt>
      <trkpt lat="46.67872" lon="5.95221">
        <ele>742.7</ele>
        <time>2021-02-21T14:41:16Z</time>
      </trkpt>
      <trkpt lat="46.67867" lon="5.9522">
        <ele>743.8</ele>
        <time>2021-02-21T14:41:23Z</time>
      </trkpt>
      <trkpt lat="46.67862" lon="5.95218">
        <ele>744.7</ele>
        <time>2021-02-21T14:41:29Z</time>
      </trkpt>
      <trkpt lat="46.67858" lon="5.95216">
        <ele>745.5</ele>
        <time>2021-02-21T14:41:34Z</time>
      </trkpt>
      <trkpt lat="46.67853" lon="5.9522">
        <ele>747.2</ele>
        <time>2021-02-21T14:41:36Z</time>
      </trkpt>
      <trkpt lat="46.67849" lon="5.95224">
        <ele>749</ele>
        <time>2021-02-21T14:41:38Z</time>
      </trkpt>
      <trkpt lat="46.67845" lon="5.95225">
        <ele>751.9</ele>
        <time>2021-02-21T14:41:43Z</time>
      </trkpt>
      <trkpt lat="46.6784" lon="5.95223">
        <ele>754</ele>
        <time>2021-02-21T14:41:49Z</time>
      </trkpt>
      <trkpt lat="46.67836" lon="5.9522">
        <ele>755.5</ele>
        <time>2021-02-21T14:41:55Z</time>
      </trkpt>
      <trkpt lat="46.67831" lon="5.95218">
        <ele>756.5</ele>
        <time>2021-02-21T14:42:01Z</time>
      </trkpt>
      <trkpt lat="46.67826" lon="5.95217">
        <ele>757.1</ele>
        <time>2021-02-21T14:42:06Z</time>
      </trkpt>
      <trkpt lat="46.67822" lon="5.95214">
        <ele>757.5</ele>
        <time>2021-02-21T14:42:11Z</time>
      </trkpt>
      <trkpt lat="46.67817" lon="5.95211">
        <ele>757.9</ele>
        <time>2021-02-21T14:42:16Z</time>
      </trkpt>
      <trkpt lat="46.67812" lon="5.95209">
        <ele>758</ele>
        <time>2021-02-21T14:42:19Z</time>
      </trkpt>
      <trkpt lat="46.67808" lon="5.95206">
        <ele>758</ele>
        <time>2021-02-21T14:42:22Z</time>
      </trkpt>
      <trkpt lat="46.67803" lon="5.95202">
        <ele>757.9</ele>
        <time>2021-02-21T14:42:27Z</time>
      </trkpt>
      <trkpt lat="46.67799" lon="5.95199">
        <ele>758.1</ele>
        <time>2021-02-21T14:42:33Z</time>
      </trkpt>
      <trkpt lat="46.67794" lon="5.95197">
        <ele>758</ele>
        <time>2021-02-21T14:42:37Z</time>
      </trkpt>
      <trkpt lat="46.6779" lon="5.95193">
        <ele>758.4</ele>
        <time>2021-02-21T14:42:41Z</time>
      </trkpt>
      <trkpt lat="46.67787" lon="5.95188">
        <ele>758.3</ele>
        <time>2021-02-21T14:42:46Z</time>
      </trkpt>
      <trkpt lat="46.67782" lon="5.95185">
        <ele>758.3</ele>
        <time>2021-02-21T14:42:50Z</time>
      </trkpt>
      <trkpt lat="46.67778" lon="5.95183">
        <ele>759</ele>
        <time>2021-02-21T14:42:52Z</time>
      </trkpt>
      <trkpt lat="46.67773" lon="5.95181">
        <ele>759.6</ele>
        <time>2021-02-21T14:42:55Z</time>
      </trkpt>
      <trkpt lat="46.67768" lon="5.95178">
        <ele>760.8</ele>
        <time>2021-02-21T14:42:59Z</time>
      </trkpt>
      <trkpt lat="46.67765" lon="5.95173">
        <ele>761.9</ele>
        <time>2021-02-21T14:43:03Z</time>
      </trkpt>
      <trkpt lat="46.67762" lon="5.95167">
        <ele>762.8</ele>
        <time>2021-02-21T14:43:08Z</time>
      </trkpt>
      <trkpt lat="46.67758" lon="5.95161">
        <ele>763.2</ele>
        <time>2021-02-21T14:43:13Z</time>
      </trkpt>
      <trkpt lat="46.67754" lon="5.95156">
        <ele>763.4</ele>
        <time>2021-02-21T14:43:18Z</time>
      </trkpt>
      <trkpt lat="46.6775" lon="5.95153">
        <ele>763.3</ele>
        <time>2021-02-21T14:43:23Z</time>
      </trkpt>
      <trkpt lat="46.67746" lon="5.9515">
        <ele>763.2</ele>
        <time>2021-02-21T14:43:27Z</time>
      </trkpt>
      <trkpt lat="46.6774" lon="5.95148">
        <ele>764.5</ele>
        <time>2021-02-21T14:43:31Z</time>
      </trkpt>
      <trkpt lat="46.67735" lon="5.95145">
        <ele>765.5</ele>
        <time>2021-02-21T14:43:35Z</time>
      </trkpt>
      <trkpt lat="46.67732" lon="5.95139">
        <ele>766.8</ele>
        <time>2021-02-21T14:43:41Z</time>
      </trkpt>
      <trkpt lat="46.67728" lon="5.95134">
        <ele>768</ele>
        <time>2021-02-21T14:43:47Z</time>
      </trkpt>
      <trkpt lat="46.67729" lon="5.95128">
        <ele>767.9</ele>
        <time>2021-02-21T14:43:57Z</time>
      </trkpt>
      <trkpt lat="46.67732" lon="5.95132">
        <ele>766.8</ele>
        <time>2021-02-21T14:44:36Z</time>
      </trkpt>
      <trkpt lat="46.67728" lon="5.95136">
        <ele>766.1</ele>
        <time>2021-02-21T14:44:42Z</time>
      </trkpt>
      <trkpt lat="46.67724" lon="5.95138">
        <ele>765.6</ele>
        <time>2021-02-21T14:44:48Z</time>
      </trkpt>
      <trkpt lat="46.67719" lon="5.95139">
        <ele>765.2</ele>
        <time>2021-02-21T14:44:53Z</time>
      </trkpt>
      <trkpt lat="46.67714" lon="5.95138">
        <ele>764.8</ele>
        <time>2021-02-21T14:44:58Z</time>
      </trkpt>
      <trkpt lat="46.67709" lon="5.9514">
        <ele>764.1</ele>
        <time>2021-02-21T14:45:05Z</time>
      </trkpt>
      <trkpt lat="46.67703" lon="5.95142">
        <ele>763.6</ele>
        <time>2021-02-21T14:45:11Z</time>
      </trkpt>
      <trkpt lat="46.67698" lon="5.95144">
        <ele>759.9</ele>
        <time>2021-02-21T14:45:17Z</time>
      </trkpt>
      <trkpt lat="46.67694" lon="5.95147">
        <ele>756.9</ele>
        <time>2021-02-21T14:45:24Z</time>
      </trkpt>
      <trkpt lat="46.67697" lon="5.95153">
        <ele>756.6</ele>
        <time>2021-02-21T14:45:28Z</time>
      </trkpt>
      <trkpt lat="46.6769" lon="5.95158">
        <ele>755.1</ele>
        <time>2021-02-21T14:45:34Z</time>
      </trkpt>
      <trkpt lat="46.67683" lon="5.95162">
        <ele>754.9</ele>
        <time>2021-02-21T14:45:36Z</time>
      </trkpt>
      <trkpt lat="46.67678" lon="5.95165">
        <ele>754.6</ele>
        <time>2021-02-21T14:45:39Z</time>
      </trkpt>
      <trkpt lat="46.67674" lon="5.9517">
        <ele>754.1</ele>
        <time>2021-02-21T14:45:47Z</time>
      </trkpt>
      <trkpt lat="46.67671" lon="5.95175">
        <ele>754</ele>
        <time>2021-02-21T14:45:55Z</time>
      </trkpt>
      <trkpt lat="46.67666" lon="5.95177">
        <ele>754.4</ele>
        <time>2021-02-21T14:46:00Z</time>
      </trkpt>
      <trkpt lat="46.6766" lon="5.95178">
        <ele>755</ele>
        <time>2021-02-21T14:46:02Z</time>
      </trkpt>
      <trkpt lat="46.67656" lon="5.95181">
        <ele>756</ele>
        <time>2021-02-21T14:46:05Z</time>
      </trkpt>
      <trkpt lat="46.67651" lon="5.95184">
        <ele>757.9</ele>
        <time>2021-02-21T14:46:13Z</time>
      </trkpt>
      <trkpt lat="46.67646" lon="5.95185">
        <ele>759.4</ele>
        <time>2021-02-21T14:46:21Z</time>
      </trkpt>
      <trkpt lat="46.6764" lon="5.95188">
        <ele>760.2</ele>
        <time>2021-02-21T14:46:24Z</time>
      </trkpt>
      <trkpt lat="46.67635" lon="5.95191">
        <ele>761</ele>
        <time>2021-02-21T14:46:27Z</time>
      </trkpt>
      <trkpt lat="46.67631" lon="5.95195">
        <ele>761.9</ele>
        <time>2021-02-21T14:46:31Z</time>
      </trkpt>
      <trkpt lat="46.67628" lon="5.95201">
        <ele>763.2</ele>
        <time>2021-02-21T14:46:38Z</time>
      </trkpt>
      <trkpt lat="46.67625" lon="5.95207">
        <ele>764.4</ele>
        <time>2021-02-21T14:46:46Z</time>
      </trkpt>
      <trkpt lat="46.67623" lon="5.95214">
        <ele>764.8</ele>
        <time>2021-02-21T14:46:53Z</time>
      </trkpt>
      <trkpt lat="46.67626" lon="5.9522">
        <ele>763.7</ele>
        <time>2021-02-21T14:46:56Z</time>
      </trkpt>
      <trkpt lat="46.67625" lon="5.95227">
        <ele>760.7</ele>
        <time>2021-02-21T14:47:02Z</time>
      </trkpt>
      <trkpt lat="46.67623" lon="5.95234">
        <ele>759</ele>
        <time>2021-02-21T14:47:11Z</time>
      </trkpt>
      <trkpt lat="46.67623" lon="5.95241">
        <ele>758.2</ele>
        <time>2021-02-21T14:47:19Z</time>
      </trkpt>
      <trkpt lat="46.67623" lon="5.95248">
        <ele>758.1</ele>
        <time>2021-02-21T14:47:25Z</time>
      </trkpt>
      <trkpt lat="46.67624" lon="5.95255">
        <ele>758.1</ele>
        <time>2021-02-21T14:47:29Z</time>
      </trkpt>
      <trkpt lat="46.67624" lon="5.95262">
        <ele>758</ele>
        <time>2021-02-21T14:47:34Z</time>
      </trkpt>
      <trkpt lat="46.67621" lon="5.95268">
        <ele>758.1</ele>
        <time>2021-02-21T14:47:42Z</time>
      </trkpt>
      <trkpt lat="46.67619" lon="5.95274">
        <ele>759.2</ele>
        <time>2021-02-21T14:47:46Z</time>
      </trkpt>
      <trkpt lat="46.67615" lon="5.95279">
        <ele>760.1</ele>
        <time>2021-02-21T14:47:52Z</time>
      </trkpt>
      <trkpt lat="46.67609" lon="5.9528">
        <ele>761.4</ele>
        <time>2021-02-21T14:47:57Z</time>
      </trkpt>
      <trkpt lat="46.67605" lon="5.95279">
        <ele>762</ele>
        <time>2021-02-21T14:48:03Z</time>
      </trkpt>
      <trkpt lat="46.676" lon="5.95278">
        <ele>761.9</ele>
        <time>2021-02-21T14:48:07Z</time>
      </trkpt>
      <trkpt lat="46.67594" lon="5.95278">
        <ele>760.9</ele>
        <time>2021-02-21T14:48:10Z</time>
      </trkpt>
      <trkpt lat="46.67589" lon="5.95278">
        <ele>759.6</ele>
        <time>2021-02-21T14:48:15Z</time>
      </trkpt>
      <trkpt lat="46.67584" lon="5.9528">
        <ele>758.9</ele>
        <time>2021-02-21T14:48:18Z</time>
      </trkpt>
      <trkpt lat="46.6758" lon="5.95282">
        <ele>758.1</ele>
        <time>2021-02-21T14:48:22Z</time>
      </trkpt>
      <trkpt lat="46.67576" lon="5.95286">
        <ele>757.7</ele>
        <time>2021-02-21T14:48:27Z</time>
      </trkpt>
      <trkpt lat="46.67575" lon="5.95293">
        <ele>758</ele>
        <time>2021-02-21T14:48:34Z</time>
      </trkpt>
      <trkpt lat="46.67572" lon="5.95299">
        <ele>758.2</ele>
        <time>2021-02-21T14:48:40Z</time>
      </trkpt>
      <trkpt lat="46.67571" lon="5.95305">
        <ele>758.7</ele>
        <time>2021-02-21T14:48:50Z</time>
      </trkpt>
      <trkpt lat="46.67568" lon="5.95312">
        <ele>760</ele>
        <time>2021-02-21T14:48:56Z</time>
      </trkpt>
      <trkpt lat="46.67565" lon="5.95317">
        <ele>761.4</ele>
        <time>2021-02-21T14:49:00Z</time>
      </trkpt>
      <trkpt lat="46.6756" lon="5.95319">
        <ele>763.1</ele>
        <time>2021-02-21T14:49:05Z</time>
      </trkpt>
      <trkpt lat="46.67555" lon="5.95322">
        <ele>764.1</ele>
        <time>2021-02-21T14:49:10Z</time>
      </trkpt>
      <trkpt lat="46.67551" lon="5.95326">
        <ele>765.4</ele>
        <time>2021-02-21T14:49:16Z</time>
      </trkpt>
      <trkpt lat="46.67546" lon="5.95329">
        <ele>766.1</ele>
        <time>2021-02-21T14:49:20Z</time>
      </trkpt>
      <trkpt lat="46.67541" lon="5.95331">
        <ele>766.5</ele>
        <time>2021-02-21T14:49:23Z</time>
      </trkpt>
      <trkpt lat="46.67536" lon="5.95333">
        <ele>767.1</ele>
        <time>2021-02-21T14:49:27Z</time>
      </trkpt>
      <trkpt lat="46.67532" lon="5.95334">
        <ele>767.9</ele>
        <time>2021-02-21T14:49:32Z</time>
      </trkpt>
      <trkpt lat="46.67527" lon="5.95338">
        <ele>768.6</ele>
        <time>2021-02-21T14:49:38Z</time>
      </trkpt>
      <trkpt lat="46.67523" lon="5.95342">
        <ele>769</ele>
        <time>2021-02-21T14:49:46Z</time>
      </trkpt>
      <trkpt lat="46.67519" lon="5.95345">
        <ele>768.7</ele>
        <time>2021-02-21T14:49:51Z</time>
      </trkpt>
      <trkpt lat="46.67515" lon="5.95349">
        <ele>768.4</ele>
        <time>2021-02-21T14:49:56Z</time>
      </trkpt>
      <trkpt lat="46.67511" lon="5.95354">
        <ele>768.1</ele>
        <time>2021-02-21T14:50:01Z</time>
      </trkpt>
      <trkpt lat="46.67507" lon="5.95358">
        <ele>767.8</ele>
        <time>2021-02-21T14:50:08Z</time>
      </trkpt>
      <trkpt lat="46.67503" lon="5.95364">
        <ele>767.7</ele>
        <time>2021-02-21T14:50:13Z</time>
      </trkpt>
      <trkpt lat="46.67501" lon="5.95369">
        <ele>767.4</ele>
        <time>2021-02-21T14:50:18Z</time>
      </trkpt>
      <trkpt lat="46.67497" lon="5.95374">
        <ele>767.2</ele>
        <time>2021-02-21T14:50:23Z</time>
      </trkpt>
      <trkpt lat="46.67494" lon="5.9538">
        <ele>767</ele>
        <time>2021-02-21T14:50:30Z</time>
      </trkpt>
      <trkpt lat="46.6749" lon="5.95384">
        <ele>767</ele>
        <time>2021-02-21T14:50:33Z</time>
      </trkpt>
      <trkpt lat="46.67486" lon="5.95388">
        <ele>767</ele>
        <time>2021-02-21T14:50:37Z</time>
      </trkpt>
      <trkpt lat="46.67481" lon="5.95388">
        <ele>767.3</ele>
        <time>2021-02-21T14:50:43Z</time>
      </trkpt>
      <trkpt lat="46.67476" lon="5.9539">
        <ele>767.6</ele>
        <time>2021-02-21T14:50:49Z</time>
      </trkpt>
      <trkpt lat="46.67471" lon="5.95391">
        <ele>767.6</ele>
        <time>2021-02-21T14:50:55Z</time>
      </trkpt>
      <trkpt lat="46.67466" lon="5.95393">
        <ele>767.4</ele>
        <time>2021-02-21T14:51:00Z</time>
      </trkpt>
      <trkpt lat="46.67461" lon="5.95395">
        <ele>766.7</ele>
        <time>2021-02-21T14:51:05Z</time>
      </trkpt>
      <trkpt lat="46.67457" lon="5.95396">
        <ele>766</ele>
        <time>2021-02-21T14:51:10Z</time>
      </trkpt>
      <trkpt lat="46.67452" lon="5.95399">
        <ele>765.3</ele>
        <time>2021-02-21T14:51:14Z</time>
      </trkpt>
      <trkpt lat="46.67447" lon="5.95402">
        <ele>764.4</ele>
        <time>2021-02-21T14:51:19Z</time>
      </trkpt>
      <trkpt lat="46.67444" lon="5.95407">
        <ele>763.2</ele>
        <time>2021-02-21T14:51:24Z</time>
      </trkpt>
      <trkpt lat="46.6744" lon="5.95412">
        <ele>762.3</ele>
        <time>2021-02-21T14:51:29Z</time>
      </trkpt>
      <trkpt lat="46.67437" lon="5.95417">
        <ele>762</ele>
        <time>2021-02-21T14:51:34Z</time>
      </trkpt>
      <trkpt lat="46.67433" lon="5.95421">
        <ele>761.2</ele>
        <time>2021-02-21T14:51:40Z</time>
      </trkpt>
      <trkpt lat="46.67428" lon="5.95423">
        <ele>760.2</ele>
        <time>2021-02-21T14:51:46Z</time>
      </trkpt>
      <trkpt lat="46.67423" lon="5.95425">
        <ele>759.5</ele>
        <time>2021-02-21T14:51:53Z</time>
      </trkpt>
      <trkpt lat="46.67419" lon="5.95429">
        <ele>759.3</ele>
        <time>2021-02-21T14:51:59Z</time>
      </trkpt>
      <trkpt lat="46.67416" lon="5.95434">
        <ele>759.1</ele>
        <time>2021-02-21T14:52:06Z</time>
      </trkpt>
      <trkpt lat="46.67412" lon="5.95438">
        <ele>759</ele>
        <time>2021-02-21T14:52:11Z</time>
      </trkpt>
      <trkpt lat="46.67409" lon="5.95445">
        <ele>759.3</ele>
        <time>2021-02-21T14:52:16Z</time>
      </trkpt>
      <trkpt lat="46.67406" lon="5.95451">
        <ele>759.8</ele>
        <time>2021-02-21T14:52:20Z</time>
      </trkpt>
      <trkpt lat="46.67402" lon="5.95454">
        <ele>760.2</ele>
        <time>2021-02-21T14:52:25Z</time>
      </trkpt>
      <trkpt lat="46.67398" lon="5.9546">
        <ele>761.9</ele>
        <time>2021-02-21T14:52:28Z</time>
      </trkpt>
      <trkpt lat="46.67397" lon="5.95473">
        <ele>768.4</ele>
        <time>2021-02-21T14:52:30Z</time>
      </trkpt>
      <trkpt lat="46.67396" lon="5.95481">
        <ele>771.6</ele>
        <time>2021-02-21T14:52:32Z</time>
      </trkpt>
      <trkpt lat="46.67392" lon="5.95485">
        <ele>777.6</ele>
        <time>2021-02-21T14:52:36Z</time>
      </trkpt>
      <trkpt lat="46.67387" lon="5.95486">
        <ele>781.2</ele>
        <time>2021-02-21T14:52:40Z</time>
      </trkpt>
      <trkpt lat="46.67383" lon="5.95488">
        <ele>784.9</ele>
        <time>2021-02-21T14:52:47Z</time>
      </trkpt>
      <trkpt lat="46.67378" lon="5.95489">
        <ele>786.3</ele>
        <time>2021-02-21T14:52:53Z</time>
      </trkpt>
      <trkpt lat="46.67373" lon="5.95491">
        <ele>786.5</ele>
        <time>2021-02-21T14:52:58Z</time>
      </trkpt>
      <trkpt lat="46.67368" lon="5.95494">
        <ele>786</ele>
        <time>2021-02-21T14:53:02Z</time>
      </trkpt>
      <trkpt lat="46.67364" lon="5.95497">
        <ele>785.6</ele>
        <time>2021-02-21T14:53:07Z</time>
      </trkpt>
      <trkpt lat="46.67359" lon="5.95499">
        <ele>785</ele>
        <time>2021-02-21T14:53:12Z</time>
      </trkpt>
      <trkpt lat="46.67354" lon="5.95501">
        <ele>784.2</ele>
        <time>2021-02-21T14:53:15Z</time>
      </trkpt>
      <trkpt lat="46.67349" lon="5.95501">
        <ele>783.3</ele>
        <time>2021-02-21T14:53:19Z</time>
      </trkpt>
      <trkpt lat="46.67344" lon="5.95501">
        <ele>782.6</ele>
        <time>2021-02-21T14:53:28Z</time>
      </trkpt>
      <trkpt lat="46.6734" lon="5.95504">
        <ele>782.6</ele>
        <time>2021-02-21T14:53:34Z</time>
      </trkpt>
      <trkpt lat="46.67335" lon="5.95504">
        <ele>782.7</ele>
        <time>2021-02-21T14:53:41Z</time>
      </trkpt>
      <trkpt lat="46.6733" lon="5.95503">
        <ele>782.7</ele>
        <time>2021-02-21T14:53:46Z</time>
      </trkpt>
      <trkpt lat="46.6733" lon="5.95497">
        <ele>782.7</ele>
        <time>2021-02-21T14:53:54Z</time>
      </trkpt>
      <trkpt lat="46.67327" lon="5.9549">
        <ele>782</ele>
        <time>2021-02-21T14:54:01Z</time>
      </trkpt>
      <trkpt lat="46.67323" lon="5.95486">
        <ele>781</ele>
        <time>2021-02-21T14:54:06Z</time>
      </trkpt>
      <trkpt lat="46.67318" lon="5.95485">
        <ele>780.4</ele>
        <time>2021-02-21T14:54:15Z</time>
      </trkpt>
      <trkpt lat="46.67313" lon="5.95483">
        <ele>781.1</ele>
        <time>2021-02-21T14:54:20Z</time>
      </trkpt>
      <trkpt lat="46.67309" lon="5.95479">
        <ele>782.3</ele>
        <time>2021-02-21T14:54:29Z</time>
      </trkpt>
      <trkpt lat="46.67305" lon="5.95475">
        <ele>783.1</ele>
        <time>2021-02-21T14:54:35Z</time>
      </trkpt>
      <trkpt lat="46.67301" lon="5.95468">
        <ele>783.6</ele>
        <time>2021-02-21T14:54:46Z</time>
      </trkpt>
      <trkpt lat="46.67297" lon="5.95466">
        <ele>784</ele>
        <time>2021-02-21T14:54:50Z</time>
      </trkpt>
      <trkpt lat="46.67293" lon="5.95461">
        <ele>784.7</ele>
        <time>2021-02-21T14:55:05Z</time>
      </trkpt>
      <trkpt lat="46.6729" lon="5.95455">
        <ele>784.9</ele>
        <time>2021-02-21T14:55:09Z</time>
      </trkpt>
      <trkpt lat="46.67286" lon="5.9545">
        <ele>785.5</ele>
        <time>2021-02-21T14:55:14Z</time>
      </trkpt>
      <trkpt lat="46.67284" lon="5.95444">
        <ele>785.9</ele>
        <time>2021-02-21T14:55:18Z</time>
      </trkpt>
      <trkpt lat="46.67281" lon="5.95439">
        <ele>786.4</ele>
        <time>2021-02-21T14:55:25Z</time>
      </trkpt>
      <trkpt lat="46.67282" lon="5.95432">
        <ele>785.9</ele>
        <time>2021-02-21T14:56:15Z</time>
      </trkpt>
      <trkpt lat="46.67278" lon="5.95428">
        <ele>786</ele>
        <time>2021-02-21T14:56:46Z</time>
      </trkpt>
      <trkpt lat="46.67274" lon="5.95425">
        <ele>786.6</ele>
        <time>2021-02-21T14:56:49Z</time>
      </trkpt>
      <trkpt lat="46.67269" lon="5.95422">
        <ele>787.3</ele>
        <time>2021-02-21T14:56:55Z</time>
      </trkpt>
      <trkpt lat="46.67264" lon="5.95416">
        <ele>788.4</ele>
        <time>2021-02-21T14:57:23Z</time>
      </trkpt>
      <trkpt lat="46.67266" lon="5.95409">
        <ele>786.2</ele>
        <time>2021-02-21T14:57:43Z</time>
      </trkpt>
      <trkpt lat="46.67261" lon="5.95407">
        <ele>785.3</ele>
        <time>2021-02-21T14:57:51Z</time>
      </trkpt>
      <trkpt lat="46.67257" lon="5.95405">
        <ele>785.2</ele>
        <time>2021-02-21T14:57:54Z</time>
      </trkpt>
      <trkpt lat="46.67251" lon="5.95404">
        <ele>785.3</ele>
        <time>2021-02-21T14:58:02Z</time>
      </trkpt>
      <trkpt lat="46.67247" lon="5.954">
        <ele>785.6</ele>
        <time>2021-02-21T14:58:09Z</time>
      </trkpt>
      <trkpt lat="46.67243" lon="5.95395">
        <ele>786.1</ele>
        <time>2021-02-21T14:58:15Z</time>
      </trkpt>
      <trkpt lat="46.67239" lon="5.95391">
        <ele>786.6</ele>
        <time>2021-02-21T14:58:21Z</time>
      </trkpt>
      <trkpt lat="46.67235" lon="5.95385">
        <ele>786.9</ele>
        <time>2021-02-21T14:58:29Z</time>
      </trkpt>
      <trkpt lat="46.67232" lon="5.95381">
        <ele>787.1</ele>
        <time>2021-02-21T14:58:35Z</time>
      </trkpt>
      <trkpt lat="46.67229" lon="5.95375">
        <ele>787.1</ele>
        <time>2021-02-21T14:58:40Z</time>
      </trkpt>
      <trkpt lat="46.67224" lon="5.9537">
        <ele>787</ele>
        <time>2021-02-21T14:58:45Z</time>
      </trkpt>
      <trkpt lat="46.6722" lon="5.95367">
        <ele>787.4</ele>
        <time>2021-02-21T14:58:51Z</time>
      </trkpt>
      <trkpt lat="46.67216" lon="5.95364">
        <ele>788.1</ele>
        <time>2021-02-21T14:59:00Z</time>
      </trkpt>
      <trkpt lat="46.6721" lon="5.95364">
        <ele>788.6</ele>
        <time>2021-02-21T14:59:05Z</time>
      </trkpt>
      <trkpt lat="46.67205" lon="5.95364">
        <ele>789.1</ele>
        <time>2021-02-21T14:59:09Z</time>
      </trkpt>
      <trkpt lat="46.672" lon="5.95363">
        <ele>789.5</ele>
        <time>2021-02-21T14:59:14Z</time>
      </trkpt>
      <trkpt lat="46.67195" lon="5.9536">
        <ele>790</ele>
        <time>2021-02-21T14:59:23Z</time>
      </trkpt>
      <trkpt lat="46.67186" lon="5.95366">
        <ele>795.5</ele>
        <time>2021-02-21T14:59:25Z</time>
      </trkpt>
      <trkpt lat="46.6718" lon="5.9537">
        <ele>798.2</ele>
        <time>2021-02-21T14:59:27Z</time>
      </trkpt>
      <trkpt lat="46.67186" lon="5.95366">
        <ele>803.4</ele>
        <time>2021-02-21T15:00:27Z</time>
      </trkpt>
      <trkpt lat="46.67183" lon="5.95359">
        <ele>800.7</ele>
        <time>2021-02-21T15:00:48Z</time>
      </trkpt>
      <trkpt lat="46.67179" lon="5.95357">
        <ele>799.6</ele>
        <time>2021-02-21T15:01:01Z</time>
      </trkpt>
      <trkpt lat="46.67175" lon="5.95351">
        <ele>791.3</ele>
        <time>2021-02-21T15:01:38Z</time>
      </trkpt>
      <trkpt lat="46.67173" lon="5.95345">
        <ele>791.1</ele>
        <time>2021-02-21T15:01:42Z</time>
      </trkpt>
      <trkpt lat="46.67171" lon="5.95338">
        <ele>791.6</ele>
        <time>2021-02-21T15:01:55Z</time>
      </trkpt>
      <trkpt lat="46.67167" lon="5.95335">
        <ele>791.7</ele>
        <time>2021-02-21T15:02:02Z</time>
      </trkpt>
      <trkpt lat="46.67162" lon="5.95332">
        <ele>791.2</ele>
        <time>2021-02-21T15:02:08Z</time>
      </trkpt>
      <trkpt lat="46.67157" lon="5.95331">
        <ele>790.9</ele>
        <time>2021-02-21T15:02:16Z</time>
      </trkpt>
      <trkpt lat="46.67152" lon="5.95329">
        <ele>791.1</ele>
        <time>2021-02-21T15:02:23Z</time>
      </trkpt>
      <trkpt lat="46.67148" lon="5.95329">
        <ele>791.4</ele>
        <time>2021-02-21T15:02:29Z</time>
      </trkpt>
      <trkpt lat="46.67143" lon="5.95328">
        <ele>791.8</ele>
        <time>2021-02-21T15:02:33Z</time>
      </trkpt>
      <trkpt lat="46.67139" lon="5.95322">
        <ele>792.2</ele>
        <time>2021-02-21T15:02:39Z</time>
      </trkpt>
      <trkpt lat="46.67136" lon="5.95317">
        <ele>791.8</ele>
        <time>2021-02-21T15:02:45Z</time>
      </trkpt>
      <trkpt lat="46.67132" lon="5.95312">
        <ele>791.3</ele>
        <time>2021-02-21T15:02:57Z</time>
      </trkpt>
      <trkpt lat="46.6713" lon="5.95307">
        <ele>791</ele>
        <time>2021-02-21T15:03:01Z</time>
      </trkpt>
      <trkpt lat="46.67127" lon="5.95302">
        <ele>790.4</ele>
        <time>2021-02-21T15:03:08Z</time>
      </trkpt>
      <trkpt lat="46.67123" lon="5.95298">
        <ele>790.2</ele>
        <time>2021-02-21T15:03:15Z</time>
      </trkpt>
      <trkpt lat="46.67118" lon="5.95297">
        <ele>790.3</ele>
        <time>2021-02-21T15:03:18Z</time>
      </trkpt>
      <trkpt lat="46.67113" lon="5.95295">
        <ele>790.4</ele>
        <time>2021-02-21T15:03:23Z</time>
      </trkpt>
      <trkpt lat="46.67108" lon="5.95294">
        <ele>790.4</ele>
        <time>2021-02-21T15:03:28Z</time>
      </trkpt>
      <trkpt lat="46.67104" lon="5.9529">
        <ele>790.6</ele>
        <time>2021-02-21T15:03:38Z</time>
      </trkpt>
      <trkpt lat="46.67102" lon="5.95284">
        <ele>790.9</ele>
        <time>2021-02-21T15:03:43Z</time>
      </trkpt>
      <trkpt lat="46.67098" lon="5.95278">
        <ele>790.9</ele>
        <time>2021-02-21T15:03:47Z</time>
      </trkpt>
      <trkpt lat="46.67097" lon="5.95271">
        <ele>791.1</ele>
        <time>2021-02-21T15:03:53Z</time>
      </trkpt>
      <trkpt lat="46.67094" lon="5.95265">
        <ele>791.5</ele>
        <time>2021-02-21T15:04:00Z</time>
      </trkpt>
      <trkpt lat="46.67092" lon="5.95257">
        <ele>791.3</ele>
        <time>2021-02-21T15:04:05Z</time>
      </trkpt>
      <trkpt lat="46.67091" lon="5.95251">
        <ele>790.9</ele>
        <time>2021-02-21T15:04:10Z</time>
      </trkpt>
      <trkpt lat="46.6709" lon="5.95244">
        <ele>791</ele>
        <time>2021-02-21T15:04:16Z</time>
      </trkpt>
      <trkpt lat="46.6709" lon="5.95237">
        <ele>791.6</ele>
        <time>2021-02-21T15:04:27Z</time>
      </trkpt>
      <trkpt lat="46.6709" lon="5.95231">
        <ele>791.5</ele>
        <time>2021-02-21T15:04:32Z</time>
      </trkpt>
      <trkpt lat="46.67092" lon="5.95224">
        <ele>790.6</ele>
        <time>2021-02-21T15:04:38Z</time>
      </trkpt>
      <trkpt lat="46.67094" lon="5.95217">
        <ele>789.5</ele>
        <time>2021-02-21T15:04:43Z</time>
      </trkpt>
      <trkpt lat="46.6709" lon="5.95218">
        <ele>787.7</ele>
        <time>2021-02-21T15:05:09Z</time>
      </trkpt>
      <trkpt lat="46.67085" lon="5.95221">
        <ele>786.8</ele>
        <time>2021-02-21T15:05:13Z</time>
      </trkpt>
      <trkpt lat="46.67081" lon="5.95225">
        <ele>784.2</ele>
        <time>2021-02-21T15:05:24Z</time>
      </trkpt>
      <trkpt lat="46.67077" lon="5.95223">
        <ele>782.7</ele>
        <time>2021-02-21T15:05:34Z</time>
      </trkpt>
      <trkpt lat="46.67072" lon="5.95225">
        <ele>781.8</ele>
        <time>2021-02-21T15:05:47Z</time>
      </trkpt>
      <trkpt lat="46.67066" lon="5.95226">
        <ele>780.5</ele>
        <time>2021-02-21T15:05:54Z</time>
      </trkpt>
      <trkpt lat="46.67061" lon="5.95226">
        <ele>779.6</ele>
        <time>2021-02-21T15:05:58Z</time>
      </trkpt>
      <trkpt lat="46.67056" lon="5.95226">
        <ele>779</ele>
        <time>2021-02-21T15:06:02Z</time>
      </trkpt>
      <trkpt lat="46.67051" lon="5.95229">
        <ele>778.6</ele>
        <time>2021-02-21T15:06:06Z</time>
      </trkpt>
      <trkpt lat="46.67047" lon="5.95232">
        <ele>777.2</ele>
        <time>2021-02-21T15:06:13Z</time>
      </trkpt>
      <trkpt lat="46.67042" lon="5.95235">
        <ele>774.8</ele>
        <time>2021-02-21T15:06:21Z</time>
      </trkpt>
      <trkpt lat="46.67038" lon="5.95234">
        <ele>772.7</ele>
        <time>2021-02-21T15:06:28Z</time>
      </trkpt>
      <trkpt lat="46.67033" lon="5.95235">
        <ele>771.3</ele>
        <time>2021-02-21T15:06:35Z</time>
      </trkpt>
      <trkpt lat="46.67028" lon="5.95236">
        <ele>769.8</ele>
        <time>2021-02-21T15:06:42Z</time>
      </trkpt>
      <trkpt lat="46.67023" lon="5.95236">
        <ele>768.6</ele>
        <time>2021-02-21T15:06:49Z</time>
      </trkpt>
      <trkpt lat="46.67018" lon="5.95234">
        <ele>767.5</ele>
        <time>2021-02-21T15:06:56Z</time>
      </trkpt>
      <trkpt lat="46.67013" lon="5.95233">
        <ele>766.7</ele>
        <time>2021-02-21T15:07:02Z</time>
      </trkpt>
      <trkpt lat="46.67008" lon="5.95233">
        <ele>766.6</ele>
        <time>2021-02-21T15:07:07Z</time>
      </trkpt>
      <trkpt lat="46.67004" lon="5.95231">
        <ele>766.7</ele>
        <time>2021-02-21T15:07:11Z</time>
      </trkpt>
      <trkpt lat="46.66999" lon="5.95228">
        <ele>766.8</ele>
        <time>2021-02-21T15:07:18Z</time>
      </trkpt>
      <trkpt lat="46.66994" lon="5.95226">
        <ele>766.3</ele>
        <time>2021-02-21T15:07:27Z</time>
      </trkpt>
      <trkpt lat="46.66991" lon="5.95219">
        <ele>765.9</ele>
        <time>2021-02-21T15:07:34Z</time>
      </trkpt>
      <trkpt lat="46.66988" lon="5.95214">
        <ele>765.7</ele>
        <time>2021-02-21T15:07:38Z</time>
      </trkpt>
      <trkpt lat="46.66988" lon="5.95207">
        <ele>765.2</ele>
        <time>2021-02-21T15:07:44Z</time>
      </trkpt>
      <trkpt lat="46.66987" lon="5.952">
        <ele>763.6</ele>
        <time>2021-02-21T15:07:48Z</time>
      </trkpt>
      <trkpt lat="46.66987" lon="5.95193">
        <ele>761</ele>
        <time>2021-02-21T15:07:52Z</time>
      </trkpt>
      <trkpt lat="46.66989" lon="5.95185">
        <ele>758.8</ele>
        <time>2021-02-21T15:07:57Z</time>
      </trkpt>
      <trkpt lat="46.66991" lon="5.95179">
        <ele>757.3</ele>
        <time>2021-02-21T15:08:02Z</time>
      </trkpt>
      <trkpt lat="46.66994" lon="5.95173">
        <ele>757.5</ele>
        <time>2021-02-21T15:08:21Z</time>
      </trkpt>
      <trkpt lat="46.66992" lon="5.95167">
        <ele>757.4</ele>
        <time>2021-02-21T15:08:37Z</time>
      </trkpt>
      <trkpt lat="46.66988" lon="5.95166">
        <ele>757.9</ele>
        <time>2021-02-21T15:08:46Z</time>
      </trkpt>
      <trkpt lat="46.66983" lon="5.95168">
        <ele>757.1</ele>
        <time>2021-02-21T15:08:52Z</time>
      </trkpt>
      <trkpt lat="46.66978" lon="5.9517">
        <ele>754.8</ele>
        <time>2021-02-21T15:08:57Z</time>
      </trkpt>
      <trkpt lat="46.66974" lon="5.95173">
        <ele>752.4</ele>
        <time>2021-02-21T15:09:02Z</time>
      </trkpt>
      <trkpt lat="46.6697" lon="5.95177">
        <ele>749.9</ele>
        <time>2021-02-21T15:09:12Z</time>
      </trkpt>
      <trkpt lat="46.66965" lon="5.95178">
        <ele>749</ele>
        <time>2021-02-21T15:09:19Z</time>
      </trkpt>
      <trkpt lat="46.66961" lon="5.95182">
        <ele>751.2</ele>
        <time>2021-02-21T15:09:28Z</time>
      </trkpt>
      <trkpt lat="46.66959" lon="5.95188">
        <ele>755</ele>
        <time>2021-02-21T15:09:31Z</time>
      </trkpt>
      <trkpt lat="46.66956" lon="5.95194">
        <ele>757.8</ele>
        <time>2021-02-21T15:09:33Z</time>
      </trkpt>
      <trkpt lat="46.66954" lon="5.95201">
        <ele>760.9</ele>
        <time>2021-02-21T15:09:36Z</time>
      </trkpt>
      <trkpt lat="46.66951" lon="5.95207">
        <ele>762.6</ele>
        <time>2021-02-21T15:09:39Z</time>
      </trkpt>
      <trkpt lat="46.66947" lon="5.95212">
        <ele>764.3</ele>
        <time>2021-02-21T15:09:44Z</time>
      </trkpt>
      <trkpt lat="46.66943" lon="5.95217">
        <ele>765.6</ele>
        <time>2021-02-21T15:09:49Z</time>
      </trkpt>
      <trkpt lat="46.66941" lon="5.95225">
        <ele>768.2</ele>
        <time>2021-02-21T15:09:54Z</time>
      </trkpt>
      <trkpt lat="46.66939" lon="5.95231">
        <ele>771</ele>
        <time>2021-02-21T15:09:59Z</time>
      </trkpt>
      <trkpt lat="46.66935" lon="5.95236">
        <ele>775</ele>
        <time>2021-02-21T15:10:05Z</time>
      </trkpt>
      <trkpt lat="46.6693" lon="5.95239">
        <ele>777.3</ele>
        <time>2021-02-21T15:10:09Z</time>
      </trkpt>
      <trkpt lat="46.66925" lon="5.95241">
        <ele>777.9</ele>
        <time>2021-02-21T15:10:12Z</time>
      </trkpt>
      <trkpt lat="46.6692" lon="5.95244">
        <ele>778.6</ele>
        <time>2021-02-21T15:10:16Z</time>
      </trkpt>
      <trkpt lat="46.66916" lon="5.95249">
        <ele>781.4</ele>
        <time>2021-02-21T15:10:22Z</time>
      </trkpt>
      <trkpt lat="46.66912" lon="5.95253">
        <ele>785.2</ele>
        <time>2021-02-21T15:10:29Z</time>
      </trkpt>
      <trkpt lat="46.66908" lon="5.95257">
        <ele>787.7</ele>
        <time>2021-02-21T15:10:35Z</time>
      </trkpt>
      <trkpt lat="46.66904" lon="5.95262">
        <ele>790.1</ele>
        <time>2021-02-21T15:10:41Z</time>
      </trkpt>
      <trkpt lat="46.669" lon="5.95267">
        <ele>792.1</ele>
        <time>2021-02-21T15:10:46Z</time>
      </trkpt>
      <trkpt lat="46.66896" lon="5.95272">
        <ele>793.5</ele>
        <time>2021-02-21T15:10:50Z</time>
      </trkpt>
      <trkpt lat="46.66892" lon="5.95276">
        <ele>791.7</ele>
        <time>2021-02-21T15:10:55Z</time>
      </trkpt>
      <trkpt lat="46.6689" lon="5.95283">
        <ele>792.2</ele>
        <time>2021-02-21T15:11:01Z</time>
      </trkpt>
      <trkpt lat="46.66887" lon="5.95289">
        <ele>789.7</ele>
        <time>2021-02-21T15:11:06Z</time>
      </trkpt>
      <trkpt lat="46.66881" lon="5.95292">
        <ele>788.3</ele>
        <time>2021-02-21T15:11:12Z</time>
      </trkpt>
      <trkpt lat="46.66876" lon="5.95294">
        <ele>785.5</ele>
        <time>2021-02-21T15:11:15Z</time>
      </trkpt>
      <trkpt lat="46.66871" lon="5.95296">
        <ele>782.4</ele>
        <time>2021-02-21T15:11:19Z</time>
      </trkpt>
      <trkpt lat="46.66866" lon="5.95299">
        <ele>778.6</ele>
        <time>2021-02-21T15:11:23Z</time>
      </trkpt>
      <trkpt lat="46.66861" lon="5.953">
        <ele>774.3</ele>
        <time>2021-02-21T15:11:27Z</time>
      </trkpt>
      <trkpt lat="46.66856" lon="5.95301">
        <ele>770.7</ele>
        <time>2021-02-21T15:11:31Z</time>
      </trkpt>
      <trkpt lat="46.66851" lon="5.95301">
        <ele>767.8</ele>
        <time>2021-02-21T15:11:36Z</time>
      </trkpt>
      <trkpt lat="46.66846" lon="5.95302">
        <ele>765.7</ele>
        <time>2021-02-21T15:11:39Z</time>
      </trkpt>
      <trkpt lat="46.66841" lon="5.95303">
        <ele>763.5</ele>
        <time>2021-02-21T15:11:42Z</time>
      </trkpt>
      <trkpt lat="46.66836" lon="5.95305">
        <ele>760.9</ele>
        <time>2021-02-21T15:11:46Z</time>
      </trkpt>
      <trkpt lat="46.66831" lon="5.95307">
        <ele>758.6</ele>
        <time>2021-02-21T15:11:51Z</time>
      </trkpt>
      <trkpt lat="46.66826" lon="5.95308">
        <ele>756.7</ele>
        <time>2021-02-21T15:11:55Z</time>
      </trkpt>
      <trkpt lat="46.66821" lon="5.95312">
        <ele>755</ele>
        <time>2021-02-21T15:12:00Z</time>
      </trkpt>
      <trkpt lat="46.66816" lon="5.95315">
        <ele>753.9</ele>
        <time>2021-02-21T15:12:04Z</time>
      </trkpt>
      <trkpt lat="46.66812" lon="5.95318">
        <ele>752.7</ele>
        <time>2021-02-21T15:12:09Z</time>
      </trkpt>
      <trkpt lat="46.66807" lon="5.95322">
        <ele>751.6</ele>
        <time>2021-02-21T15:12:14Z</time>
      </trkpt>
      <trkpt lat="46.66802" lon="5.95325">
        <ele>750.5</ele>
        <time>2021-02-21T15:12:19Z</time>
      </trkpt>
      <trkpt lat="46.66797" lon="5.95328">
        <ele>748.9</ele>
        <time>2021-02-21T15:12:24Z</time>
      </trkpt>
      <trkpt lat="46.66792" lon="5.9533">
        <ele>747.1</ele>
        <time>2021-02-21T15:12:29Z</time>
      </trkpt>
      <trkpt lat="46.66788" lon="5.95334">
        <ele>744.8</ele>
        <time>2021-02-21T15:12:35Z</time>
      </trkpt>
      <trkpt lat="46.66785" lon="5.9534">
        <ele>743.5</ele>
        <time>2021-02-21T15:12:41Z</time>
      </trkpt>
      <trkpt lat="46.66781" lon="5.95345">
        <ele>742.8</ele>
        <time>2021-02-21T15:12:47Z</time>
      </trkpt>
      <trkpt lat="46.66776" lon="5.95351">
        <ele>742.5</ele>
        <time>2021-02-21T15:12:52Z</time>
      </trkpt>
      <trkpt lat="46.66772" lon="5.95355">
        <ele>742.5</ele>
        <time>2021-02-21T15:12:55Z</time>
      </trkpt>
      <trkpt lat="46.66768" lon="5.9536">
        <ele>742.1</ele>
        <time>2021-02-21T15:12:59Z</time>
      </trkpt>
      <trkpt lat="46.66764" lon="5.95364">
        <ele>741.4</ele>
        <time>2021-02-21T15:13:04Z</time>
      </trkpt>
      <trkpt lat="46.66761" lon="5.9537">
        <ele>741.1</ele>
        <time>2021-02-21T15:13:08Z</time>
      </trkpt>
      <trkpt lat="46.66756" lon="5.95374">
        <ele>740.9</ele>
        <time>2021-02-21T15:13:11Z</time>
      </trkpt>
      <trkpt lat="46.66752" lon="5.95378">
        <ele>740.9</ele>
        <time>2021-02-21T15:13:15Z</time>
      </trkpt>
      <trkpt lat="46.66748" lon="5.95383">
        <ele>740.4</ele>
        <time>2021-02-21T15:13:20Z</time>
      </trkpt>
      <trkpt lat="46.66745" lon="5.95388">
        <ele>740.5</ele>
        <time>2021-02-21T15:13:24Z</time>
      </trkpt>
      <trkpt lat="46.66741" lon="5.95392">
        <ele>740.5</ele>
        <time>2021-02-21T15:13:29Z</time>
      </trkpt>
      <trkpt lat="46.66738" lon="5.95397">
        <ele>740.8</ele>
        <time>2021-02-21T15:13:34Z</time>
      </trkpt>
      <trkpt lat="46.66734" lon="5.95402">
        <ele>740.8</ele>
        <time>2021-02-21T15:13:40Z</time>
      </trkpt>
      <trkpt lat="46.6673" lon="5.95406">
        <ele>740.7</ele>
        <time>2021-02-21T15:13:45Z</time>
      </trkpt>
      <trkpt lat="46.66726" lon="5.95408">
        <ele>740.6</ele>
        <time>2021-02-21T15:13:50Z</time>
      </trkpt>
      <trkpt lat="46.66722" lon="5.95411">
        <ele>741.2</ele>
        <time>2021-02-21T15:13:55Z</time>
      </trkpt>
      <trkpt lat="46.66717" lon="5.9541">
        <ele>742.1</ele>
        <time>2021-02-21T15:14:00Z</time>
      </trkpt>
      <trkpt lat="46.66713" lon="5.95405">
        <ele>742.9</ele>
        <time>2021-02-21T15:14:06Z</time>
      </trkpt>
      <trkpt lat="46.6671" lon="5.95401">
        <ele>743</ele>
        <time>2021-02-21T15:14:16Z</time>
      </trkpt>
      <trkpt lat="46.66708" lon="5.95394">
        <ele>743.5</ele>
        <time>2021-02-21T15:14:57Z</time>
      </trkpt>
      <trkpt lat="46.66705" lon="5.95387">
        <ele>743.9</ele>
        <time>2021-02-21T15:15:01Z</time>
      </trkpt>
      <trkpt lat="46.66703" lon="5.95382">
        <ele>744.2</ele>
        <time>2021-02-21T15:15:05Z</time>
      </trkpt>
      <trkpt lat="46.667" lon="5.95376">
        <ele>744.5</ele>
        <time>2021-02-21T15:15:09Z</time>
      </trkpt>
      <trkpt lat="46.66698" lon="5.9537">
        <ele>744.8</ele>
        <time>2021-02-21T15:15:13Z</time>
      </trkpt>
      <trkpt lat="46.66696" lon="5.95364">
        <ele>744.4</ele>
        <time>2021-02-21T15:15:17Z</time>
      </trkpt>
      <trkpt lat="46.66693" lon="5.95357">
        <ele>743.4</ele>
        <time>2021-02-21T15:15:22Z</time>
      </trkpt>
      <trkpt lat="46.66691" lon="5.95351">
        <ele>742.5</ele>
        <time>2021-02-21T15:15:26Z</time>
      </trkpt>
      <trkpt lat="46.66688" lon="5.95344">
        <ele>741.6</ele>
        <time>2021-02-21T15:15:31Z</time>
      </trkpt>
      <trkpt lat="46.66685" lon="5.95339">
        <ele>741.4</ele>
        <time>2021-02-21T15:15:35Z</time>
      </trkpt>
      <trkpt lat="46.66681" lon="5.95334">
        <ele>741.1</ele>
        <time>2021-02-21T15:15:39Z</time>
      </trkpt>
      <trkpt lat="46.66679" lon="5.95329">
        <ele>741.2</ele>
        <time>2021-02-21T15:15:43Z</time>
      </trkpt>
      <trkpt lat="46.66676" lon="5.95323">
        <ele>741.2</ele>
        <time>2021-02-21T15:15:47Z</time>
      </trkpt>
      <trkpt lat="46.66674" lon="5.95317">
        <ele>741.1</ele>
        <time>2021-02-21T15:15:54Z</time>
      </trkpt>
      <trkpt lat="46.6667" lon="5.95311">
        <ele>741.3</ele>
        <time>2021-02-21T15:15:59Z</time>
      </trkpt>
      <trkpt lat="46.66667" lon="5.95306">
        <ele>741.9</ele>
        <time>2021-02-21T15:16:03Z</time>
      </trkpt>
      <trkpt lat="46.66663" lon="5.953">
        <ele>742.3</ele>
        <time>2021-02-21T15:16:07Z</time>
      </trkpt>
      <trkpt lat="46.66661" lon="5.95294">
        <ele>742.3</ele>
        <time>2021-02-21T15:16:11Z</time>
      </trkpt>
      <trkpt lat="46.6666" lon="5.95287">
        <ele>742.2</ele>
        <time>2021-02-21T15:16:15Z</time>
      </trkpt>
      <trkpt lat="46.66659" lon="5.9528">
        <ele>742</ele>
        <time>2021-02-21T15:16:19Z</time>
      </trkpt>
      <trkpt lat="46.66657" lon="5.95274">
        <ele>741.8</ele>
        <time>2021-02-21T15:16:23Z</time>
      </trkpt>
      <trkpt lat="46.66654" lon="5.95267">
        <ele>741.7</ele>
        <time>2021-02-21T15:16:28Z</time>
      </trkpt>
      <trkpt lat="46.66653" lon="5.9526">
        <ele>741.1</ele>
        <time>2021-02-21T15:16:33Z</time>
      </trkpt>
      <trkpt lat="46.66649" lon="5.95254">
        <ele>740.2</ele>
        <time>2021-02-21T15:16:38Z</time>
      </trkpt>
      <trkpt lat="46.66647" lon="5.95248">
        <ele>739.9</ele>
        <time>2021-02-21T15:16:42Z</time>
      </trkpt>
      <trkpt lat="46.66644" lon="5.95241">
        <ele>740</ele>
        <time>2021-02-21T15:16:47Z</time>
      </trkpt>
      <trkpt lat="46.66641" lon="5.95235">
        <ele>740.4</ele>
        <time>2021-02-21T15:16:51Z</time>
      </trkpt>
      <trkpt lat="46.66638" lon="5.9523">
        <ele>741.1</ele>
        <time>2021-02-21T15:16:55Z</time>
      </trkpt>
      <trkpt lat="46.66633" lon="5.95225">
        <ele>741.7</ele>
        <time>2021-02-21T15:16:59Z</time>
      </trkpt>
      <trkpt lat="46.6663" lon="5.95221">
        <ele>742</ele>
        <time>2021-02-21T15:17:03Z</time>
      </trkpt>
      <trkpt lat="46.66626" lon="5.95216">
        <ele>742.2</ele>
        <time>2021-02-21T15:17:07Z</time>
      </trkpt>
      <trkpt lat="46.66621" lon="5.95211">
        <ele>742.6</ele>
        <time>2021-02-21T15:17:11Z</time>
      </trkpt>
      <trkpt lat="46.66618" lon="5.95207">
        <ele>743</ele>
        <time>2021-02-21T15:17:15Z</time>
      </trkpt>
      <trkpt lat="46.66614" lon="5.95201">
        <ele>743</ele>
        <time>2021-02-21T15:17:20Z</time>
      </trkpt>
      <trkpt lat="46.66611" lon="5.95196">
        <ele>742.9</ele>
        <time>2021-02-21T15:17:24Z</time>
      </trkpt>
      <trkpt lat="46.66608" lon="5.95191">
        <ele>742.8</ele>
        <time>2021-02-21T15:17:28Z</time>
      </trkpt>
      <trkpt lat="46.66607" lon="5.95183">
        <ele>742.9</ele>
        <time>2021-02-21T15:17:33Z</time>
      </trkpt>
      <trkpt lat="46.66604" lon="5.95176">
        <ele>742.9</ele>
        <time>2021-02-21T15:17:38Z</time>
      </trkpt>
      <trkpt lat="46.66602" lon="5.95169">
        <ele>742.9</ele>
        <time>2021-02-21T15:17:42Z</time>
      </trkpt>
      <trkpt lat="46.66599" lon="5.95163">
        <ele>742.5</ele>
        <time>2021-02-21T15:17:47Z</time>
      </trkpt>
      <trkpt lat="46.66596" lon="5.95156">
        <ele>742</ele>
        <time>2021-02-21T15:17:53Z</time>
      </trkpt>
      <trkpt lat="46.66594" lon="5.95151">
        <ele>740.9</ele>
        <time>2021-02-21T15:17:57Z</time>
      </trkpt>
      <trkpt lat="46.66591" lon="5.95144">
        <ele>739.9</ele>
        <time>2021-02-21T15:18:01Z</time>
      </trkpt>
      <trkpt lat="46.66588" lon="5.95139">
        <ele>739.3</ele>
        <time>2021-02-21T15:18:05Z</time>
      </trkpt>
      <trkpt lat="46.66585" lon="5.95134">
        <ele>739.1</ele>
        <time>2021-02-21T15:18:09Z</time>
      </trkpt>
      <trkpt lat="46.66581" lon="5.95129">
        <ele>739</ele>
        <time>2021-02-21T15:18:13Z</time>
      </trkpt>
      <trkpt lat="46.66578" lon="5.95122">
        <ele>738.7</ele>
        <time>2021-02-21T15:18:17Z</time>
      </trkpt>
      <trkpt lat="46.66575" lon="5.95115">
        <ele>738.2</ele>
        <time>2021-02-21T15:18:21Z</time>
      </trkpt>
      <trkpt lat="46.6657" lon="5.9511">
        <ele>738</ele>
        <time>2021-02-21T15:18:25Z</time>
      </trkpt>
      <trkpt lat="46.66566" lon="5.95105">
        <ele>737.7</ele>
        <time>2021-02-21T15:18:28Z</time>
      </trkpt>
      <trkpt lat="46.66565" lon="5.95099">
        <ele>737.3</ele>
        <time>2021-02-21T15:18:32Z</time>
      </trkpt>
      <trkpt lat="46.66564" lon="5.95091">
        <ele>736.7</ele>
        <time>2021-02-21T15:18:37Z</time>
      </trkpt>
      <trkpt lat="46.66562" lon="5.95084">
        <ele>736</ele>
        <time>2021-02-21T15:18:42Z</time>
      </trkpt>
      <trkpt lat="46.6656" lon="5.95076">
        <ele>736</ele>
        <time>2021-02-21T15:18:47Z</time>
      </trkpt>
      <trkpt lat="46.6656" lon="5.95069">
        <ele>736</ele>
        <time>2021-02-21T15:18:51Z</time>
      </trkpt>
      <trkpt lat="46.66558" lon="5.95062">
        <ele>735.9</ele>
        <time>2021-02-21T15:18:56Z</time>
      </trkpt>
      <trkpt lat="46.66556" lon="5.95055">
        <ele>735.5</ele>
        <time>2021-02-21T15:19:01Z</time>
      </trkpt>
      <trkpt lat="46.66554" lon="5.95047">
        <ele>735.5</ele>
        <time>2021-02-21T15:19:06Z</time>
      </trkpt>
      <trkpt lat="46.66553" lon="5.95041">
        <ele>735.8</ele>
        <time>2021-02-21T15:19:10Z</time>
      </trkpt>
      <trkpt lat="46.66553" lon="5.95032">
        <ele>736.2</ele>
        <time>2021-02-21T15:19:15Z</time>
      </trkpt>
      <trkpt lat="46.66552" lon="5.95025">
        <ele>736.6</ele>
        <time>2021-02-21T15:19:19Z</time>
      </trkpt>
      <trkpt lat="46.66551" lon="5.95018">
        <ele>736.6</ele>
        <time>2021-02-21T15:19:23Z</time>
      </trkpt>
      <trkpt lat="46.66551" lon="5.95011">
        <ele>736.5</ele>
        <time>2021-02-21T15:19:28Z</time>
      </trkpt>
      <trkpt lat="46.66551" lon="5.95004">
        <ele>736</ele>
        <time>2021-02-21T15:19:33Z</time>
      </trkpt>
      <trkpt lat="46.66552" lon="5.94996">
        <ele>735.3</ele>
        <time>2021-02-21T15:19:37Z</time>
      </trkpt>
      <trkpt lat="46.66554" lon="5.9499">
        <ele>734.8</ele>
        <time>2021-02-21T15:19:41Z</time>
      </trkpt>
      <trkpt lat="46.66555" lon="5.94983">
        <ele>734.4</ele>
        <time>2021-02-21T15:19:46Z</time>
      </trkpt>
      <trkpt lat="46.66558" lon="5.94977">
        <ele>733.9</ele>
        <time>2021-02-21T15:19:50Z</time>
      </trkpt>
      <trkpt lat="46.66559" lon="5.9497">
        <ele>732.6</ele>
        <time>2021-02-21T15:19:55Z</time>
      </trkpt>
      <trkpt lat="46.66561" lon="5.94962">
        <ele>730.5</ele>
        <time>2021-02-21T15:20:01Z</time>
      </trkpt>
      <trkpt lat="46.66561" lon="5.94955">
        <ele>729.6</ele>
        <time>2021-02-21T15:20:05Z</time>
      </trkpt>
      <trkpt lat="46.66562" lon="5.94948">
        <ele>729</ele>
        <time>2021-02-21T15:20:09Z</time>
      </trkpt>
      <trkpt lat="46.66563" lon="5.9494">
        <ele>728.6</ele>
        <time>2021-02-21T15:20:14Z</time>
      </trkpt>
      <trkpt lat="46.66563" lon="5.94932">
        <ele>728.2</ele>
        <time>2021-02-21T15:20:19Z</time>
      </trkpt>
      <trkpt lat="46.66564" lon="5.94926">
        <ele>728.1</ele>
        <time>2021-02-21T15:20:23Z</time>
      </trkpt>
      <trkpt lat="46.66565" lon="5.94919">
        <ele>728.6</ele>
        <time>2021-02-21T15:20:27Z</time>
      </trkpt>
      <trkpt lat="46.66566" lon="5.94911">
        <ele>728.6</ele>
        <time>2021-02-21T15:20:30Z</time>
      </trkpt>
      <trkpt lat="46.66566" lon="5.94905">
        <ele>729.4</ele>
        <time>2021-02-21T15:20:33Z</time>
      </trkpt>
      <trkpt lat="46.66567" lon="5.94898">
        <ele>732.2</ele>
        <time>2021-02-21T15:20:50Z</time>
      </trkpt>
      <trkpt lat="46.66567" lon="5.94891">
        <ele>733.1</ele>
        <time>2021-02-21T15:21:03Z</time>
      </trkpt>
      <trkpt lat="46.66569" lon="5.94884">
        <ele>732.9</ele>
        <time>2021-02-21T15:21:08Z</time>
      </trkpt>
      <trkpt lat="46.6657" lon="5.94877">
        <ele>732.5</ele>
        <time>2021-02-21T15:21:13Z</time>
      </trkpt>
      <trkpt lat="46.66574" lon="5.94872">
        <ele>733.7</ele>
        <time>2021-02-21T15:21:18Z</time>
      </trkpt>
      <trkpt lat="46.66579" lon="5.94868">
        <ele>735.3</ele>
        <time>2021-02-21T15:21:22Z</time>
      </trkpt>
      <trkpt lat="46.66584" lon="5.94864">
        <ele>737.2</ele>
        <time>2021-02-21T15:21:27Z</time>
      </trkpt>
      <trkpt lat="46.66588" lon="5.94861">
        <ele>736.5</ele>
        <time>2021-02-21T15:21:33Z</time>
      </trkpt>
      <trkpt lat="46.66592" lon="5.94857">
        <ele>736</ele>
        <time>2021-02-21T15:21:37Z</time>
      </trkpt>
      <trkpt lat="46.66596" lon="5.94854">
        <ele>735.5</ele>
        <time>2021-02-21T15:21:42Z</time>
      </trkpt>
      <trkpt lat="46.666" lon="5.94853">
        <ele>736.3</ele>
        <time>2021-02-21T15:21:53Z</time>
      </trkpt>
      <trkpt lat="46.66605" lon="5.94853">
        <ele>737.2</ele>
        <time>2021-02-21T15:22:09Z</time>
      </trkpt>
      <trkpt lat="46.66605" lon="5.94846">
        <ele>738.4</ele>
        <time>2021-02-21T15:22:47Z</time>
      </trkpt>
      <trkpt lat="46.6661" lon="5.94845">
        <ele>737.4</ele>
        <time>2021-02-21T15:22:57Z</time>
      </trkpt>
      <trkpt lat="46.66614" lon="5.94842">
        <ele>737</ele>
        <time>2021-02-21T15:23:01Z</time>
      </trkpt>
      <trkpt lat="46.66617" lon="5.94837">
        <ele>736.8</ele>
        <time>2021-02-21T15:23:05Z</time>
      </trkpt>
      <trkpt lat="46.66621" lon="5.94832">
        <ele>736.3</ele>
        <time>2021-02-21T15:23:10Z</time>
      </trkpt>
      <trkpt lat="46.66625" lon="5.94826">
        <ele>736.3</ele>
        <time>2021-02-21T15:23:15Z</time>
      </trkpt>
      <trkpt lat="46.66623" lon="5.94813">
        <ele>738.7</ele>
        <time>2021-02-21T15:23:17Z</time>
      </trkpt>
      <trkpt lat="46.66622" lon="5.94805">
        <ele>740</ele>
        <time>2021-02-21T15:23:19Z</time>
      </trkpt>
      <trkpt lat="46.66623" lon="5.94797">
        <ele>742.2</ele>
        <time>2021-02-21T15:23:22Z</time>
      </trkpt>
      <trkpt lat="46.66625" lon="5.94791">
        <ele>745</ele>
        <time>2021-02-21T15:23:27Z</time>
      </trkpt>
      <trkpt lat="46.6663" lon="5.94792">
        <ele>746.4</ele>
        <time>2021-02-21T15:23:31Z</time>
      </trkpt>
      <trkpt lat="46.6663" lon="5.94779">
        <ele>750.6</ele>
        <time>2021-02-21T15:23:34Z</time>
      </trkpt>
      <trkpt lat="46.6663" lon="5.94771">
        <ele>752.9</ele>
        <time>2021-02-21T15:23:36Z</time>
      </trkpt>
      <trkpt lat="46.66631" lon="5.94764">
        <ele>757.7</ele>
        <time>2021-02-21T15:23:40Z</time>
      </trkpt>
      <trkpt lat="46.66636" lon="5.94761">
        <ele>765.1</ele>
        <time>2021-02-21T15:23:51Z</time>
      </trkpt>
      <trkpt lat="46.66641" lon="5.94761">
        <ele>766.1</ele>
        <time>2021-02-21T15:23:54Z</time>
      </trkpt>
      <trkpt lat="46.66646" lon="5.94761">
        <ele>765.7</ele>
        <time>2021-02-21T15:23:56Z</time>
      </trkpt>
      <trkpt lat="46.66652" lon="5.94759">
        <ele>765.2</ele>
        <time>2021-02-21T15:23:59Z</time>
      </trkpt>
      <trkpt lat="46.66658" lon="5.94757">
        <ele>764.4</ele>
        <time>2021-02-21T15:24:03Z</time>
      </trkpt>
      <trkpt lat="46.66663" lon="5.94753">
        <ele>763.1</ele>
        <time>2021-02-21T15:24:08Z</time>
      </trkpt>
      <trkpt lat="46.66667" lon="5.94749">
        <ele>761.8</ele>
        <time>2021-02-21T15:24:12Z</time>
      </trkpt>
      <trkpt lat="46.66672" lon="5.94747">
        <ele>758.4</ele>
        <time>2021-02-21T15:24:17Z</time>
      </trkpt>
      <trkpt lat="46.66676" lon="5.94741">
        <ele>754.5</ele>
        <time>2021-02-21T15:24:22Z</time>
      </trkpt>
      <trkpt lat="46.6668" lon="5.94737">
        <ele>751.1</ele>
        <time>2021-02-21T15:24:26Z</time>
      </trkpt>
      <trkpt lat="46.66685" lon="5.94733">
        <ele>746.4</ele>
        <time>2021-02-21T15:24:32Z</time>
      </trkpt>
      <trkpt lat="46.66689" lon="5.9473">
        <ele>742</ele>
        <time>2021-02-21T15:24:38Z</time>
      </trkpt>
      <trkpt lat="46.66694" lon="5.94726">
        <ele>739</ele>
        <time>2021-02-21T15:24:43Z</time>
      </trkpt>
      <trkpt lat="46.66698" lon="5.94723">
        <ele>737.4</ele>
        <time>2021-02-21T15:24:47Z</time>
      </trkpt>
      <trkpt lat="46.66701" lon="5.94716">
        <ele>736.5</ele>
        <time>2021-02-21T15:24:51Z</time>
      </trkpt>
      <trkpt lat="46.66701" lon="5.94709">
        <ele>735.1</ele>
        <time>2021-02-21T15:24:56Z</time>
      </trkpt>
      <trkpt lat="46.66703" lon="5.94703">
        <ele>733.2</ele>
        <time>2021-02-21T15:25:02Z</time>
      </trkpt>
      <trkpt lat="46.66707" lon="5.94697">
        <ele>730.9</ele>
        <time>2021-02-21T15:25:09Z</time>
      </trkpt>
      <trkpt lat="46.66709" lon="5.94691">
        <ele>730.4</ele>
        <time>2021-02-21T15:25:14Z</time>
      </trkpt>
      <trkpt lat="46.66714" lon="5.94687">
        <ele>728</ele>
        <time>2021-02-21T15:25:22Z</time>
      </trkpt>
      <trkpt lat="46.66719" lon="5.94684">
        <ele>726.3</ele>
        <time>2021-02-21T15:25:27Z</time>
      </trkpt>
      <trkpt lat="46.66724" lon="5.94681">
        <ele>724.9</ele>
        <time>2021-02-21T15:25:31Z</time>
      </trkpt>
      <trkpt lat="46.66728" lon="5.94678">
        <ele>723</ele>
        <time>2021-02-21T15:25:36Z</time>
      </trkpt>
      <trkpt lat="46.66732" lon="5.94673">
        <ele>720.9</ele>
        <time>2021-02-21T15:25:41Z</time>
      </trkpt>
      <trkpt lat="46.66736" lon="5.94669">
        <ele>719.3</ele>
        <time>2021-02-21T15:25:45Z</time>
      </trkpt>
      <trkpt lat="46.66738" lon="5.94662">
        <ele>718.8</ele>
        <time>2021-02-21T15:25:49Z</time>
      </trkpt>
      <trkpt lat="46.66742" lon="5.94656">
        <ele>718</ele>
        <time>2021-02-21T15:25:53Z</time>
      </trkpt>
      <trkpt lat="46.66744" lon="5.9465">
        <ele>717.1</ele>
        <time>2021-02-21T15:25:57Z</time>
      </trkpt>
      <trkpt lat="46.66748" lon="5.94645">
        <ele>715.8</ele>
        <time>2021-02-21T15:26:02Z</time>
      </trkpt>
      <trkpt lat="46.66751" lon="5.94638">
        <ele>716</ele>
        <time>2021-02-21T15:26:06Z</time>
      </trkpt>
      <trkpt lat="46.66755" lon="5.94633">
        <ele>715.5</ele>
        <time>2021-02-21T15:26:11Z</time>
      </trkpt>
      <trkpt lat="46.66758" lon="5.94627">
        <ele>715.2</ele>
        <time>2021-02-21T15:26:16Z</time>
      </trkpt>
      <trkpt lat="46.66758" lon="5.94619">
        <ele>715</ele>
        <time>2021-02-21T15:26:20Z</time>
      </trkpt>
      <trkpt lat="46.6676" lon="5.94612">
        <ele>714</ele>
        <time>2021-02-21T15:26:26Z</time>
      </trkpt>
      <trkpt lat="46.66764" lon="5.94608">
        <ele>712.3</ele>
        <time>2021-02-21T15:26:31Z</time>
      </trkpt>
      <trkpt lat="46.66769" lon="5.94605">
        <ele>710.7</ele>
        <time>2021-02-21T15:26:35Z</time>
      </trkpt>
      <trkpt lat="46.6677" lon="5.94598">
        <ele>711.2</ele>
        <time>2021-02-21T15:26:38Z</time>
      </trkpt>
      <trkpt lat="46.66771" lon="5.94592">
        <ele>712.2</ele>
        <time>2021-02-21T15:26:41Z</time>
      </trkpt>
      <trkpt lat="46.66775" lon="5.94586">
        <ele>712.9</ele>
        <time>2021-02-21T15:26:45Z</time>
      </trkpt>
      <trkpt lat="46.66779" lon="5.94583">
        <ele>712.7</ele>
        <time>2021-02-21T15:26:50Z</time>
      </trkpt>
      <trkpt lat="46.66784" lon="5.94579">
        <ele>712.6</ele>
        <time>2021-02-21T15:26:54Z</time>
      </trkpt>
      <trkpt lat="46.66787" lon="5.94572">
        <ele>712.4</ele>
        <time>2021-02-21T15:26:58Z</time>
      </trkpt>
      <trkpt lat="46.66792" lon="5.94568">
        <ele>711.5</ele>
        <time>2021-02-21T15:27:03Z</time>
      </trkpt>
      <trkpt lat="46.66796" lon="5.94566">
        <ele>709.5</ele>
        <time>2021-02-21T15:27:09Z</time>
      </trkpt>
      <trkpt lat="46.668" lon="5.94562">
        <ele>707.5</ele>
        <time>2021-02-21T15:27:15Z</time>
      </trkpt>
      <trkpt lat="46.668" lon="5.94554">
        <ele>707.4</ele>
        <time>2021-02-21T15:27:19Z</time>
      </trkpt>
      <trkpt lat="46.668" lon="5.94547">
        <ele>707.5</ele>
        <time>2021-02-21T15:27:22Z</time>
      </trkpt>
      <trkpt lat="46.66802" lon="5.94541">
        <ele>706.7</ele>
        <time>2021-02-21T15:27:28Z</time>
      </trkpt>
      <trkpt lat="46.66804" lon="5.94534">
        <ele>705.2</ele>
        <time>2021-02-21T15:27:34Z</time>
      </trkpt>
      <trkpt lat="46.66806" lon="5.94528">
        <ele>704</ele>
        <time>2021-02-21T15:27:39Z</time>
      </trkpt>
      <trkpt lat="46.66805" lon="5.9452">
        <ele>703.2</ele>
        <time>2021-02-21T15:27:43Z</time>
      </trkpt>
      <trkpt lat="46.66804" lon="5.94513">
        <ele>702.4</ele>
        <time>2021-02-21T15:27:48Z</time>
      </trkpt>
      <trkpt lat="46.668" lon="5.94507">
        <ele>702.5</ele>
        <time>2021-02-21T15:27:52Z</time>
      </trkpt>
      <trkpt lat="46.66796" lon="5.94502">
        <ele>705.3</ele>
        <time>2021-02-21T15:28:07Z</time>
      </trkpt>
      <trkpt lat="46.66796" lon="5.94495">
        <ele>705.6</ele>
        <time>2021-02-21T15:28:11Z</time>
      </trkpt>
      <trkpt lat="46.66795" lon="5.94489">
        <ele>705.5</ele>
        <time>2021-02-21T15:28:14Z</time>
      </trkpt>
      <trkpt lat="46.66797" lon="5.94482">
        <ele>705.2</ele>
        <time>2021-02-21T15:28:19Z</time>
      </trkpt>
      <trkpt lat="46.66795" lon="5.94474">
        <ele>705</ele>
        <time>2021-02-21T15:28:24Z</time>
      </trkpt>
      <trkpt lat="46.66792" lon="5.94467">
        <ele>705.2</ele>
        <time>2021-02-21T15:28:28Z</time>
      </trkpt>
      <trkpt lat="46.66788" lon="5.94461">
        <ele>705.5</ele>
        <time>2021-02-21T15:28:32Z</time>
      </trkpt>
      <trkpt lat="46.66785" lon="5.94455">
        <ele>706.2</ele>
        <time>2021-02-21T15:28:36Z</time>
      </trkpt>
      <trkpt lat="46.66783" lon="5.94448">
        <ele>706.9</ele>
        <time>2021-02-21T15:28:40Z</time>
      </trkpt>
      <trkpt lat="46.6678" lon="5.94441">
        <ele>708.1</ele>
        <time>2021-02-21T15:28:45Z</time>
      </trkpt>
      <trkpt lat="46.66776" lon="5.94436">
        <ele>708.5</ele>
        <time>2021-02-21T15:28:49Z</time>
      </trkpt>
      <trkpt lat="46.66773" lon="5.9443">
        <ele>708.9</ele>
        <time>2021-02-21T15:28:53Z</time>
      </trkpt>
      <trkpt lat="46.66771" lon="5.94424">
        <ele>709.4</ele>
        <time>2021-02-21T15:28:56Z</time>
      </trkpt>
      <trkpt lat="46.66768" lon="5.94418">
        <ele>710.4</ele>
        <time>2021-02-21T15:29:00Z</time>
      </trkpt>
      <trkpt lat="46.66767" lon="5.94411">
        <ele>711.3</ele>
        <time>2021-02-21T15:29:05Z</time>
      </trkpt>
      <trkpt lat="46.66766" lon="5.94403">
        <ele>711.8</ele>
        <time>2021-02-21T15:29:09Z</time>
      </trkpt>
      <trkpt lat="46.66765" lon="5.94397">
        <ele>712.3</ele>
        <time>2021-02-21T15:29:13Z</time>
      </trkpt>
      <trkpt lat="46.66763" lon="5.9439">
        <ele>713</ele>
        <time>2021-02-21T15:29:17Z</time>
      </trkpt>
      <trkpt lat="46.66762" lon="5.94382">
        <ele>713</ele>
        <time>2021-02-21T15:29:21Z</time>
      </trkpt>
      <trkpt lat="46.66759" lon="5.94377">
        <ele>713.2</ele>
        <time>2021-02-21T15:29:25Z</time>
      </trkpt>
      <trkpt lat="46.66758" lon="5.9437">
        <ele>713.5</ele>
        <time>2021-02-21T15:29:29Z</time>
      </trkpt>
      <trkpt lat="46.66757" lon="5.94363">
        <ele>713.2</ele>
        <time>2021-02-21T15:29:33Z</time>
      </trkpt>
      <trkpt lat="46.66757" lon="5.94356">
        <ele>712.7</ele>
        <time>2021-02-21T15:29:37Z</time>
      </trkpt>
      <trkpt lat="46.66756" lon="5.94349">
        <ele>712</ele>
        <time>2021-02-21T15:29:42Z</time>
      </trkpt>
      <trkpt lat="46.66754" lon="5.94343">
        <ele>711.2</ele>
        <time>2021-02-21T15:29:47Z</time>
      </trkpt>
      <trkpt lat="46.6675" lon="5.94339">
        <ele>710.3</ele>
        <time>2021-02-21T15:29:54Z</time>
      </trkpt>
      <trkpt lat="46.66748" lon="5.94332">
        <ele>710.1</ele>
        <time>2021-02-21T15:30:07Z</time>
      </trkpt>
      <trkpt lat="46.66747" lon="5.94325">
        <ele>710.5</ele>
        <time>2021-02-21T15:30:11Z</time>
      </trkpt>
      <trkpt lat="46.66744" lon="5.94319">
        <ele>710.7</ele>
        <time>2021-02-21T15:30:16Z</time>
      </trkpt>
      <trkpt lat="46.66741" lon="5.94312">
        <ele>710.7</ele>
        <time>2021-02-21T15:30:21Z</time>
      </trkpt>
      <trkpt lat="46.66738" lon="5.94306">
        <ele>710.2</ele>
        <time>2021-02-21T15:30:27Z</time>
      </trkpt>
      <trkpt lat="46.66736" lon="5.94299">
        <ele>709.3</ele>
        <time>2021-02-21T15:30:34Z</time>
      </trkpt>
      <trkpt lat="46.66735" lon="5.94292">
        <ele>707.8</ele>
        <time>2021-02-21T15:30:39Z</time>
      </trkpt>
      <trkpt lat="46.66736" lon="5.94284">
        <ele>706.5</ele>
        <time>2021-02-21T15:30:43Z</time>
      </trkpt>
      <trkpt lat="46.66736" lon="5.94276">
        <ele>705.5</ele>
        <time>2021-02-21T15:30:47Z</time>
      </trkpt>
      <trkpt lat="46.66738" lon="5.94271">
        <ele>704.5</ele>
        <time>2021-02-21T15:30:51Z</time>
      </trkpt>
      <trkpt lat="46.66742" lon="5.94265">
        <ele>703.2</ele>
        <time>2021-02-21T15:30:56Z</time>
      </trkpt>
      <trkpt lat="46.66746" lon="5.94262">
        <ele>702.1</ele>
        <time>2021-02-21T15:31:02Z</time>
      </trkpt>
      <trkpt lat="46.6675" lon="5.9426">
        <ele>700.8</ele>
        <time>2021-02-21T15:31:08Z</time>
      </trkpt>
      <trkpt lat="46.66748" lon="5.94248">
        <ele>702.3</ele>
        <time>2021-02-21T15:31:10Z</time>
      </trkpt>
      <trkpt lat="46.66748" lon="5.94241">
        <ele>703.2</ele>
        <time>2021-02-21T15:31:12Z</time>
      </trkpt>
      <trkpt lat="46.6675" lon="5.94234">
        <ele>705.5</ele>
        <time>2021-02-21T15:31:16Z</time>
      </trkpt>
      <trkpt lat="46.66754" lon="5.94227">
        <ele>707.5</ele>
        <time>2021-02-21T15:31:20Z</time>
      </trkpt>
      <trkpt lat="46.66757" lon="5.94222">
        <ele>709.1</ele>
        <time>2021-02-21T15:31:23Z</time>
      </trkpt>
      <trkpt lat="46.6676" lon="5.94216">
        <ele>710.6</ele>
        <time>2021-02-21T15:31:26Z</time>
      </trkpt>
      <trkpt lat="46.66765" lon="5.94211">
        <ele>712.2</ele>
        <time>2021-02-21T15:31:30Z</time>
      </trkpt>
      <trkpt lat="46.66767" lon="5.94205">
        <ele>714.9</ele>
        <time>2021-02-21T15:31:37Z</time>
      </trkpt>
      <trkpt lat="46.66771" lon="5.942">
        <ele>717.3</ele>
        <time>2021-02-21T15:31:44Z</time>
      </trkpt>
      <trkpt lat="46.66775" lon="5.94197">
        <ele>717.8</ele>
        <time>2021-02-21T15:31:48Z</time>
      </trkpt>
      <trkpt lat="46.6678" lon="5.94194">
        <ele>717.5</ele>
        <time>2021-02-21T15:31:51Z</time>
      </trkpt>
      <trkpt lat="46.66784" lon="5.94191">
        <ele>716.7</ele>
        <time>2021-02-21T15:31:54Z</time>
      </trkpt>
      <trkpt lat="46.66787" lon="5.94184">
        <ele>715.7</ele>
        <time>2021-02-21T15:31:58Z</time>
      </trkpt>
      <trkpt lat="46.66788" lon="5.94178">
        <ele>714.8</ele>
        <time>2021-02-21T15:32:02Z</time>
      </trkpt>
      <trkpt lat="46.66792" lon="5.94172">
        <ele>713.7</ele>
        <time>2021-02-21T15:32:06Z</time>
      </trkpt>
      <trkpt lat="46.66796" lon="5.94168">
        <ele>712</ele>
        <time>2021-02-21T15:32:10Z</time>
      </trkpt>
      <trkpt lat="46.668" lon="5.94165">
        <ele>710.2</ele>
        <time>2021-02-21T15:32:14Z</time>
      </trkpt>
      <trkpt lat="46.66806" lon="5.94164">
        <ele>708</ele>
        <time>2021-02-21T15:32:18Z</time>
      </trkpt>
      <trkpt lat="46.6681" lon="5.94162">
        <ele>705.7</ele>
        <time>2021-02-21T15:32:23Z</time>
      </trkpt>
      <trkpt lat="46.66814" lon="5.94157">
        <ele>703.7</ele>
        <time>2021-02-21T15:32:29Z</time>
      </trkpt>
      <trkpt lat="46.66818" lon="5.94151">
        <ele>701.7</ele>
        <time>2021-02-21T15:32:35Z</time>
      </trkpt>
      <trkpt lat="46.66821" lon="5.94145">
        <ele>699.9</ele>
        <time>2021-02-21T15:32:40Z</time>
      </trkpt>
      <trkpt lat="46.66825" lon="5.94142">
        <ele>698.3</ele>
        <time>2021-02-21T15:32:44Z</time>
      </trkpt>
      <trkpt lat="46.6683" lon="5.94139">
        <ele>696.4</ele>
        <time>2021-02-21T15:32:48Z</time>
      </trkpt>
      <trkpt lat="46.66833" lon="5.94133">
        <ele>694.9</ele>
        <time>2021-02-21T15:32:52Z</time>
      </trkpt>
      <trkpt lat="46.66836" lon="5.94127">
        <ele>693.8</ele>
        <time>2021-02-21T15:32:56Z</time>
      </trkpt>
      <trkpt lat="46.66841" lon="5.94125">
        <ele>692.3</ele>
        <time>2021-02-21T15:33:00Z</time>
      </trkpt>
      <trkpt lat="46.66843" lon="5.94118">
        <ele>691.2</ele>
        <time>2021-02-21T15:33:05Z</time>
      </trkpt>
      <trkpt lat="46.66845" lon="5.94111">
        <ele>690.1</ele>
        <time>2021-02-21T15:33:12Z</time>
      </trkpt>
      <trkpt lat="46.6685" lon="5.94108">
        <ele>689.7</ele>
        <time>2021-02-21T15:33:19Z</time>
      </trkpt>
      <trkpt lat="46.66854" lon="5.94104">
        <ele>689.4</ele>
        <time>2021-02-21T15:33:25Z</time>
      </trkpt>
      <trkpt lat="46.66859" lon="5.94098">
        <ele>689</ele>
        <time>2021-02-21T15:33:30Z</time>
      </trkpt>
      <trkpt lat="46.66855" lon="5.94077">
        <ele>695.5</ele>
        <time>2021-02-21T15:33:33Z</time>
      </trkpt>
      <trkpt lat="46.66853" lon="5.94064">
        <ele>698.3</ele>
        <time>2021-02-21T15:33:35Z</time>
      </trkpt>
      <trkpt lat="46.66852" lon="5.94057">
        <ele>703.1</ele>
        <time>2021-02-21T15:33:38Z</time>
      </trkpt>
      <trkpt lat="46.66856" lon="5.94055">
        <ele>708.3</ele>
        <time>2021-02-21T15:33:45Z</time>
      </trkpt>
      <trkpt lat="46.6686" lon="5.94051">
        <ele>709.4</ele>
        <time>2021-02-21T15:33:49Z</time>
      </trkpt>
      <trkpt lat="46.66866" lon="5.94047">
        <ele>709.3</ele>
        <time>2021-02-21T15:33:53Z</time>
      </trkpt>
      <trkpt lat="46.6687" lon="5.94044">
        <ele>708.9</ele>
        <time>2021-02-21T15:33:56Z</time>
      </trkpt>
      <trkpt lat="46.66876" lon="5.94042">
        <ele>707.6</ele>
        <time>2021-02-21T15:34:00Z</time>
      </trkpt>
      <trkpt lat="46.6688" lon="5.94039">
        <ele>706.3</ele>
        <time>2021-02-21T15:34:04Z</time>
      </trkpt>
      <trkpt lat="46.66885" lon="5.94035">
        <ele>705.2</ele>
        <time>2021-02-21T15:34:09Z</time>
      </trkpt>
      <trkpt lat="46.66889" lon="5.94032">
        <ele>704.4</ele>
        <time>2021-02-21T15:34:12Z</time>
      </trkpt>
      <trkpt lat="46.66894" lon="5.94031">
        <ele>701.8</ele>
        <time>2021-02-21T15:34:18Z</time>
      </trkpt>
      <trkpt lat="46.66899" lon="5.94032">
        <ele>698.4</ele>
        <time>2021-02-21T15:34:26Z</time>
      </trkpt>
      <trkpt lat="46.66904" lon="5.94033">
        <ele>696.1</ele>
        <time>2021-02-21T15:34:33Z</time>
      </trkpt>
      <trkpt lat="46.66909" lon="5.94035">
        <ele>694.1</ele>
        <time>2021-02-21T15:34:38Z</time>
      </trkpt>
      <trkpt lat="46.66913" lon="5.94037">
        <ele>692.2</ele>
        <time>2021-02-21T15:34:42Z</time>
      </trkpt>
      <trkpt lat="46.66919" lon="5.9404">
        <ele>689.3</ele>
        <time>2021-02-21T15:34:48Z</time>
      </trkpt>
      <trkpt lat="46.66923" lon="5.9404">
        <ele>688.1</ele>
        <time>2021-02-21T15:34:50Z</time>
      </trkpt>
      <trkpt lat="46.66928" lon="5.94041">
        <ele>685.9</ele>
        <time>2021-02-21T15:34:54Z</time>
      </trkpt>
      <trkpt lat="46.66934" lon="5.94044">
        <ele>682.5</ele>
        <time>2021-02-21T15:35:05Z</time>
      </trkpt>
      <trkpt lat="46.66939" lon="5.94046">
        <ele>682</ele>
        <time>2021-02-21T15:35:07Z</time>
      </trkpt>
      <trkpt lat="46.66944" lon="5.94048">
        <ele>681.5</ele>
        <time>2021-02-21T15:35:10Z</time>
      </trkpt>
      <trkpt lat="46.66948" lon="5.94051">
        <ele>678.4</ele>
        <time>2021-02-21T15:35:22Z</time>
      </trkpt>
      <trkpt lat="46.66954" lon="5.94051">
        <ele>677.7</ele>
        <time>2021-02-21T15:35:25Z</time>
      </trkpt>
      <trkpt lat="46.66962" lon="5.94051">
        <ele>677.1</ele>
        <time>2021-02-21T15:35:29Z</time>
      </trkpt>
      <trkpt lat="46.66967" lon="5.9405">
        <ele>677</ele>
        <time>2021-02-21T15:35:31Z</time>
      </trkpt>
      <trkpt lat="46.66972" lon="5.94048">
        <ele>676.9</ele>
        <time>2021-02-21T15:35:34Z</time>
      </trkpt>
      <trkpt lat="46.66976" lon="5.94045">
        <ele>677.1</ele>
        <time>2021-02-21T15:35:38Z</time>
      </trkpt>
      <trkpt lat="46.66982" lon="5.94045">
        <ele>677</ele>
        <time>2021-02-21T15:35:41Z</time>
      </trkpt>
      <trkpt lat="46.66988" lon="5.94046">
        <ele>676.8</ele>
        <time>2021-02-21T15:35:44Z</time>
      </trkpt>
      <trkpt lat="46.66993" lon="5.94049">
        <ele>676.4</ele>
        <time>2021-02-21T15:35:47Z</time>
      </trkpt>
      <trkpt lat="46.66997" lon="5.94052">
        <ele>676.1</ele>
        <time>2021-02-21T15:35:51Z</time>
      </trkpt>
      <trkpt lat="46.67002" lon="5.94054">
        <ele>675.7</ele>
        <time>2021-02-21T15:35:55Z</time>
      </trkpt>
      <trkpt lat="46.67007" lon="5.94058">
        <ele>674.9</ele>
        <time>2021-02-21T15:35:59Z</time>
      </trkpt>
      <trkpt lat="46.67011" lon="5.94061">
        <ele>673.9</ele>
        <time>2021-02-21T15:36:03Z</time>
      </trkpt>
      <trkpt lat="46.67016" lon="5.94063">
        <ele>672.6</ele>
        <time>2021-02-21T15:36:06Z</time>
      </trkpt>
      <trkpt lat="46.67022" lon="5.94064">
        <ele>671</ele>
        <time>2021-02-21T15:36:09Z</time>
      </trkpt>
      <trkpt lat="46.67026" lon="5.94068">
        <ele>669.3</ele>
        <time>2021-02-21T15:36:13Z</time>
      </trkpt>
      <trkpt lat="46.67031" lon="5.94073">
        <ele>667.5</ele>
        <time>2021-02-21T15:36:18Z</time>
      </trkpt>
      <trkpt lat="46.67034" lon="5.94077">
        <ele>666</ele>
        <time>2021-02-21T15:36:22Z</time>
      </trkpt>
      <trkpt lat="46.67038" lon="5.94083">
        <ele>663.7</ele>
        <time>2021-02-21T15:36:27Z</time>
      </trkpt>
      <trkpt lat="46.67039" lon="5.94091">
        <ele>661.8</ele>
        <time>2021-02-21T15:36:31Z</time>
      </trkpt>
      <trkpt lat="46.67041" lon="5.94097">
        <ele>660.3</ele>
        <time>2021-02-21T15:36:36Z</time>
      </trkpt>
      <trkpt lat="46.67044" lon="5.94103">
        <ele>659.7</ele>
        <time>2021-02-21T15:36:41Z</time>
      </trkpt>
      <trkpt lat="46.67049" lon="5.94106">
        <ele>659.4</ele>
        <time>2021-02-21T15:36:47Z</time>
      </trkpt>
      <trkpt lat="46.67054" lon="5.94109">
        <ele>660</ele>
        <time>2021-02-21T15:36:52Z</time>
      </trkpt>
      <trkpt lat="46.67058" lon="5.94111">
        <ele>660.4</ele>
        <time>2021-02-21T15:36:56Z</time>
      </trkpt>
      <trkpt lat="46.67063" lon="5.94112">
        <ele>661</ele>
        <time>2021-02-21T15:37:01Z</time>
      </trkpt>
      <trkpt lat="46.67068" lon="5.94112">
        <ele>661.7</ele>
        <time>2021-02-21T15:37:04Z</time>
      </trkpt>
      <trkpt lat="46.67073" lon="5.94114">
        <ele>662.8</ele>
        <time>2021-02-21T15:37:08Z</time>
      </trkpt>
      <trkpt lat="46.67077" lon="5.94116">
        <ele>664.4</ele>
        <time>2021-02-21T15:37:14Z</time>
      </trkpt>
      <trkpt lat="46.67082" lon="5.94117">
        <ele>665.4</ele>
        <time>2021-02-21T15:37:19Z</time>
      </trkpt>
      <trkpt lat="46.67086" lon="5.94121">
        <ele>666.8</ele>
        <time>2021-02-21T15:37:27Z</time>
      </trkpt>
      <trkpt lat="46.67091" lon="5.94122">
        <ele>667.5</ele>
        <time>2021-02-21T15:37:31Z</time>
      </trkpt>
      <trkpt lat="46.67097" lon="5.94123">
        <ele>668.3</ele>
        <time>2021-02-21T15:37:35Z</time>
      </trkpt>
      <trkpt lat="46.67103" lon="5.94123">
        <ele>669.2</ele>
        <time>2021-02-21T15:37:41Z</time>
      </trkpt>
      <trkpt lat="46.67108" lon="5.94122">
        <ele>669.6</ele>
        <time>2021-02-21T15:37:44Z</time>
      </trkpt>
      <trkpt lat="46.67112" lon="5.9412">
        <ele>670.4</ele>
        <time>2021-02-21T15:37:50Z</time>
      </trkpt>
      <trkpt lat="46.67117" lon="5.94122">
        <ele>671.1</ele>
        <time>2021-02-21T15:37:57Z</time>
      </trkpt>
      <trkpt lat="46.67122" lon="5.94123">
        <ele>670.9</ele>
        <time>2021-02-21T15:38:04Z</time>
      </trkpt>
      <trkpt lat="46.67127" lon="5.94124">
        <ele>670.3</ele>
        <time>2021-02-21T15:38:10Z</time>
      </trkpt>
      <trkpt lat="46.67132" lon="5.94123">
        <ele>669.9</ele>
        <time>2021-02-21T15:38:17Z</time>
      </trkpt>
      <trkpt lat="46.67137" lon="5.94122">
        <ele>669.1</ele>
        <time>2021-02-21T15:38:21Z</time>
      </trkpt>
      <trkpt lat="46.67142" lon="5.94122">
        <ele>668.3</ele>
        <time>2021-02-21T15:38:25Z</time>
      </trkpt>
      <trkpt lat="46.67147" lon="5.94124">
        <ele>667.3</ele>
        <time>2021-02-21T15:38:28Z</time>
      </trkpt>
      <trkpt lat="46.67153" lon="5.94125">
        <ele>666.1</ele>
        <time>2021-02-21T15:38:32Z</time>
      </trkpt>
      <trkpt lat="46.67157" lon="5.94125">
        <ele>664.8</ele>
        <time>2021-02-21T15:38:36Z</time>
      </trkpt>
      <trkpt lat="46.67163" lon="5.94123">
        <ele>663.8</ele>
        <time>2021-02-21T15:38:40Z</time>
      </trkpt>
      <trkpt lat="46.67168" lon="5.9412">
        <ele>663.1</ele>
        <time>2021-02-21T15:38:43Z</time>
      </trkpt>
      <trkpt lat="46.67174" lon="5.94119">
        <ele>661.8</ele>
        <time>2021-02-21T15:38:48Z</time>
      </trkpt>
      <trkpt lat="46.67179" lon="5.94119">
        <ele>661</ele>
        <time>2021-02-21T15:38:52Z</time>
      </trkpt>
      <trkpt lat="46.67183" lon="5.94116">
        <ele>660.9</ele>
        <time>2021-02-21T15:38:55Z</time>
      </trkpt>
      <trkpt lat="46.67188" lon="5.94113">
        <ele>661.1</ele>
        <time>2021-02-21T15:38:58Z</time>
      </trkpt>
      <trkpt lat="46.67193" lon="5.94113">
        <ele>661.7</ele>
        <time>2021-02-21T15:39:01Z</time>
      </trkpt>
      <trkpt lat="46.67198" lon="5.94112">
        <ele>662.3</ele>
        <time>2021-02-21T15:39:04Z</time>
      </trkpt>
      <trkpt lat="46.67203" lon="5.94113">
        <ele>662.5</ele>
        <time>2021-02-21T15:39:08Z</time>
      </trkpt>
      <trkpt lat="46.67206" lon="5.94118">
        <ele>662.2</ele>
        <time>2021-02-21T15:39:13Z</time>
      </trkpt>
      <trkpt lat="46.67209" lon="5.94124">
        <ele>661.1</ele>
        <time>2021-02-21T15:39:19Z</time>
      </trkpt>
      <trkpt lat="46.67212" lon="5.94129">
        <ele>660.4</ele>
        <time>2021-02-21T15:39:27Z</time>
      </trkpt>
      <trkpt lat="46.67216" lon="5.94134">
        <ele>660</ele>
        <time>2021-02-21T15:39:34Z</time>
      </trkpt>
      <trkpt lat="46.67221" lon="5.94136">
        <ele>659.8</ele>
        <time>2021-02-21T15:39:39Z</time>
      </trkpt>
      <trkpt lat="46.67226" lon="5.94138">
        <ele>660</ele>
        <time>2021-02-21T15:39:44Z</time>
      </trkpt>
      <trkpt lat="46.67231" lon="5.94138">
        <ele>660.8</ele>
        <time>2021-02-21T15:39:51Z</time>
      </trkpt>
      <trkpt lat="46.67236" lon="5.94139">
        <ele>661.6</ele>
        <time>2021-02-21T15:39:56Z</time>
      </trkpt>
      <trkpt lat="46.6724" lon="5.94141">
        <ele>662.6</ele>
        <time>2021-02-21T15:40:03Z</time>
      </trkpt>
      <trkpt lat="46.67245" lon="5.94144">
        <ele>662.8</ele>
        <time>2021-02-21T15:40:15Z</time>
      </trkpt>
      <trkpt lat="46.6725" lon="5.94145">
        <ele>662.9</ele>
        <time>2021-02-21T15:40:19Z</time>
      </trkpt>
      <trkpt lat="46.67256" lon="5.94146">
        <ele>662.8</ele>
        <time>2021-02-21T15:40:23Z</time>
      </trkpt>
      <trkpt lat="46.67261" lon="5.94144">
        <ele>662.1</ele>
        <time>2021-02-21T15:40:31Z</time>
      </trkpt>
      <trkpt lat="46.67264" lon="5.94139">
        <ele>661.4</ele>
        <time>2021-02-21T15:40:37Z</time>
      </trkpt>
      <trkpt lat="46.67269" lon="5.94139">
        <ele>661.1</ele>
        <time>2021-02-21T15:40:42Z</time>
      </trkpt>
      <trkpt lat="46.67274" lon="5.94138">
        <ele>660.7</ele>
        <time>2021-02-21T15:40:48Z</time>
      </trkpt>
      <trkpt lat="46.67279" lon="5.94138">
        <ele>660.4</ele>
        <time>2021-02-21T15:40:53Z</time>
      </trkpt>
      <trkpt lat="46.67284" lon="5.94136">
        <ele>660.3</ele>
        <time>2021-02-21T15:40:57Z</time>
      </trkpt>
      <trkpt lat="46.67289" lon="5.94135">
        <ele>660</ele>
        <time>2021-02-21T15:41:02Z</time>
      </trkpt>
      <trkpt lat="46.67293" lon="5.94132">
        <ele>660.1</ele>
        <time>2021-02-21T15:41:06Z</time>
      </trkpt>
      <trkpt lat="46.67298" lon="5.9413">
        <ele>660.6</ele>
        <time>2021-02-21T15:41:12Z</time>
      </trkpt>
      <trkpt lat="46.67303" lon="5.94128">
        <ele>660.9</ele>
        <time>2021-02-21T15:41:18Z</time>
      </trkpt>
      <trkpt lat="46.67308" lon="5.94128">
        <ele>661.2</ele>
        <time>2021-02-21T15:41:24Z</time>
      </trkpt>
      <trkpt lat="46.67313" lon="5.9413">
        <ele>661.6</ele>
        <time>2021-02-21T15:41:28Z</time>
      </trkpt>
      <trkpt lat="46.67318" lon="5.94131">
        <ele>662.6</ele>
        <time>2021-02-21T15:41:32Z</time>
      </trkpt>
      <trkpt lat="46.67324" lon="5.94131">
        <ele>663.7</ele>
        <time>2021-02-21T15:41:38Z</time>
      </trkpt>
      <trkpt lat="46.67329" lon="5.9413">
        <ele>664.9</ele>
        <time>2021-02-21T15:41:43Z</time>
      </trkpt>
      <trkpt lat="46.67332" lon="5.94135">
        <ele>666.4</ele>
        <time>2021-02-21T15:41:56Z</time>
      </trkpt>
      <trkpt lat="46.67337" lon="5.94139">
        <ele>666.6</ele>
        <time>2021-02-21T15:42:00Z</time>
      </trkpt>
      <trkpt lat="46.67342" lon="5.94143">
        <ele>666.9</ele>
        <time>2021-02-21T15:42:03Z</time>
      </trkpt>
      <trkpt lat="46.67347" lon="5.94145">
        <ele>667.6</ele>
        <time>2021-02-21T15:42:06Z</time>
      </trkpt>
      <trkpt lat="46.67351" lon="5.94148">
        <ele>668.5</ele>
        <time>2021-02-21T15:42:10Z</time>
      </trkpt>
      <trkpt lat="46.67356" lon="5.9415">
        <ele>669.3</ele>
        <time>2021-02-21T15:42:14Z</time>
      </trkpt>
      <trkpt lat="46.67361" lon="5.94151">
        <ele>669.9</ele>
        <time>2021-02-21T15:42:18Z</time>
      </trkpt>
      <trkpt lat="46.67365" lon="5.94155">
        <ele>670.6</ele>
        <time>2021-02-21T15:42:26Z</time>
      </trkpt>
      <trkpt lat="46.67368" lon="5.9416">
        <ele>671.2</ele>
        <time>2021-02-21T15:42:32Z</time>
      </trkpt>
      <trkpt lat="46.67374" lon="5.94162">
        <ele>672.4</ele>
        <time>2021-02-21T15:42:36Z</time>
      </trkpt>
      <trkpt lat="46.67379" lon="5.94165">
        <ele>673.7</ele>
        <time>2021-02-21T15:42:40Z</time>
      </trkpt>
      <trkpt lat="46.67383" lon="5.94168">
        <ele>675.6</ele>
        <time>2021-02-21T15:42:47Z</time>
      </trkpt>
      <trkpt lat="46.67389" lon="5.94169">
        <ele>676.8</ele>
        <time>2021-02-21T15:42:51Z</time>
      </trkpt>
      <trkpt lat="46.67393" lon="5.94171">
        <ele>678</ele>
        <time>2021-02-21T15:42:56Z</time>
      </trkpt>
      <trkpt lat="46.67398" lon="5.94173">
        <ele>679.3</ele>
        <time>2021-02-21T15:43:01Z</time>
      </trkpt>
      <trkpt lat="46.67396" lon="5.94167">
        <ele>682.6</ele>
        <time>2021-02-21T15:43:23Z</time>
      </trkpt>
      <trkpt lat="46.674" lon="5.94166">
        <ele>684.6</ele>
        <time>2021-02-21T15:43:38Z</time>
      </trkpt>
      <trkpt lat="46.67404" lon="5.94163">
        <ele>688.3</ele>
        <time>2021-02-21T15:43:52Z</time>
      </trkpt>
      <trkpt lat="46.67409" lon="5.94161">
        <ele>692.2</ele>
        <time>2021-02-21T15:44:01Z</time>
      </trkpt>
      <trkpt lat="46.67414" lon="5.94163">
        <ele>695.2</ele>
        <time>2021-02-21T15:44:10Z</time>
      </trkpt>
      <trkpt lat="46.67418" lon="5.94161">
        <ele>695.8</ele>
        <time>2021-02-21T15:44:14Z</time>
      </trkpt>
      <trkpt lat="46.67423" lon="5.94159">
        <ele>695.6</ele>
        <time>2021-02-21T15:44:18Z</time>
      </trkpt>
      <trkpt lat="46.67428" lon="5.94158">
        <ele>694.5</ele>
        <time>2021-02-21T15:44:22Z</time>
      </trkpt>
      <trkpt lat="46.67432" lon="5.94158">
        <ele>692.6</ele>
        <time>2021-02-21T15:44:27Z</time>
      </trkpt>
      <trkpt lat="46.67437" lon="5.94155">
        <ele>692.7</ele>
        <time>2021-02-21T15:44:32Z</time>
      </trkpt>
      <trkpt lat="46.67441" lon="5.94151">
        <ele>694.6</ele>
        <time>2021-02-21T15:44:37Z</time>
      </trkpt>
      <trkpt lat="46.67445" lon="5.94148">
        <ele>699.7</ele>
        <time>2021-02-21T15:44:44Z</time>
      </trkpt>
      <trkpt lat="46.67449" lon="5.94145">
        <ele>704.6</ele>
        <time>2021-02-21T15:44:50Z</time>
      </trkpt>
      <trkpt lat="46.67452" lon="5.9414">
        <ele>708.5</ele>
        <time>2021-02-21T15:44:56Z</time>
      </trkpt>
      <trkpt lat="46.67456" lon="5.94135">
        <ele>713.8</ele>
        <time>2021-02-21T15:45:05Z</time>
      </trkpt>
      <trkpt lat="46.67462" lon="5.94133">
        <ele>714.9</ele>
        <time>2021-02-21T15:45:08Z</time>
      </trkpt>
      <trkpt lat="46.67467" lon="5.9413">
        <ele>716.5</ele>
        <time>2021-02-21T15:45:12Z</time>
      </trkpt>
      <trkpt lat="46.67472" lon="5.94127">
        <ele>718.6</ele>
        <time>2021-02-21T15:45:17Z</time>
      </trkpt>
      <trkpt lat="46.67477" lon="5.94127">
        <ele>719.6</ele>
        <time>2021-02-21T15:45:21Z</time>
      </trkpt>
      <trkpt lat="46.67484" lon="5.94125">
        <ele>719.2</ele>
        <time>2021-02-21T15:45:24Z</time>
      </trkpt>
      <trkpt lat="46.67489" lon="5.94124">
        <ele>717.9</ele>
        <time>2021-02-21T15:45:27Z</time>
      </trkpt>
      <trkpt lat="46.67494" lon="5.94124">
        <ele>716.1</ele>
        <time>2021-02-21T15:45:32Z</time>
      </trkpt>
      <trkpt lat="46.67499" lon="5.94123">
        <ele>714.5</ele>
        <time>2021-02-21T15:45:36Z</time>
      </trkpt>
      <trkpt lat="46.67504" lon="5.94121">
        <ele>713.3</ele>
        <time>2021-02-21T15:45:40Z</time>
      </trkpt>
      <trkpt lat="46.67508" lon="5.94118">
        <ele>712.2</ele>
        <time>2021-02-21T15:45:45Z</time>
      </trkpt>
      <trkpt lat="46.67513" lon="5.94115">
        <ele>708.9</ele>
        <time>2021-02-21T15:45:48Z</time>
      </trkpt>
      <trkpt lat="46.6752" lon="5.94114">
        <ele>706.2</ele>
        <time>2021-02-21T15:45:51Z</time>
      </trkpt>
      <trkpt lat="46.67525" lon="5.94114">
        <ele>703.9</ele>
        <time>2021-02-21T15:45:54Z</time>
      </trkpt>
      <trkpt lat="46.6753" lon="5.94117">
        <ele>701.4</ele>
        <time>2021-02-21T15:45:59Z</time>
      </trkpt>
      <trkpt lat="46.67536" lon="5.9412">
        <ele>700.1</ele>
        <time>2021-02-21T15:46:04Z</time>
      </trkpt>
      <trkpt lat="46.6754" lon="5.94124">
        <ele>699.2</ele>
        <time>2021-02-21T15:46:09Z</time>
      </trkpt>
      <trkpt lat="46.67543" lon="5.9413">
        <ele>698.3</ele>
        <time>2021-02-21T15:46:16Z</time>
      </trkpt>
      <trkpt lat="46.67547" lon="5.94134">
        <ele>697.8</ele>
        <time>2021-02-21T15:46:21Z</time>
      </trkpt>
      <trkpt lat="46.67552" lon="5.94134">
        <ele>697.5</ele>
        <time>2021-02-21T15:46:24Z</time>
      </trkpt>
      <trkpt lat="46.67557" lon="5.94133">
        <ele>697.4</ele>
        <time>2021-02-21T15:46:27Z</time>
      </trkpt>
      <trkpt lat="46.67562" lon="5.94132">
        <ele>697.3</ele>
        <time>2021-02-21T15:46:30Z</time>
      </trkpt>
      <trkpt lat="46.67567" lon="5.94132">
        <ele>697.2</ele>
        <time>2021-02-21T15:46:34Z</time>
      </trkpt>
      <trkpt lat="46.67572" lon="5.94132">
        <ele>697</ele>
        <time>2021-02-21T15:46:39Z</time>
      </trkpt>
      <trkpt lat="46.67577" lon="5.94132">
        <ele>697</ele>
        <time>2021-02-21T15:46:42Z</time>
      </trkpt>
      <trkpt lat="46.67582" lon="5.94131">
        <ele>697.1</ele>
        <time>2021-02-21T15:46:45Z</time>
      </trkpt>
      <trkpt lat="46.67587" lon="5.94133">
        <ele>697.1</ele>
        <time>2021-02-21T15:46:51Z</time>
      </trkpt>
      <trkpt lat="46.67592" lon="5.94134">
        <ele>697.5</ele>
        <time>2021-02-21T15:46:57Z</time>
      </trkpt>
      <trkpt lat="46.67596" lon="5.94138">
        <ele>699.3</ele>
        <time>2021-02-21T15:47:06Z</time>
      </trkpt>
      <trkpt lat="46.67602" lon="5.94138">
        <ele>701</ele>
        <time>2021-02-21T15:47:12Z</time>
      </trkpt>
      <trkpt lat="46.67607" lon="5.94136">
        <ele>702.5</ele>
        <time>2021-02-21T15:47:17Z</time>
      </trkpt>
      <trkpt lat="46.67612" lon="5.94134">
        <ele>702.9</ele>
        <time>2021-02-21T15:47:20Z</time>
      </trkpt>
      <trkpt lat="46.67618" lon="5.94133">
        <ele>703.1</ele>
        <time>2021-02-21T15:47:23Z</time>
      </trkpt>
      <trkpt lat="46.67623" lon="5.94135">
        <ele>703.4</ele>
        <time>2021-02-21T15:47:27Z</time>
      </trkpt>
      <trkpt lat="46.67628" lon="5.9414">
        <ele>703.9</ele>
        <time>2021-02-21T15:47:32Z</time>
      </trkpt>
      <trkpt lat="46.67632" lon="5.94142">
        <ele>704.2</ele>
        <time>2021-02-21T15:47:35Z</time>
      </trkpt>
      <trkpt lat="46.67637" lon="5.94144">
        <ele>704.4</ele>
        <time>2021-02-21T15:47:38Z</time>
      </trkpt>
      <trkpt lat="46.67641" lon="5.94146">
        <ele>704.7</ele>
        <time>2021-02-21T15:47:41Z</time>
      </trkpt>
      <trkpt lat="46.67646" lon="5.9415">
        <ele>705.2</ele>
        <time>2021-02-21T15:47:45Z</time>
      </trkpt>
      <trkpt lat="46.67649" lon="5.94155">
        <ele>705.7</ele>
        <time>2021-02-21T15:47:50Z</time>
      </trkpt>
      <trkpt lat="46.67654" lon="5.94157">
        <ele>705.9</ele>
        <time>2021-02-21T15:47:54Z</time>
      </trkpt>
      <trkpt lat="46.67659" lon="5.94159">
        <ele>705.6</ele>
        <time>2021-02-21T15:47:58Z</time>
      </trkpt>
      <trkpt lat="46.67665" lon="5.9416">
        <ele>705</ele>
        <time>2021-02-21T15:48:02Z</time>
      </trkpt>
      <trkpt lat="46.6767" lon="5.94162">
        <ele>704.7</ele>
        <time>2021-02-21T15:48:06Z</time>
      </trkpt>
      <trkpt lat="46.67674" lon="5.94167">
        <ele>704.2</ele>
        <time>2021-02-21T15:48:11Z</time>
      </trkpt>
      <trkpt lat="46.67678" lon="5.9417">
        <ele>703.5</ele>
        <time>2021-02-21T15:48:17Z</time>
      </trkpt>
      <trkpt lat="46.67683" lon="5.94174">
        <ele>702.8</ele>
        <time>2021-02-21T15:48:25Z</time>
      </trkpt>
      <trkpt lat="46.67686" lon="5.94177">
        <ele>703.3</ele>
        <time>2021-02-21T15:48:29Z</time>
      </trkpt>
      <trkpt lat="46.67691" lon="5.94181">
        <ele>704.4</ele>
        <time>2021-02-21T15:48:33Z</time>
      </trkpt>
      <trkpt lat="46.67695" lon="5.94183">
        <ele>705.6</ele>
        <time>2021-02-21T15:48:36Z</time>
      </trkpt>
      <trkpt lat="46.67695" lon="5.94191">
        <ele>708.4</ele>
        <time>2021-02-21T15:48:43Z</time>
      </trkpt>
      <trkpt lat="46.67697" lon="5.94197">
        <ele>708.8</ele>
        <time>2021-02-21T15:48:49Z</time>
      </trkpt>
      <trkpt lat="46.677" lon="5.94202">
        <ele>708.8</ele>
        <time>2021-02-21T15:48:55Z</time>
      </trkpt>
      <trkpt lat="46.67705" lon="5.94206">
        <ele>708.7</ele>
        <time>2021-02-21T15:49:00Z</time>
      </trkpt>
      <trkpt lat="46.67708" lon="5.94212">
        <ele>707.5</ele>
        <time>2021-02-21T15:49:05Z</time>
      </trkpt>
      <trkpt lat="46.67713" lon="5.94215">
        <ele>705.9</ele>
        <time>2021-02-21T15:49:15Z</time>
      </trkpt>
      <trkpt lat="46.67717" lon="5.94218">
        <ele>706.4</ele>
        <time>2021-02-21T15:49:22Z</time>
      </trkpt>
      <trkpt lat="46.67721" lon="5.94223">
        <ele>707.7</ele>
        <time>2021-02-21T15:49:25Z</time>
      </trkpt>
      <trkpt lat="46.67726" lon="5.94227">
        <ele>709.2</ele>
        <time>2021-02-21T15:49:28Z</time>
      </trkpt>
      <trkpt lat="46.67731" lon="5.94229">
        <ele>710.7</ele>
        <time>2021-02-21T15:49:31Z</time>
      </trkpt>
      <trkpt lat="46.67736" lon="5.94235">
        <ele>712.8</ele>
        <time>2021-02-21T15:49:35Z</time>
      </trkpt>
      <trkpt lat="46.6774" lon="5.94238">
        <ele>714.4</ele>
        <time>2021-02-21T15:49:38Z</time>
      </trkpt>
      <trkpt lat="46.67744" lon="5.94243">
        <ele>717.1</ele>
        <time>2021-02-21T15:49:42Z</time>
      </trkpt>
      <trkpt lat="46.67745" lon="5.94249">
        <ele>718.9</ele>
        <time>2021-02-21T15:49:45Z</time>
      </trkpt>
      <trkpt lat="46.67748" lon="5.94255">
        <ele>721.1</ele>
        <time>2021-02-21T15:49:48Z</time>
      </trkpt>
      <trkpt lat="46.6775" lon="5.94262">
        <ele>724.5</ele>
        <time>2021-02-21T15:49:52Z</time>
      </trkpt>
      <trkpt lat="46.67756" lon="5.94265">
        <ele>727</ele>
        <time>2021-02-21T15:49:55Z</time>
      </trkpt>
      <trkpt lat="46.67761" lon="5.94265">
        <ele>729.1</ele>
        <time>2021-02-21T15:49:58Z</time>
      </trkpt>
      <trkpt lat="46.67765" lon="5.9427">
        <ele>729.8</ele>
        <time>2021-02-21T15:50:07Z</time>
      </trkpt>
      <trkpt lat="46.67769" lon="5.94267">
        <ele>719.3</ele>
        <time>2021-02-21T15:50:35Z</time>
      </trkpt>
      <trkpt lat="46.67774" lon="5.94271">
        <ele>718.6</ele>
        <time>2021-02-21T15:50:41Z</time>
      </trkpt>
      <trkpt lat="46.67777" lon="5.94276">
        <ele>718.4</ele>
        <time>2021-02-21T15:50:46Z</time>
      </trkpt>
      <trkpt lat="46.67783" lon="5.94278">
        <ele>718</ele>
        <time>2021-02-21T15:50:52Z</time>
      </trkpt>
      <trkpt lat="46.67788" lon="5.94281">
        <ele>717.7</ele>
        <time>2021-02-21T15:50:55Z</time>
      </trkpt>
      <trkpt lat="46.67793" lon="5.94285">
        <ele>717.9</ele>
        <time>2021-02-21T15:50:58Z</time>
      </trkpt>
      <trkpt lat="46.67797" lon="5.94289">
        <ele>718.2</ele>
        <time>2021-02-21T15:51:00Z</time>
      </trkpt>
      <trkpt lat="46.67802" lon="5.94292">
        <ele>719</ele>
        <time>2021-02-21T15:51:03Z</time>
      </trkpt>
      <trkpt lat="46.67807" lon="5.94294">
        <ele>719.8</ele>
        <time>2021-02-21T15:51:06Z</time>
      </trkpt>
      <trkpt lat="46.67811" lon="5.94297">
        <ele>721.1</ele>
        <time>2021-02-21T15:51:09Z</time>
      </trkpt>
      <trkpt lat="46.67815" lon="5.94301">
        <ele>722.6</ele>
        <time>2021-02-21T15:51:12Z</time>
      </trkpt>
      <trkpt lat="46.67821" lon="5.94302">
        <ele>724.3</ele>
        <time>2021-02-21T15:51:15Z</time>
      </trkpt>
      <trkpt lat="46.67825" lon="5.94306">
        <ele>726.7</ele>
        <time>2021-02-21T15:51:19Z</time>
      </trkpt>
      <trkpt lat="46.67828" lon="5.9431">
        <ele>728.5</ele>
        <time>2021-02-21T15:51:24Z</time>
      </trkpt>
      <trkpt lat="46.67831" lon="5.94315">
        <ele>729.1</ele>
        <time>2021-02-21T15:51:28Z</time>
      </trkpt>
      <trkpt lat="46.67836" lon="5.94317">
        <ele>727.2</ele>
        <time>2021-02-21T15:51:37Z</time>
      </trkpt>
      <trkpt lat="46.67839" lon="5.94322">
        <ele>726.2</ele>
        <time>2021-02-21T15:51:41Z</time>
      </trkpt>
      <trkpt lat="46.67844" lon="5.94324">
        <ele>725.8</ele>
        <time>2021-02-21T15:51:44Z</time>
      </trkpt>
      <trkpt lat="46.6785" lon="5.94326">
        <ele>724.3</ele>
        <time>2021-02-21T15:51:49Z</time>
      </trkpt>
      <trkpt lat="46.67855" lon="5.94327">
        <ele>722.8</ele>
        <time>2021-02-21T15:51:53Z</time>
      </trkpt>
      <trkpt lat="46.6786" lon="5.9433">
        <ele>721.5</ele>
        <time>2021-02-21T15:51:56Z</time>
      </trkpt>
      <trkpt lat="46.67864" lon="5.94335">
        <ele>720</ele>
        <time>2021-02-21T15:52:00Z</time>
      </trkpt>
      <trkpt lat="46.67868" lon="5.94341">
        <ele>719.5</ele>
        <time>2021-02-21T15:52:04Z</time>
      </trkpt>
      <trkpt lat="46.67874" lon="5.94345">
        <ele>718.8</ele>
        <time>2021-02-21T15:52:08Z</time>
      </trkpt>
      <trkpt lat="46.67878" lon="5.94348">
        <ele>716.9</ele>
        <time>2021-02-21T15:52:13Z</time>
      </trkpt>
      <trkpt lat="46.67881" lon="5.94354">
        <ele>714.6</ele>
        <time>2021-02-21T15:52:19Z</time>
      </trkpt>
      <trkpt lat="46.67883" lon="5.9436">
        <ele>712.4</ele>
        <time>2021-02-21T15:52:25Z</time>
      </trkpt>
      <trkpt lat="46.67886" lon="5.94366">
        <ele>711.2</ele>
        <time>2021-02-21T15:52:29Z</time>
      </trkpt>
      <trkpt lat="46.6789" lon="5.9437">
        <ele>707.3</ele>
        <time>2021-02-21T15:52:36Z</time>
      </trkpt>
      <trkpt lat="46.679" lon="5.94373">
        <ele>708.8</ele>
        <time>2021-02-21T15:52:40Z</time>
      </trkpt>
      <trkpt lat="46.67908" lon="5.94373">
        <ele>710.7</ele>
        <time>2021-02-21T15:52:42Z</time>
      </trkpt>
      <trkpt lat="46.67914" lon="5.94373">
        <ele>713.1</ele>
        <time>2021-02-21T15:52:44Z</time>
      </trkpt>
      <trkpt lat="46.67919" lon="5.94376">
        <ele>715.9</ele>
        <time>2021-02-21T15:52:47Z</time>
      </trkpt>
      <trkpt lat="46.67921" lon="5.94382">
        <ele>719.6</ele>
        <time>2021-02-21T15:52:52Z</time>
      </trkpt>
      <trkpt lat="46.67922" lon="5.94388">
        <ele>724.1</ele>
        <time>2021-02-21T15:53:01Z</time>
      </trkpt>
      <trkpt lat="46.67925" lon="5.94394">
        <ele>725.9</ele>
        <time>2021-02-21T15:53:03Z</time>
      </trkpt>
      <trkpt lat="46.67929" lon="5.94399">
        <ele>728.5</ele>
        <time>2021-02-21T15:53:07Z</time>
      </trkpt>
      <trkpt lat="46.67932" lon="5.94404">
        <ele>731.7</ele>
        <time>2021-02-21T15:53:14Z</time>
      </trkpt>
      <trkpt lat="46.67937" lon="5.94404">
        <ele>732.5</ele>
        <time>2021-02-21T15:53:18Z</time>
      </trkpt>
      <trkpt lat="46.67941" lon="5.94402">
        <ele>731.9</ele>
        <time>2021-02-21T15:53:21Z</time>
      </trkpt>
      <trkpt lat="46.67945" lon="5.94406">
        <ele>730.9</ele>
        <time>2021-02-21T15:53:29Z</time>
      </trkpt>
      <trkpt lat="46.6795" lon="5.94406">
        <ele>729.9</ele>
        <time>2021-02-21T15:53:33Z</time>
      </trkpt>
      <trkpt lat="46.67954" lon="5.94409">
        <ele>727.8</ele>
        <time>2021-02-21T15:53:41Z</time>
      </trkpt>
      <trkpt lat="46.67959" lon="5.94409">
        <ele>726.3</ele>
        <time>2021-02-21T15:53:47Z</time>
      </trkpt>
      <trkpt lat="46.67963" lon="5.94405">
        <ele>723.8</ele>
        <time>2021-02-21T15:53:56Z</time>
      </trkpt>
      <trkpt lat="46.67966" lon="5.944">
        <ele>722.3</ele>
        <time>2021-02-21T15:54:02Z</time>
      </trkpt>
      <trkpt lat="46.6797" lon="5.94403">
        <ele>720.2</ele>
        <time>2021-02-21T15:54:16Z</time>
      </trkpt>
      <trkpt lat="46.67975" lon="5.944">
        <ele>717.7</ele>
        <time>2021-02-21T15:54:21Z</time>
      </trkpt>
      <trkpt lat="46.67977" lon="5.94393">
        <ele>715.4</ele>
        <time>2021-02-21T15:54:25Z</time>
      </trkpt>
      <trkpt lat="46.6798" lon="5.94388">
        <ele>712.4</ele>
        <time>2021-02-21T15:54:31Z</time>
      </trkpt>
      <trkpt lat="46.67984" lon="5.94385">
        <ele>709.8</ele>
        <time>2021-02-21T15:54:37Z</time>
      </trkpt>
      <trkpt lat="46.67988" lon="5.94379">
        <ele>706.7</ele>
        <time>2021-02-21T15:54:42Z</time>
      </trkpt>
      <trkpt lat="46.67991" lon="5.94374">
        <ele>702.1</ele>
        <time>2021-02-21T15:54:49Z</time>
      </trkpt>
      <trkpt lat="46.67996" lon="5.94374">
        <ele>696.4</ele>
        <time>2021-02-21T15:55:16Z</time>
      </trkpt>
      <trkpt lat="46.67991" lon="5.94377">
        <ele>691.4</ele>
        <time>2021-02-21T15:55:30Z</time>
      </trkpt>
      <trkpt lat="46.67987" lon="5.94375">
        <ele>691.4</ele>
        <time>2021-02-21T15:55:49Z</time>
      </trkpt>
      <trkpt lat="46.67982" lon="5.94375">
        <ele>690.8</ele>
        <time>2021-02-21T15:56:04Z</time>
      </trkpt>
      <trkpt lat="46.67978" lon="5.94379">
        <ele>691.1</ele>
        <time>2021-02-21T15:56:09Z</time>
      </trkpt>
      <trkpt lat="46.67975" lon="5.94373">
        <ele>693.3</ele>
        <time>2021-02-21T15:56:43Z</time>
      </trkpt>
      <trkpt lat="46.67975" lon="5.94367">
        <ele>691</ele>
        <time>2021-02-21T15:56:51Z</time>
      </trkpt>
      <trkpt lat="46.67978" lon="5.9436">
        <ele>692.1</ele>
        <time>2021-02-21T15:57:08Z</time>
      </trkpt>
      <trkpt lat="46.6798" lon="5.94354">
        <ele>687.8</ele>
        <time>2021-02-21T15:57:19Z</time>
      </trkpt>
      <trkpt lat="46.67984" lon="5.94348">
        <ele>688.1</ele>
        <time>2021-02-21T15:57:23Z</time>
      </trkpt>
      <trkpt lat="46.67989" lon="5.94345">
        <ele>690.9</ele>
        <time>2021-02-21T15:57:27Z</time>
      </trkpt>
      <trkpt lat="46.67992" lon="5.9434">
        <ele>696.2</ele>
        <time>2021-02-21T15:57:36Z</time>
      </trkpt>
      <trkpt lat="46.67997" lon="5.94337">
        <ele>699.6</ele>
        <time>2021-02-21T15:57:42Z</time>
      </trkpt>
      <trkpt lat="46.68002" lon="5.94337">
        <ele>701.1</ele>
        <time>2021-02-21T15:57:47Z</time>
      </trkpt>
      <trkpt lat="46.68007" lon="5.94337">
        <ele>702.9</ele>
        <time>2021-02-21T15:57:54Z</time>
      </trkpt>
      <trkpt lat="46.68012" lon="5.94338">
        <ele>704.4</ele>
        <time>2021-02-21T15:58:01Z</time>
      </trkpt>
      <trkpt lat="46.68017" lon="5.94336">
        <ele>706</ele>
        <time>2021-02-21T15:58:08Z</time>
      </trkpt>
      <trkpt lat="46.68021" lon="5.9433">
        <ele>706.5</ele>
        <time>2021-02-21T15:58:12Z</time>
      </trkpt>
      <trkpt lat="46.68024" lon="5.94324">
        <ele>707.1</ele>
        <time>2021-02-21T15:58:16Z</time>
      </trkpt>
      <trkpt lat="46.68028" lon="5.9432">
        <ele>708.3</ele>
        <time>2021-02-21T15:58:22Z</time>
      </trkpt>
      <trkpt lat="46.6803" lon="5.94314">
        <ele>709.6</ele>
        <time>2021-02-21T15:58:28Z</time>
      </trkpt>
      <trkpt lat="46.68035" lon="5.94311">
        <ele>710.4</ele>
        <time>2021-02-21T15:58:32Z</time>
      </trkpt>
      <trkpt lat="46.68039" lon="5.94308">
        <ele>711.5</ele>
        <time>2021-02-21T15:58:37Z</time>
      </trkpt>
      <trkpt lat="46.68042" lon="5.94303">
        <ele>713.1</ele>
        <time>2021-02-21T15:58:45Z</time>
      </trkpt>
      <trkpt lat="46.68041" lon="5.94295">
        <ele>714.3</ele>
        <time>2021-02-21T15:58:52Z</time>
      </trkpt>
      <trkpt lat="46.68038" lon="5.94284">
        <ele>713</ele>
        <time>2021-02-21T15:58:54Z</time>
      </trkpt>
      <trkpt lat="46.68035" lon="5.94276">
        <ele>712.7</ele>
        <time>2021-02-21T15:58:56Z</time>
      </trkpt>
      <trkpt lat="46.68037" lon="5.94269">
        <ele>711.8</ele>
        <time>2021-02-21T15:59:03Z</time>
      </trkpt>
      <trkpt lat="46.68036" lon="5.94261">
        <ele>712.9</ele>
        <time>2021-02-21T15:59:19Z</time>
      </trkpt>
      <trkpt lat="46.68031" lon="5.94246">
        <ele>712.1</ele>
        <time>2021-02-21T15:59:21Z</time>
      </trkpt>
      <trkpt lat="46.68029" lon="5.9424">
        <ele>711.5</ele>
        <time>2021-02-21T15:59:24Z</time>
      </trkpt>
      <trkpt lat="46.68033" lon="5.94238">
        <ele>710.3</ele>
        <time>2021-02-21T15:59:35Z</time>
      </trkpt>
      <trkpt lat="46.68032" lon="5.94231">
        <ele>710.6</ele>
        <time>2021-02-21T15:59:46Z</time>
      </trkpt>
      <trkpt lat="46.68032" lon="5.94224">
        <ele>710</ele>
        <time>2021-02-21T15:59:53Z</time>
      </trkpt>
      <trkpt lat="46.68024" lon="5.94211">
        <ele>705.7</ele>
        <time>2021-02-21T15:59:59Z</time>
      </trkpt>
      <trkpt lat="46.6802" lon="5.94206">
        <ele>703.7</ele>
        <time>2021-02-21T16:00:01Z</time>
      </trkpt>
      <trkpt lat="46.68024" lon="5.94202">
        <ele>696.7</ele>
        <time>2021-02-21T16:00:10Z</time>
      </trkpt>
      <trkpt lat="46.6803" lon="5.94203">
        <ele>695.3</ele>
        <time>2021-02-21T16:00:13Z</time>
      </trkpt>
      <trkpt lat="46.68035" lon="5.94203">
        <ele>694.4</ele>
        <time>2021-02-21T16:00:15Z</time>
      </trkpt>
      <trkpt lat="46.6804" lon="5.94204">
        <ele>693.1</ele>
        <time>2021-02-21T16:00:19Z</time>
      </trkpt>
      <trkpt lat="46.68045" lon="5.94207">
        <ele>691.8</ele>
        <time>2021-02-21T16:00:25Z</time>
      </trkpt>
      <trkpt lat="46.68049" lon="5.9421">
        <ele>691.2</ele>
        <time>2021-02-21T16:00:30Z</time>
      </trkpt>
      <trkpt lat="46.68054" lon="5.94213">
        <ele>691.1</ele>
        <time>2021-02-21T16:00:36Z</time>
      </trkpt>
      <trkpt lat="46.68059" lon="5.94212">
        <ele>690.9</ele>
        <time>2021-02-21T16:00:41Z</time>
      </trkpt>
      <trkpt lat="46.68064" lon="5.94212">
        <ele>690.6</ele>
        <time>2021-02-21T16:00:45Z</time>
      </trkpt>
      <trkpt lat="46.68069" lon="5.94211">
        <ele>690.5</ele>
        <time>2021-02-21T16:00:48Z</time>
      </trkpt>
      <trkpt lat="46.68073" lon="5.94211">
        <ele>690.4</ele>
        <time>2021-02-21T16:00:55Z</time>
      </trkpt>
      <trkpt lat="46.68077" lon="5.94214">
        <ele>690.6</ele>
        <time>2021-02-21T16:01:03Z</time>
      </trkpt>
      <trkpt lat="46.68083" lon="5.94216">
        <ele>690.7</ele>
        <time>2021-02-21T16:01:09Z</time>
      </trkpt>
      <trkpt lat="46.68088" lon="5.94216">
        <ele>690.5</ele>
        <time>2021-02-21T16:01:17Z</time>
      </trkpt>
      <trkpt lat="46.68093" lon="5.94218">
        <ele>690.2</ele>
        <time>2021-02-21T16:01:29Z</time>
      </trkpt>
      <trkpt lat="46.68098" lon="5.94217">
        <ele>689.9</ele>
        <time>2021-02-21T16:01:35Z</time>
      </trkpt>
      <trkpt lat="46.68102" lon="5.94214">
        <ele>689.6</ele>
        <time>2021-02-21T16:01:41Z</time>
      </trkpt>
      <trkpt lat="46.68106" lon="5.9421">
        <ele>684.7</ele>
        <time>2021-02-21T16:01:54Z</time>
      </trkpt>
      <trkpt lat="46.68111" lon="5.94212">
        <ele>679.4</ele>
        <time>2021-02-21T16:02:13Z</time>
      </trkpt>
      <trkpt lat="46.68115" lon="5.94209">
        <ele>678.1</ele>
        <time>2021-02-21T16:02:20Z</time>
      </trkpt>
      <trkpt lat="46.68118" lon="5.94204">
        <ele>677.4</ele>
        <time>2021-02-21T16:02:24Z</time>
      </trkpt>
      <trkpt lat="46.68122" lon="5.94202">
        <ele>676.7</ele>
        <time>2021-02-21T16:02:29Z</time>
      </trkpt>
      <trkpt lat="46.68127" lon="5.94199">
        <ele>676</ele>
        <time>2021-02-21T16:02:39Z</time>
      </trkpt>
      <trkpt lat="46.6813" lon="5.94195">
        <ele>676.1</ele>
        <time>2021-02-21T16:02:48Z</time>
      </trkpt>
      <trkpt lat="46.68133" lon="5.94189">
        <ele>675.6</ele>
        <time>2021-02-21T16:02:54Z</time>
      </trkpt>
      <trkpt lat="46.68136" lon="5.94184">
        <ele>674.1</ele>
        <time>2021-02-21T16:03:02Z</time>
      </trkpt>
      <trkpt lat="46.68136" lon="5.94177">
        <ele>672.1</ele>
        <time>2021-02-21T16:03:14Z</time>
      </trkpt>
      <trkpt lat="46.68133" lon="5.9417">
        <ele>670.9</ele>
        <time>2021-02-21T16:03:21Z</time>
      </trkpt>
      <trkpt lat="46.68129" lon="5.94167">
        <ele>670.4</ele>
        <time>2021-02-21T16:03:26Z</time>
      </trkpt>
      <trkpt lat="46.68133" lon="5.94164">
        <ele>667.9</ele>
        <time>2021-02-21T16:03:54Z</time>
      </trkpt>
      <trkpt lat="46.68132" lon="5.94156">
        <ele>667.7</ele>
        <time>2021-02-21T16:04:00Z</time>
      </trkpt>
      <trkpt lat="46.68129" lon="5.9415">
        <ele>667.7</ele>
        <time>2021-02-21T16:04:05Z</time>
      </trkpt>
      <trkpt lat="46.68125" lon="5.94145">
        <ele>667.7</ele>
        <time>2021-02-21T16:04:08Z</time>
      </trkpt>
      <trkpt lat="46.6812" lon="5.94141">
        <ele>667.5</ele>
        <time>2021-02-21T16:04:13Z</time>
      </trkpt>
      <trkpt lat="46.68115" lon="5.9414">
        <ele>667.2</ele>
        <time>2021-02-21T16:04:18Z</time>
      </trkpt>
      <trkpt lat="46.68112" lon="5.94135">
        <ele>666.6</ele>
        <time>2021-02-21T16:04:26Z</time>
      </trkpt>
      <trkpt lat="46.68109" lon="5.94129">
        <ele>666.6</ele>
        <time>2021-02-21T16:04:35Z</time>
      </trkpt>
      <trkpt lat="46.68105" lon="5.94126">
        <ele>667.5</ele>
        <time>2021-02-21T16:04:41Z</time>
      </trkpt>
      <trkpt lat="46.681" lon="5.94122">
        <ele>668.2</ele>
        <time>2021-02-21T16:04:46Z</time>
      </trkpt>
      <trkpt lat="46.68097" lon="5.94117">
        <ele>668.6</ele>
        <time>2021-02-21T16:04:51Z</time>
      </trkpt>
      <trkpt lat="46.68099" lon="5.9411">
        <ele>669</ele>
        <time>2021-02-21T16:05:01Z</time>
      </trkpt>
      <trkpt lat="46.68098" lon="5.94103">
        <ele>668.7</ele>
        <time>2021-02-21T16:05:08Z</time>
      </trkpt>
      <trkpt lat="46.68096" lon="5.94097">
        <ele>668.1</ele>
        <time>2021-02-21T16:05:18Z</time>
      </trkpt>
      <trkpt lat="46.68094" lon="5.94091">
        <ele>667.3</ele>
        <time>2021-02-21T16:05:29Z</time>
      </trkpt>
      <trkpt lat="46.68091" lon="5.94083">
        <ele>667.1</ele>
        <time>2021-02-21T16:05:37Z</time>
      </trkpt>
      <trkpt lat="46.68089" lon="5.94077">
        <ele>668.2</ele>
        <time>2021-02-21T16:05:46Z</time>
      </trkpt>
      <trkpt lat="46.68084" lon="5.94074">
        <ele>669.1</ele>
        <time>2021-02-21T16:05:51Z</time>
      </trkpt>
      <trkpt lat="46.6808" lon="5.94067">
        <ele>670</ele>
        <time>2021-02-21T16:05:53Z</time>
      </trkpt>
      <trkpt lat="46.68076" lon="5.94061">
        <ele>671.2</ele>
        <time>2021-02-21T16:05:55Z</time>
      </trkpt>
      <trkpt lat="46.68073" lon="5.94055">
        <ele>673.6</ele>
        <time>2021-02-21T16:06:01Z</time>
      </trkpt>
      <trkpt lat="46.68069" lon="5.94051">
        <ele>674.9</ele>
        <time>2021-02-21T16:06:06Z</time>
      </trkpt>
      <trkpt lat="46.68065" lon="5.94048">
        <ele>675.6</ele>
        <time>2021-02-21T16:06:12Z</time>
      </trkpt>
      <trkpt lat="46.68061" lon="5.94043">
        <ele>675.7</ele>
        <time>2021-02-21T16:06:19Z</time>
      </trkpt>
      <trkpt lat="46.68058" lon="5.94037">
        <ele>675.3</ele>
        <time>2021-02-21T16:06:29Z</time>
      </trkpt>
      <trkpt lat="46.68056" lon="5.94031">
        <ele>675</ele>
        <time>2021-02-21T16:06:36Z</time>
      </trkpt>
      <trkpt lat="46.68055" lon="5.94024">
        <ele>674.3</ele>
        <time>2021-02-21T16:06:43Z</time>
      </trkpt>
      <trkpt lat="46.68051" lon="5.94018">
        <ele>673.4</ele>
        <time>2021-02-21T16:06:50Z</time>
      </trkpt>
      <trkpt lat="46.68048" lon="5.94012">
        <ele>672.7</ele>
        <time>2021-02-21T16:06:55Z</time>
      </trkpt>
      <trkpt lat="46.68045" lon="5.94008">
        <ele>672.2</ele>
        <time>2021-02-21T16:06:58Z</time>
      </trkpt>
      <trkpt lat="46.68043" lon="5.94001">
        <ele>670.2</ele>
        <time>2021-02-21T16:07:10Z</time>
      </trkpt>
      <trkpt lat="46.68041" lon="5.93995">
        <ele>669.3</ele>
        <time>2021-02-21T16:07:13Z</time>
      </trkpt>
      <trkpt lat="46.68038" lon="5.93988">
        <ele>668.3</ele>
        <time>2021-02-21T16:07:17Z</time>
      </trkpt>
      <trkpt lat="46.68036" lon="5.93981">
        <ele>667.1</ele>
        <time>2021-02-21T16:07:22Z</time>
      </trkpt>
      <trkpt lat="46.68035" lon="5.93974">
        <ele>666.1</ele>
        <time>2021-02-21T16:07:31Z</time>
      </trkpt>
      <trkpt lat="46.68033" lon="5.93967">
        <ele>665.5</ele>
        <time>2021-02-21T16:07:36Z</time>
      </trkpt>
      <trkpt lat="46.68031" lon="5.93962">
        <ele>664.9</ele>
        <time>2021-02-21T16:07:40Z</time>
      </trkpt>
      <trkpt lat="46.68027" lon="5.93956">
        <ele>663.8</ele>
        <time>2021-02-21T16:07:48Z</time>
      </trkpt>
      <trkpt lat="46.68024" lon="5.93952">
        <ele>663.4</ele>
        <time>2021-02-21T16:07:50Z</time>
      </trkpt>
      <trkpt lat="46.68019" lon="5.93945">
        <ele>662.9</ele>
        <time>2021-02-21T16:07:52Z</time>
      </trkpt>
      <trkpt lat="46.68015" lon="5.93939">
        <ele>662.2</ele>
        <time>2021-02-21T16:07:54Z</time>
      </trkpt>
      <trkpt lat="46.68011" lon="5.93932">
        <ele>661.4</ele>
        <time>2021-02-21T16:07:56Z</time>
      </trkpt>
      <trkpt lat="46.68009" lon="5.93925">
        <ele>660.4</ele>
        <time>2021-02-21T16:07:58Z</time>
      </trkpt>
      <trkpt lat="46.68008" lon="5.93917">
        <ele>658.5</ele>
        <time>2021-02-21T16:08:02Z</time>
      </trkpt>
      <trkpt lat="46.6801" lon="5.9391">
        <ele>655.8</ele>
        <time>2021-02-21T16:08:08Z</time>
      </trkpt>
      <trkpt lat="46.68007" lon="5.93904">
        <ele>653.2</ele>
        <time>2021-02-21T16:08:14Z</time>
      </trkpt>
      <trkpt lat="46.68004" lon="5.939">
        <ele>651.9</ele>
        <time>2021-02-21T16:08:18Z</time>
      </trkpt>
      <trkpt lat="46.68" lon="5.93895">
        <ele>651</ele>
        <time>2021-02-21T16:08:22Z</time>
      </trkpt>
      <trkpt lat="46.67997" lon="5.93889">
        <ele>650.4</ele>
        <time>2021-02-21T16:08:26Z</time>
      </trkpt>
      <trkpt lat="46.67994" lon="5.93883">
        <ele>649.3</ele>
        <time>2021-02-21T16:08:34Z</time>
      </trkpt>
      <trkpt lat="46.6799" lon="5.9388">
        <ele>648.4</ele>
        <time>2021-02-21T16:08:41Z</time>
      </trkpt>
      <trkpt lat="46.67993" lon="5.93875">
        <ele>646.8</ele>
        <time>2021-02-21T16:08:47Z</time>
      </trkpt>
      <trkpt lat="46.67998" lon="5.93874">
        <ele>645</ele>
        <time>2021-02-21T16:08:52Z</time>
      </trkpt>
      <trkpt lat="46.68003" lon="5.93876">
        <ele>640.7</ele>
        <time>2021-02-21T16:09:03Z</time>
      </trkpt>
      <trkpt lat="46.68008" lon="5.93878">
        <ele>637.9</ele>
        <time>2021-02-21T16:09:08Z</time>
      </trkpt>
      <trkpt lat="46.68012" lon="5.9388">
        <ele>635.9</ele>
        <time>2021-02-21T16:09:12Z</time>
      </trkpt>
      <trkpt lat="46.68016" lon="5.93884">
        <ele>633.7</ele>
        <time>2021-02-21T16:09:17Z</time>
      </trkpt>
      <trkpt lat="46.68021" lon="5.93888">
        <ele>632.3</ele>
        <time>2021-02-21T16:09:21Z</time>
      </trkpt>
      <trkpt lat="46.68026" lon="5.93891">
        <ele>630.8</ele>
        <time>2021-02-21T16:09:25Z</time>
      </trkpt>
      <trkpt lat="46.68029" lon="5.93897">
        <ele>628.8</ele>
        <time>2021-02-21T16:09:30Z</time>
      </trkpt>
      <trkpt lat="46.68031" lon="5.93904">
        <ele>627.2</ele>
        <time>2021-02-21T16:09:35Z</time>
      </trkpt>
      <trkpt lat="46.68035" lon="5.93909">
        <ele>626.3</ele>
        <time>2021-02-21T16:09:41Z</time>
      </trkpt>
      <trkpt lat="46.6804" lon="5.93912">
        <ele>626.3</ele>
        <time>2021-02-21T16:09:46Z</time>
      </trkpt>
      <trkpt lat="46.68044" lon="5.93915">
        <ele>626.4</ele>
        <time>2021-02-21T16:09:53Z</time>
      </trkpt>
      <trkpt lat="46.68048" lon="5.93919">
        <ele>626.1</ele>
        <time>2021-02-21T16:09:59Z</time>
      </trkpt>
      <trkpt lat="46.68052" lon="5.93923">
        <ele>626</ele>
        <time>2021-02-21T16:10:08Z</time>
      </trkpt>
      <trkpt lat="46.68056" lon="5.93925">
        <ele>626.3</ele>
        <time>2021-02-21T16:10:14Z</time>
      </trkpt>
      <trkpt lat="46.6806" lon="5.93929">
        <ele>626.2</ele>
        <time>2021-02-21T16:10:20Z</time>
      </trkpt>
      <trkpt lat="46.68065" lon="5.93931">
        <ele>626.2</ele>
        <time>2021-02-21T16:10:27Z</time>
      </trkpt>
      <trkpt lat="46.68069" lon="5.93932">
        <ele>626</ele>
        <time>2021-02-21T16:10:31Z</time>
      </trkpt>
      <trkpt lat="46.68074" lon="5.93935">
        <ele>625.9</ele>
        <time>2021-02-21T16:10:38Z</time>
      </trkpt>
      <trkpt lat="46.68078" lon="5.93937">
        <ele>626.3</ele>
        <time>2021-02-21T16:10:50Z</time>
      </trkpt>
      <trkpt lat="46.68083" lon="5.93941">
        <ele>626.9</ele>
        <time>2021-02-21T16:10:54Z</time>
      </trkpt>
      <trkpt lat="46.68088" lon="5.93943">
        <ele>627.3</ele>
        <time>2021-02-21T16:10:59Z</time>
      </trkpt>
      <trkpt lat="46.68093" lon="5.93941">
        <ele>626.9</ele>
        <time>2021-02-21T16:11:01Z</time>
      </trkpt>
      <trkpt lat="46.68098" lon="5.93938">
        <ele>626.7</ele>
        <time>2021-02-21T16:11:04Z</time>
      </trkpt>
      <trkpt lat="46.68103" lon="5.93939">
        <ele>626.8</ele>
        <time>2021-02-21T16:11:09Z</time>
      </trkpt>
      <trkpt lat="46.68107" lon="5.93943">
        <ele>627.1</ele>
        <time>2021-02-21T16:11:14Z</time>
      </trkpt>
      <trkpt lat="46.68111" lon="5.93948">
        <ele>627.2</ele>
        <time>2021-02-21T16:11:18Z</time>
      </trkpt>
      <trkpt lat="46.68116" lon="5.93951">
        <ele>627</ele>
        <time>2021-02-21T16:11:22Z</time>
      </trkpt>
      <trkpt lat="46.6812" lon="5.93956">
        <ele>626.7</ele>
        <time>2021-02-21T16:11:27Z</time>
      </trkpt>
      <trkpt lat="46.68123" lon="5.93962">
        <ele>626.1</ele>
        <time>2021-02-21T16:11:33Z</time>
      </trkpt>
      <trkpt lat="46.68127" lon="5.93966">
        <ele>625.4</ele>
        <time>2021-02-21T16:11:38Z</time>
      </trkpt>
      <trkpt lat="46.68131" lon="5.9397">
        <ele>624.6</ele>
        <time>2021-02-21T16:11:42Z</time>
      </trkpt>
      <trkpt lat="46.68135" lon="5.93974">
        <ele>623.7</ele>
        <time>2021-02-21T16:11:46Z</time>
      </trkpt>
      <trkpt lat="46.68139" lon="5.93978">
        <ele>623</ele>
        <time>2021-02-21T16:11:51Z</time>
      </trkpt>
      <trkpt lat="46.68143" lon="5.93983">
        <ele>622.1</ele>
        <time>2021-02-21T16:11:56Z</time>
      </trkpt>
      <trkpt lat="46.68146" lon="5.93988">
        <ele>619.9</ele>
        <time>2021-02-21T16:12:02Z</time>
      </trkpt>
      <trkpt lat="46.68148" lon="5.93994">
        <ele>617.8</ele>
        <time>2021-02-21T16:12:08Z</time>
      </trkpt>
      <trkpt lat="46.6815" lon="5.94001">
        <ele>616.6</ele>
        <time>2021-02-21T16:12:13Z</time>
      </trkpt>
      <trkpt lat="46.68152" lon="5.94007">
        <ele>615.7</ele>
        <time>2021-02-21T16:12:18Z</time>
      </trkpt>
      <trkpt lat="46.68155" lon="5.94013">
        <ele>614.8</ele>
        <time>2021-02-21T16:12:22Z</time>
      </trkpt>
      <trkpt lat="46.68158" lon="5.94019">
        <ele>613.3</ele>
        <time>2021-02-21T16:12:27Z</time>
      </trkpt>
      <trkpt lat="46.6816" lon="5.94025">
        <ele>612.2</ele>
        <time>2021-02-21T16:12:31Z</time>
      </trkpt>
      <trkpt lat="46.68163" lon="5.94031">
        <ele>611.4</ele>
        <time>2021-02-21T16:12:35Z</time>
      </trkpt>
      <trkpt lat="46.68166" lon="5.94036">
        <ele>610.9</ele>
        <time>2021-02-21T16:12:39Z</time>
      </trkpt>
      <trkpt lat="46.6817" lon="5.94042">
        <ele>610.1</ele>
        <time>2021-02-21T16:12:44Z</time>
      </trkpt>
      <trkpt lat="46.68173" lon="5.94046">
        <ele>609.1</ele>
        <time>2021-02-21T16:12:50Z</time>
      </trkpt>
      <trkpt lat="46.68179" lon="5.94048">
        <ele>608.3</ele>
        <time>2021-02-21T16:12:57Z</time>
      </trkpt>
      <trkpt lat="46.68183" lon="5.94049">
        <ele>608.8</ele>
        <time>2021-02-21T16:13:01Z</time>
      </trkpt>
      <trkpt lat="46.68188" lon="5.94049">
        <ele>609.4</ele>
        <time>2021-02-21T16:13:05Z</time>
      </trkpt>
      <trkpt lat="46.68193" lon="5.94051">
        <ele>610.2</ele>
        <time>2021-02-21T16:13:09Z</time>
      </trkpt>
      <trkpt lat="46.68198" lon="5.94055">
        <ele>610.9</ele>
        <time>2021-02-21T16:13:15Z</time>
      </trkpt>
      <trkpt lat="46.68202" lon="5.94058">
        <ele>610.7</ele>
        <time>2021-02-21T16:13:19Z</time>
      </trkpt>
      <trkpt lat="46.68207" lon="5.94061">
        <ele>609.4</ele>
        <time>2021-02-21T16:13:23Z</time>
      </trkpt>
      <trkpt lat="46.68211" lon="5.94066">
        <ele>608.2</ele>
        <time>2021-02-21T16:13:27Z</time>
      </trkpt>
      <trkpt lat="46.68214" lon="5.94071">
        <ele>607.3</ele>
        <time>2021-02-21T16:13:31Z</time>
      </trkpt>
      <trkpt lat="46.68218" lon="5.94075">
        <ele>606.8</ele>
        <time>2021-02-21T16:13:35Z</time>
      </trkpt>
      <trkpt lat="46.68222" lon="5.94078">
        <ele>606.3</ele>
        <time>2021-02-21T16:13:40Z</time>
      </trkpt>
      <trkpt lat="46.68226" lon="5.94084">
        <ele>605.2</ele>
        <time>2021-02-21T16:13:45Z</time>
      </trkpt>
      <trkpt lat="46.68229" lon="5.94089">
        <ele>603.6</ele>
        <time>2021-02-21T16:13:50Z</time>
      </trkpt>
      <trkpt lat="46.68232" lon="5.94095">
        <ele>602.5</ele>
        <time>2021-02-21T16:13:54Z</time>
      </trkpt>
      <trkpt lat="46.68237" lon="5.94098">
        <ele>601.9</ele>
        <time>2021-02-21T16:13:57Z</time>
      </trkpt>
      <trkpt lat="46.68242" lon="5.94102">
        <ele>601.1</ele>
        <time>2021-02-21T16:14:02Z</time>
      </trkpt>
      <trkpt lat="46.68246" lon="5.94106">
        <ele>600.6</ele>
        <time>2021-02-21T16:14:07Z</time>
      </trkpt>
      <trkpt lat="46.68249" lon="5.9411">
        <ele>599.4</ele>
        <time>2021-02-21T16:14:13Z</time>
      </trkpt>
      <trkpt lat="46.68254" lon="5.94113">
        <ele>598.5</ele>
        <time>2021-02-21T16:14:19Z</time>
      </trkpt>
      <trkpt lat="46.68258" lon="5.94118">
        <ele>598.2</ele>
        <time>2021-02-21T16:14:24Z</time>
      </trkpt>
      <trkpt lat="46.68262" lon="5.94122">
        <ele>598.1</ele>
        <time>2021-02-21T16:14:28Z</time>
      </trkpt>
      <trkpt lat="46.68265" lon="5.94127">
        <ele>598.3</ele>
        <time>2021-02-21T16:14:32Z</time>
      </trkpt>
      <trkpt lat="46.68268" lon="5.94132">
        <ele>598.5</ele>
        <time>2021-02-21T16:14:39Z</time>
      </trkpt>
      <trkpt lat="46.68273" lon="5.94134">
        <ele>598.6</ele>
        <time>2021-02-21T16:14:45Z</time>
      </trkpt>
      <trkpt lat="46.68277" lon="5.94139">
        <ele>597.5</ele>
        <time>2021-02-21T16:14:51Z</time>
      </trkpt>
      <trkpt lat="46.6828" lon="5.94145">
        <ele>595.7</ele>
        <time>2021-02-21T16:14:58Z</time>
      </trkpt>
      <trkpt lat="46.68284" lon="5.9415">
        <ele>594.9</ele>
        <time>2021-02-21T16:15:04Z</time>
      </trkpt>
      <trkpt lat="46.68288" lon="5.94154">
        <ele>594.4</ele>
        <time>2021-02-21T16:15:09Z</time>
      </trkpt>
      <trkpt lat="46.68291" lon="5.9416">
        <ele>593.9</ele>
        <time>2021-02-21T16:15:15Z</time>
      </trkpt>
      <trkpt lat="46.68296" lon="5.94161">
        <ele>593.3</ele>
        <time>2021-02-21T16:15:20Z</time>
      </trkpt>
      <trkpt lat="46.683" lon="5.94165">
        <ele>592.5</ele>
        <time>2021-02-21T16:15:27Z</time>
      </trkpt>
      <trkpt lat="46.68304" lon="5.9417">
        <ele>592.3</ele>
        <time>2021-02-21T16:15:33Z</time>
      </trkpt>
      <trkpt lat="46.68309" lon="5.94173">
        <ele>592.4</ele>
        <time>2021-02-21T16:15:36Z</time>
      </trkpt>
      <trkpt lat="46.68313" lon="5.94176">
        <ele>592.2</ele>
        <time>2021-02-21T16:15:41Z</time>
      </trkpt>
      <trkpt lat="46.68318" lon="5.94178">
        <ele>590.6</ele>
        <time>2021-02-21T16:15:48Z</time>
      </trkpt>
      <trkpt lat="46.68323" lon="5.94181">
        <ele>589.8</ele>
        <time>2021-02-21T16:15:52Z</time>
      </trkpt>
      <trkpt lat="46.68328" lon="5.94181">
        <ele>588.1</ele>
        <time>2021-02-21T16:15:57Z</time>
      </trkpt>
      <trkpt lat="46.68332" lon="5.94184">
        <ele>586.7</ele>
        <time>2021-02-21T16:16:02Z</time>
      </trkpt>
      <trkpt lat="46.68336" lon="5.94187">
        <ele>585.4</ele>
        <time>2021-02-21T16:16:09Z</time>
      </trkpt>
      <trkpt lat="46.6834" lon="5.94192">
        <ele>584.8</ele>
        <time>2021-02-21T16:16:15Z</time>
      </trkpt>
      <trkpt lat="46.68345" lon="5.94193">
        <ele>584.5</ele>
        <time>2021-02-21T16:16:22Z</time>
      </trkpt>
      <trkpt lat="46.68351" lon="5.94192">
        <ele>584.3</ele>
        <time>2021-02-21T16:16:27Z</time>
      </trkpt>
      <trkpt lat="46.68355" lon="5.94194">
        <ele>584.1</ele>
        <time>2021-02-21T16:16:30Z</time>
      </trkpt>
      <trkpt lat="46.68361" lon="5.94196">
        <ele>584.4</ele>
        <time>2021-02-21T16:16:34Z</time>
      </trkpt>
      <trkpt lat="46.68365" lon="5.94199">
        <ele>584.9</ele>
        <time>2021-02-21T16:16:38Z</time>
      </trkpt>
      <trkpt lat="46.6837" lon="5.94201">
        <ele>585.5</ele>
        <time>2021-02-21T16:16:44Z</time>
      </trkpt>
      <trkpt lat="46.68375" lon="5.94202">
        <ele>585.7</ele>
        <time>2021-02-21T16:16:48Z</time>
      </trkpt>
      <trkpt lat="46.68379" lon="5.94205">
        <ele>586.3</ele>
        <time>2021-02-21T16:16:54Z</time>
      </trkpt>
      <trkpt lat="46.68385" lon="5.94205">
        <ele>586.9</ele>
        <time>2021-02-21T16:16:58Z</time>
      </trkpt>
      <trkpt lat="46.6839" lon="5.94206">
        <ele>587.4</ele>
        <time>2021-02-21T16:17:01Z</time>
      </trkpt>
      <trkpt lat="46.68395" lon="5.94208">
        <ele>588.2</ele>
        <time>2021-02-21T16:17:04Z</time>
      </trkpt>
      <trkpt lat="46.684" lon="5.94209">
        <ele>588.7</ele>
        <time>2021-02-21T16:17:07Z</time>
      </trkpt>
      <trkpt lat="46.68404" lon="5.94211">
        <ele>589</ele>
        <time>2021-02-21T16:17:10Z</time>
      </trkpt>
      <trkpt lat="46.68408" lon="5.94214">
        <ele>589.5</ele>
        <time>2021-02-21T16:17:13Z</time>
      </trkpt>
      <trkpt lat="46.68411" lon="5.94219">
        <ele>589.8</ele>
        <time>2021-02-21T16:17:18Z</time>
      </trkpt>
      <trkpt lat="46.68412" lon="5.94226">
        <ele>590.1</ele>
        <time>2021-02-21T16:17:24Z</time>
      </trkpt>
      <trkpt lat="46.68412" lon="5.94233">
        <ele>590.1</ele>
        <time>2021-02-21T16:17:28Z</time>
      </trkpt>
      <trkpt lat="46.68411" lon="5.9424">
        <ele>588.6</ele>
        <time>2021-02-21T16:17:33Z</time>
      </trkpt>
      <trkpt lat="46.68412" lon="5.94247">
        <ele>586.7</ele>
        <time>2021-02-21T16:17:37Z</time>
      </trkpt>
      <trkpt lat="46.68414" lon="5.94253">
        <ele>585.4</ele>
        <time>2021-02-21T16:17:42Z</time>
      </trkpt>
      <trkpt lat="46.68417" lon="5.94258">
        <ele>584.8</ele>
        <time>2021-02-21T16:17:47Z</time>
      </trkpt>
      <trkpt lat="46.68421" lon="5.94262">
        <ele>584.5</ele>
        <time>2021-02-21T16:17:51Z</time>
      </trkpt>
      <trkpt lat="46.68427" lon="5.94265">
        <ele>584.3</ele>
        <time>2021-02-21T16:17:55Z</time>
      </trkpt>
      <trkpt lat="46.68431" lon="5.94268">
        <ele>584.2</ele>
        <time>2021-02-21T16:17:58Z</time>
      </trkpt>
      <trkpt lat="46.68436" lon="5.9427">
        <ele>584.1</ele>
        <time>2021-02-21T16:18:01Z</time>
      </trkpt>
      <trkpt lat="46.6844" lon="5.94275">
        <ele>584.1</ele>
        <time>2021-02-21T16:18:05Z</time>
      </trkpt>
      <trkpt lat="46.68443" lon="5.94282">
        <ele>584.2</ele>
        <time>2021-02-21T16:18:10Z</time>
      </trkpt>
      <trkpt lat="46.68446" lon="5.94288">
        <ele>584.2</ele>
        <time>2021-02-21T16:18:16Z</time>
      </trkpt>
      <trkpt lat="46.6845" lon="5.94293">
        <ele>584</ele>
        <time>2021-02-21T16:18:22Z</time>
      </trkpt>
      <trkpt lat="46.68455" lon="5.94296">
        <ele>583.6</ele>
        <time>2021-02-21T16:18:28Z</time>
      </trkpt>
      <trkpt lat="46.68459" lon="5.94299">
        <ele>583.4</ele>
        <time>2021-02-21T16:18:33Z</time>
      </trkpt>
      <trkpt lat="46.68464" lon="5.94304">
        <ele>583.3</ele>
        <time>2021-02-21T16:18:37Z</time>
      </trkpt>
      <trkpt lat="46.68468" lon="5.94308">
        <ele>583.1</ele>
        <time>2021-02-21T16:18:41Z</time>
      </trkpt>
      <trkpt lat="46.68473" lon="5.94311">
        <ele>582.6</ele>
        <time>2021-02-21T16:18:45Z</time>
      </trkpt>
      <trkpt lat="46.68478" lon="5.94312">
        <ele>581.2</ele>
        <time>2021-02-21T16:18:51Z</time>
      </trkpt>
      <trkpt lat="46.68482" lon="5.94316">
        <ele>579.7</ele>
        <time>2021-02-21T16:18:57Z</time>
      </trkpt>
      <trkpt lat="46.68487" lon="5.94319">
        <ele>578.7</ele>
        <time>2021-02-21T16:19:03Z</time>
      </trkpt>
      <trkpt lat="46.68491" lon="5.94321">
        <ele>578.3</ele>
        <time>2021-02-21T16:19:09Z</time>
      </trkpt>
      <trkpt lat="46.68495" lon="5.94326">
        <ele>578</ele>
        <time>2021-02-21T16:19:17Z</time>
      </trkpt>
      <trkpt lat="46.68499" lon="5.94326">
        <ele>577.3</ele>
        <time>2021-02-21T16:19:23Z</time>
      </trkpt>
      <trkpt lat="46.68504" lon="5.94327">
        <ele>575.8</ele>
        <time>2021-02-21T16:19:31Z</time>
      </trkpt>
      <trkpt lat="46.68509" lon="5.94324">
        <ele>574.2</ele>
        <time>2021-02-21T16:19:39Z</time>
      </trkpt>
      <trkpt lat="46.68514" lon="5.94326">
        <ele>573.1</ele>
        <time>2021-02-21T16:19:46Z</time>
      </trkpt>
      <trkpt lat="46.68519" lon="5.94325">
        <ele>572</ele>
        <time>2021-02-21T16:19:52Z</time>
      </trkpt>
      <trkpt lat="46.68523" lon="5.94326">
        <ele>570.2</ele>
        <time>2021-02-21T16:19:59Z</time>
      </trkpt>
      <trkpt lat="46.68534" lon="5.94325">
        <ele>569.6</ele>
        <time>2021-02-21T16:20:05Z</time>
      </trkpt>
      <trkpt lat="46.68538" lon="5.94324">
        <ele>569.5</ele>
        <time>2021-02-21T16:20:07Z</time>
      </trkpt>
      <trkpt lat="46.68544" lon="5.94325">
        <ele>569.2</ele>
        <time>2021-02-21T16:20:11Z</time>
      </trkpt>
      <trkpt lat="46.68548" lon="5.94329">
        <ele>569</ele>
        <time>2021-02-21T16:20:16Z</time>
      </trkpt>
      <trkpt lat="46.68551" lon="5.94335">
        <ele>568.8</ele>
        <time>2021-02-21T16:20:21Z</time>
      </trkpt>
      <trkpt lat="46.68556" lon="5.94337">
        <ele>567.8</ele>
        <time>2021-02-21T16:20:26Z</time>
      </trkpt>
      <trkpt lat="46.68561" lon="5.9434">
        <ele>566.9</ele>
        <time>2021-02-21T16:20:31Z</time>
      </trkpt>
      <trkpt lat="46.68564" lon="5.94346">
        <ele>566.1</ele>
        <time>2021-02-21T16:20:37Z</time>
      </trkpt>
      <trkpt lat="46.68567" lon="5.9435">
        <ele>565.5</ele>
        <time>2021-02-21T16:20:42Z</time>
      </trkpt>
      <trkpt lat="46.68571" lon="5.94354">
        <ele>565</ele>
        <time>2021-02-21T16:20:47Z</time>
      </trkpt>
      <trkpt lat="46.68575" lon="5.94358">
        <ele>564.5</ele>
        <time>2021-02-21T16:20:53Z</time>
      </trkpt>
      <trkpt lat="46.68579" lon="5.94363">
        <ele>563.7</ele>
        <time>2021-02-21T16:20:59Z</time>
      </trkpt>
      <trkpt lat="46.68582" lon="5.94369">
        <ele>562.8</ele>
        <time>2021-02-21T16:21:03Z</time>
      </trkpt>
      <trkpt lat="46.68587" lon="5.94375">
        <ele>562</ele>
        <time>2021-02-21T16:21:07Z</time>
      </trkpt>
      <trkpt lat="46.6859" lon="5.94379">
        <ele>562.4</ele>
        <time>2021-02-21T16:21:11Z</time>
      </trkpt>
      <trkpt lat="46.68595" lon="5.94384">
        <ele>562.9</ele>
        <time>2021-02-21T16:21:16Z</time>
      </trkpt>
      <trkpt lat="46.68598" lon="5.94389">
        <ele>562.8</ele>
        <time>2021-02-21T16:21:20Z</time>
      </trkpt>
      <trkpt lat="46.68602" lon="5.94394">
        <ele>562</ele>
        <time>2021-02-21T16:21:25Z</time>
      </trkpt>
      <trkpt lat="46.68606" lon="5.94398">
        <ele>561.2</ele>
        <time>2021-02-21T16:21:30Z</time>
      </trkpt>
      <trkpt lat="46.6861" lon="5.94402">
        <ele>560.6</ele>
        <time>2021-02-21T16:21:34Z</time>
      </trkpt>
      <trkpt lat="46.68614" lon="5.94406">
        <ele>560.4</ele>
        <time>2021-02-21T16:21:38Z</time>
      </trkpt>
      <trkpt lat="46.68618" lon="5.9441">
        <ele>560.8</ele>
        <time>2021-02-21T16:21:42Z</time>
      </trkpt>
      <trkpt lat="46.68621" lon="5.94414">
        <ele>561.7</ele>
        <time>2021-02-21T16:21:45Z</time>
      </trkpt>
      <trkpt lat="46.68625" lon="5.94417">
        <ele>562.4</ele>
        <time>2021-02-21T16:21:50Z</time>
      </trkpt>
      <trkpt lat="46.68629" lon="5.94422">
        <ele>563.3</ele>
        <time>2021-02-21T16:21:54Z</time>
      </trkpt>
      <trkpt lat="46.68631" lon="5.94429">
        <ele>564.5</ele>
        <time>2021-02-21T16:21:58Z</time>
      </trkpt>
      <trkpt lat="46.68632" lon="5.94435">
        <ele>564.9</ele>
        <time>2021-02-21T16:22:02Z</time>
      </trkpt>
      <trkpt lat="46.68634" lon="5.94443">
        <ele>565.1</ele>
        <time>2021-02-21T16:22:07Z</time>
      </trkpt>
      <trkpt lat="46.68636" lon="5.9445">
        <ele>565.1</ele>
        <time>2021-02-21T16:22:12Z</time>
      </trkpt>
      <trkpt lat="46.68635" lon="5.94458">
        <ele>563.8</ele>
        <time>2021-02-21T16:22:16Z</time>
      </trkpt>
      <trkpt lat="46.68638" lon="5.94464">
        <ele>562.3</ele>
        <time>2021-02-21T16:22:19Z</time>
      </trkpt>
      <trkpt lat="46.6864" lon="5.9447">
        <ele>560.6</ele>
        <time>2021-02-21T16:22:24Z</time>
      </trkpt>
      <trkpt lat="46.68643" lon="5.94476">
        <ele>558.7</ele>
        <time>2021-02-21T16:22:29Z</time>
      </trkpt>
      <trkpt lat="46.68644" lon="5.94483">
        <ele>556.4</ele>
        <time>2021-02-21T16:22:34Z</time>
      </trkpt>
      <trkpt lat="46.68648" lon="5.94488">
        <ele>554</ele>
        <time>2021-02-21T16:22:41Z</time>
      </trkpt>
      <trkpt lat="46.68653" lon="5.94488">
        <ele>552.8</ele>
        <time>2021-02-21T16:22:47Z</time>
      </trkpt>
      <trkpt lat="46.68657" lon="5.94491">
        <ele>551.8</ele>
        <time>2021-02-21T16:22:53Z</time>
      </trkpt>
      <trkpt lat="46.68662" lon="5.94495">
        <ele>551.3</ele>
        <time>2021-02-21T16:22:58Z</time>
      </trkpt>
      <trkpt lat="46.68666" lon="5.94499">
        <ele>551</ele>
        <time>2021-02-21T16:23:04Z</time>
      </trkpt>
      <trkpt lat="46.6867" lon="5.94502">
        <ele>550.7</ele>
        <time>2021-02-21T16:23:10Z</time>
      </trkpt>
      <trkpt lat="46.68674" lon="5.94503">
        <ele>550.5</ele>
        <time>2021-02-21T16:23:15Z</time>
      </trkpt>
      <trkpt lat="46.68679" lon="5.94504">
        <ele>550.8</ele>
        <time>2021-02-21T16:23:19Z</time>
      </trkpt>
      <trkpt lat="46.68683" lon="5.94507">
        <ele>551</ele>
        <time>2021-02-21T16:23:26Z</time>
      </trkpt>
      <trkpt lat="46.68687" lon="5.94511">
        <ele>551.3</ele>
        <time>2021-02-21T16:23:33Z</time>
      </trkpt>
      <trkpt lat="46.68692" lon="5.94516">
        <ele>551.4</ele>
        <time>2021-02-21T16:23:38Z</time>
      </trkpt>
      <trkpt lat="46.68696" lon="5.9452">
        <ele>551.4</ele>
        <time>2021-02-21T16:23:42Z</time>
      </trkpt>
      <trkpt lat="46.687" lon="5.94523">
        <ele>551.4</ele>
        <time>2021-02-21T16:23:47Z</time>
      </trkpt>
      <trkpt lat="46.68704" lon="5.94526">
        <ele>551.7</ele>
        <time>2021-02-21T16:23:53Z</time>
      </trkpt>
      <trkpt lat="46.6871" lon="5.94527">
        <ele>551.9</ele>
        <time>2021-02-21T16:23:58Z</time>
      </trkpt>
      <trkpt lat="46.68714" lon="5.94527">
        <ele>551.9</ele>
        <time>2021-02-21T16:24:00Z</time>
      </trkpt>
      <trkpt lat="46.6872" lon="5.94531">
        <ele>551.3</ele>
        <time>2021-02-21T16:24:03Z</time>
      </trkpt>
      <trkpt lat="46.68726" lon="5.94533">
        <ele>551.2</ele>
        <time>2021-02-21T16:24:06Z</time>
      </trkpt>
      <trkpt lat="46.68731" lon="5.94535">
        <ele>551.4</ele>
        <time>2021-02-21T16:24:09Z</time>
      </trkpt>
      <trkpt lat="46.68735" lon="5.94539">
        <ele>551.7</ele>
        <time>2021-02-21T16:24:14Z</time>
      </trkpt>
      <trkpt lat="46.68737" lon="5.94545">
        <ele>551.4</ele>
        <time>2021-02-21T16:24:18Z</time>
      </trkpt>
      <trkpt lat="46.6874" lon="5.9455">
        <ele>550.1</ele>
        <time>2021-02-21T16:24:23Z</time>
      </trkpt>
      <trkpt lat="46.68745" lon="5.94548">
        <ele>547.7</ele>
        <time>2021-02-21T16:24:28Z</time>
      </trkpt>
      <trkpt lat="46.68749" lon="5.94551">
        <ele>545.2</ele>
        <time>2021-02-21T16:24:33Z</time>
      </trkpt>
      <trkpt lat="46.68754" lon="5.94553">
        <ele>542.5</ele>
        <time>2021-02-21T16:24:39Z</time>
      </trkpt>
      <trkpt lat="46.68757" lon="5.94558">
        <ele>539.7</ele>
        <time>2021-02-21T16:24:45Z</time>
      </trkpt>
      <trkpt lat="46.68761" lon="5.94563">
        <ele>537.7</ele>
        <time>2021-02-21T16:24:51Z</time>
      </trkpt>
      <trkpt lat="46.68765" lon="5.94568">
        <ele>537.1</ele>
        <time>2021-02-21T16:24:55Z</time>
      </trkpt>
      <trkpt lat="46.68769" lon="5.94573">
        <ele>536.2</ele>
        <time>2021-02-21T16:25:01Z</time>
      </trkpt>
      <trkpt lat="46.68771" lon="5.9458">
        <ele>535</ele>
        <time>2021-02-21T16:25:06Z</time>
      </trkpt>
      <trkpt lat="46.68775" lon="5.94585">
        <ele>533.8</ele>
        <time>2021-02-21T16:25:12Z</time>
      </trkpt>
      <trkpt lat="46.68776" lon="5.94592">
        <ele>530.6</ele>
        <time>2021-02-21T16:25:20Z</time>
      </trkpt>
      <trkpt lat="46.68776" lon="5.94598">
        <ele>528.6</ele>
        <time>2021-02-21T16:25:24Z</time>
      </trkpt>
      <trkpt lat="46.68777" lon="5.94605">
        <ele>526.8</ele>
        <time>2021-02-21T16:25:28Z</time>
      </trkpt>
      <trkpt lat="46.68778" lon="5.94613">
        <ele>526</ele>
        <time>2021-02-21T16:25:32Z</time>
      </trkpt>
      <trkpt lat="46.6878" lon="5.94619">
        <ele>525.8</ele>
        <time>2021-02-21T16:25:36Z</time>
      </trkpt>
      <trkpt lat="46.68782" lon="5.94627">
        <ele>525.7</ele>
        <time>2021-02-21T16:25:41Z</time>
      </trkpt>
      <trkpt lat="46.68784" lon="5.94634">
        <ele>525.9</ele>
        <time>2021-02-21T16:25:45Z</time>
      </trkpt>
      <trkpt lat="46.68786" lon="5.94641">
        <ele>526.5</ele>
        <time>2021-02-21T16:25:49Z</time>
      </trkpt>
      <trkpt lat="46.68787" lon="5.94648">
        <ele>527.7</ele>
        <time>2021-02-21T16:25:53Z</time>
      </trkpt>
      <trkpt lat="46.68788" lon="5.94655">
        <ele>528.9</ele>
        <time>2021-02-21T16:25:57Z</time>
      </trkpt>
      <trkpt lat="46.6879" lon="5.94662">
        <ele>530.3</ele>
        <time>2021-02-21T16:26:01Z</time>
      </trkpt>
      <trkpt lat="46.68792" lon="5.94668">
        <ele>531.3</ele>
        <time>2021-02-21T16:26:05Z</time>
      </trkpt>
      <trkpt lat="46.68793" lon="5.94676">
        <ele>532.4</ele>
        <time>2021-02-21T16:26:10Z</time>
      </trkpt>
      <trkpt lat="46.68795" lon="5.94684">
        <ele>533.1</ele>
        <time>2021-02-21T16:26:15Z</time>
      </trkpt>
      <trkpt lat="46.68796" lon="5.9469">
        <ele>533.7</ele>
        <time>2021-02-21T16:26:19Z</time>
      </trkpt>
      <trkpt lat="46.68798" lon="5.94697">
        <ele>534.4</ele>
        <time>2021-02-21T16:26:23Z</time>
      </trkpt>
      <trkpt lat="46.68798" lon="5.94705">
        <ele>534.5</ele>
        <time>2021-02-21T16:26:28Z</time>
      </trkpt>
      <trkpt lat="46.68799" lon="5.94712">
        <ele>534</ele>
        <time>2021-02-21T16:26:33Z</time>
      </trkpt>
      <trkpt lat="46.68801" lon="5.94719">
        <ele>533.6</ele>
        <time>2021-02-21T16:26:38Z</time>
      </trkpt>
      <trkpt lat="46.68802" lon="5.94727">
        <ele>533.1</ele>
        <time>2021-02-21T16:26:43Z</time>
      </trkpt>
      <trkpt lat="46.68803" lon="5.94734">
        <ele>532.8</ele>
        <time>2021-02-21T16:26:47Z</time>
      </trkpt>
      <trkpt lat="46.68805" lon="5.94742">
        <ele>532.5</ele>
        <time>2021-02-21T16:26:51Z</time>
      </trkpt>
      <trkpt lat="46.68806" lon="5.94749">
        <ele>532.3</ele>
        <time>2021-02-21T16:26:56Z</time>
      </trkpt>
      <trkpt lat="46.68807" lon="5.94756">
        <ele>532.2</ele>
        <time>2021-02-21T16:27:00Z</time>
      </trkpt>
      <trkpt lat="46.6881" lon="5.94762">
        <ele>532</ele>
        <time>2021-02-21T16:27:05Z</time>
      </trkpt>
      <trkpt lat="46.68809" lon="5.9477">
        <ele>531.1</ele>
        <time>2021-02-21T16:27:10Z</time>
      </trkpt>
      <trkpt lat="46.6881" lon="5.94777">
        <ele>530.5</ele>
        <time>2021-02-21T16:27:14Z</time>
      </trkpt>
      <trkpt lat="46.68813" lon="5.94785">
        <ele>530</ele>
        <time>2021-02-21T16:27:19Z</time>
      </trkpt>
      <trkpt lat="46.68816" lon="5.9479">
        <ele>530.3</ele>
        <time>2021-02-21T16:27:23Z</time>
      </trkpt>
      <trkpt lat="46.68817" lon="5.94797">
        <ele>530.5</ele>
        <time>2021-02-21T16:27:28Z</time>
      </trkpt>
      <trkpt lat="46.68819" lon="5.94804">
        <ele>530.6</ele>
        <time>2021-02-21T16:27:33Z</time>
      </trkpt>
      <trkpt lat="46.68822" lon="5.94811">
        <ele>530.7</ele>
        <time>2021-02-21T16:27:38Z</time>
      </trkpt>
      <trkpt lat="46.68827" lon="5.94813">
        <ele>530.9</ele>
        <time>2021-02-21T16:27:48Z</time>
      </trkpt>
      <trkpt lat="46.6883" lon="5.94808">
        <ele>530.8</ele>
        <time>2021-02-21T16:27:52Z</time>
      </trkpt>
      <trkpt lat="46.68834" lon="5.94804">
        <ele>531.2</ele>
        <time>2021-02-21T16:27:57Z</time>
      </trkpt>
      <trkpt lat="46.68839" lon="5.94799">
        <ele>531.4</ele>
        <time>2021-02-21T16:28:01Z</time>
      </trkpt>
      <trkpt lat="46.6884" lon="5.94792">
        <ele>532.1</ele>
        <time>2021-02-21T16:28:06Z</time>
      </trkpt>
      <trkpt lat="46.6884" lon="5.94785">
        <ele>532.4</ele>
        <time>2021-02-21T16:28:08Z</time>
      </trkpt>
      <trkpt lat="46.6884" lon="5.94778">
        <ele>533.2</ele>
        <time>2021-02-21T16:28:12Z</time>
      </trkpt>
      <trkpt lat="46.68841" lon="5.9477">
        <ele>533.5</ele>
        <time>2021-02-21T16:28:16Z</time>
      </trkpt>
      <trkpt lat="46.68844" lon="5.94763">
        <ele>533.5</ele>
        <time>2021-02-21T16:28:20Z</time>
      </trkpt>
      <trkpt lat="46.68845" lon="5.94755">
        <ele>533.3</ele>
        <time>2021-02-21T16:28:23Z</time>
      </trkpt>
      <trkpt lat="46.68848" lon="5.94749">
        <ele>533.2</ele>
        <time>2021-02-21T16:28:27Z</time>
      </trkpt>
      <trkpt lat="46.68852" lon="5.94745">
        <ele>533.7</ele>
        <time>2021-02-21T16:28:32Z</time>
      </trkpt>
      <trkpt lat="46.68856" lon="5.9474">
        <ele>533.6</ele>
        <time>2021-02-21T16:28:36Z</time>
      </trkpt>
      <trkpt lat="46.6886" lon="5.94736">
        <ele>533.2</ele>
        <time>2021-02-21T16:28:40Z</time>
      </trkpt>
      <trkpt lat="46.68865" lon="5.94734">
        <ele>533.1</ele>
        <time>2021-02-21T16:28:45Z</time>
      </trkpt>
      <trkpt lat="46.6887" lon="5.94733">
        <ele>533.2</ele>
        <time>2021-02-21T16:28:49Z</time>
      </trkpt>
      <trkpt lat="46.68875" lon="5.9473">
        <ele>533.3</ele>
        <time>2021-02-21T16:28:54Z</time>
      </trkpt>
      <trkpt lat="46.68878" lon="5.94724">
        <ele>533.4</ele>
        <time>2021-02-21T16:28:59Z</time>
      </trkpt>
    </trkseg>
  </trk>
</gpx>